Date StartTime U_cm/s V_cm/s W_cm/s Ustd_cm/s Vstd_cm/s Wstd_cm/s Uvar_(cm/s)^2 Vvar_(cm/s)^2 Wvar_(cm/s)^2 KE_(m/s)^2 TurbulentKE_(m/s)^2 HorizWindSpeed_cm/s FrictionSpeec_cm/s DragCoef SpeedOfSound_m/s SonicTemperature_C Pressure_mb 
11/02/2014  00:00:00      -80.684       18.488      -15.026       41.339       34.510       27.998     1708.943     1190.941      783.863        0.538        0.184       82.775       26.156        0.100      334.658        4.776      860.136
11/02/2014  00:01:00     -103.173      102.853      -22.071       64.177       50.857       35.276     4118.673     2586.431     1244.377        1.483        0.397      145.683       39.950        0.075      334.653        4.765      860.150
11/02/2014  00:02:00     -120.695      120.133      -28.796       47.365       44.432       27.521     2243.478     1974.162      757.426        1.740        0.249      170.292       26.635        0.024      334.653        4.767      860.152
11/02/2014  00:03:00     -121.281      147.221      -32.237       43.118       50.355       30.212     1859.184     2535.626      912.736        2.136        0.265      190.744       28.672        0.023      334.682        4.814      860.155
11/02/2014  00:04:00     -111.991      128.087      -33.259       53.855       42.994       32.573     2900.395     1848.486     1060.986        1.793        0.290      170.142       24.365        0.021      334.659        4.776      860.148
11/02/2014  00:05:00     -103.087      124.422      -18.193       68.201       51.721       38.071     4651.387     2675.013     1449.415        1.761        0.439      161.579       36.352        0.051      334.671        4.795      860.127
11/02/2014  00:06:00      -67.008       35.905       -7.782       39.581       57.236       21.073     1566.623     3275.994      444.071        0.556        0.264       76.021       21.127        0.077      334.713        4.867      860.124
11/02/2014  00:07:00     -112.911      103.889      -28.338       43.953       54.744       30.202     1931.848     2996.943      912.176        1.509        0.292      153.433       20.757        0.018      334.742        4.915      860.126
11/02/2014  00:08:00      -96.820      130.646      -21.700       39.470       69.162       28.422     1557.874     4783.328      807.791        1.703        0.357      162.611       22.751        0.020      334.715        4.869      860.127
11/02/2014  00:09:00     -132.592      174.597      -30.105       57.594       68.832       36.862     3317.060     4737.885     1358.772        2.919        0.471      219.236       31.156        0.020      334.706        4.851      860.135
11/02/2014  00:10:00      -74.231       98.567      -15.835       46.431       43.882       29.171     2155.796     1925.646      850.946        1.020        0.247      123.392       24.498        0.039      334.736        4.906      860.150
11/02/2014  00:11:00     -123.593      166.936      -27.932       52.967       78.590       34.655     2805.537     6176.426     1200.940        2.705        0.509      207.708       35.158        0.029      334.686        4.819      860.167
11/02/2014  00:12:00     -175.683      169.784      -28.546       78.715       75.891       50.602     6196.036     5759.506     2560.590        3.751        0.726      244.318       44.557        0.033      334.652        4.761      860.181
11/02/2014  00:13:00     -213.663      156.945      -38.875       76.681       82.038       49.882     5879.986     6730.238     2488.192        4.344        0.755      265.111       45.902        0.030      334.675        4.800      860.180
11/02/2014  00:14:00     -199.613      177.809      -37.135       81.061       80.696       46.562     6570.810     6511.820     2167.975        4.404        0.763      267.323       32.745        0.015      334.659        4.772      860.190
11/02/2014  00:15:00     -178.451      177.909      -32.795       79.087       94.565       51.220     6254.725     8942.609     2623.514        4.119        0.891      251.985       43.105        0.029      334.641        4.744      860.199
11/02/2014  00:16:00     -184.730      239.022      -46.266       77.205      119.187       51.312     5960.588    14205.486     2632.892        5.809        1.140      302.087       43.244        0.020      334.693        4.830      860.205
11/02/2014  00:17:00     -126.358      162.877      -11.033       79.127      115.925       51.943     6261.077    13438.545     2698.100        3.250        1.120      206.144       51.693        0.063      334.697        4.838      860.213
11/02/2014  00:18:00     -131.913      202.278      -29.920       65.100       89.043       48.383     4237.998     7928.715     2340.898        3.686        0.725      241.490       37.972        0.025      334.708        4.856      860.220
11/02/2014  00:19:00     -137.544      142.285      -23.535       81.013       72.495       45.489     6563.036     5255.568     2069.255        2.680        0.694      197.897       46.009        0.054      334.795        4.999      860.220
11/02/2014  00:20:00     -122.445      115.338      -17.449       79.640       90.825       46.153     6342.461     8249.147     2130.075        2.266        0.836      168.213       51.510        0.094      334.786        4.987      860.211
11/02/2014  00:21:00     -169.030      128.136      -31.641       71.113       92.123       36.535     5057.043     8486.603     1334.831        3.043        0.744      212.109       26.966        0.016      334.754        4.930      860.218
11/02/2014  00:22:00     -131.637      124.707      -28.294       70.486       87.957       37.641     4968.222     7736.351     1416.826        2.390        0.706      181.329       50.776        0.078      334.723        4.882      860.227
11/02/2014  00:23:00     -163.095      141.062      -31.770       60.441       75.907       39.675     3653.082     5761.913     1574.084        2.925        0.549      215.635       38.937        0.033      334.724        4.883      860.237
11/02/2014  00:24:00     -133.917       77.571      -18.277       59.423       63.818       39.126     3531.049     4072.741     1530.868        1.671        0.457      154.761       32.132        0.043      334.689        4.825      860.243
11/02/2014  00:25:00     -114.781       -1.503      -10.825       64.256       71.708       42.439     4128.885     5142.019     1801.106        1.218        0.554      114.791       35.639        0.096      334.707        4.856      860.259
11/02/2014  00:26:00      -85.812       64.157       -4.173       41.453       35.111       36.128     1718.341     1232.788     1305.231        0.788        0.213      107.144       27.118        0.064      334.711        4.864      860.273
11/02/2014  00:27:00     -140.223       46.583      -20.555       49.579       51.066       29.316     2458.094     2607.712      859.426        1.409        0.296      147.758       26.696        0.033      334.703        4.850      860.276
11/02/2014  00:28:00      -99.546       60.911      -17.810       47.805       78.269       42.237     2285.335     6126.036     1783.945        1.206        0.510      116.703       25.646        0.048      334.669        4.794      860.268
11/02/2014  00:29:00      -92.041        1.150       -4.130       60.977       62.339       42.644     3718.148     3886.128     1818.483        0.895        0.471       92.048       27.187        0.087      334.653        4.768      860.272
11/02/2014  00:30:00      -89.470       11.074      -22.783       60.551       75.770       28.475     3666.483     5741.039      810.826        0.943        0.511       90.153       19.094        0.045      334.665        4.788      860.275
11/02/2014  00:31:00      -94.703      -17.010       -2.339       52.833       55.272       38.898     2791.275     3054.974     1513.068        0.831        0.368       96.218       30.157        0.098      334.673        4.801      860.263
11/02/2014  00:32:00     -150.334      -15.266      -16.293       77.781       69.113       33.421     6049.811     4776.659     1116.977        1.752        0.597      151.107       31.619        0.044      334.679        4.810      860.256
11/02/2014  00:33:00      -67.608       28.509      -11.337       52.659       63.436       32.647     2772.928     4024.161     1065.853        0.669        0.393       73.373       17.735        0.058      334.661        4.782      860.247
11/02/2014  00:34:00      -53.527       25.174       -9.797       36.189       79.463       21.688     1309.638     6314.294      470.379        0.584        0.405       59.151       14.938        0.064      334.643        4.750      860.242
11/02/2014  00:35:00      -95.124      144.643      -21.998       81.886       86.223       50.095     6705.244     7434.378     2509.506        2.355        0.832      173.119       55.652        0.103      334.730        4.894      860.233
11/02/2014  00:36:00      -58.380      112.185       -9.846       63.672       85.490       40.406     4054.099     7308.538     1632.634        1.454        0.650      126.466       37.737        0.089      334.681        4.813      860.219
11/02/2014  00:37:00      -93.649      115.167      -21.647       78.050       56.640       45.128     6091.843     3208.122     2036.501        1.692        0.567      148.437       38.529        0.067      334.771        4.962      860.220
11/02/2014  00:38:00     -141.269      187.413      -28.051       88.894      101.086       56.775     7902.087    10218.377     3223.427        3.860        1.067      234.692       59.538        0.064      334.821        5.044      860.227
11/02/2014  00:39:00     -149.574      250.826      -36.608       65.200       88.268       57.253     4250.976     7791.167     3277.874        5.097        0.766      292.037       46.338        0.025      334.793        4.995      860.239
11/02/2014  00:40:00     -159.220      285.093      -45.912       99.695      102.842       59.225     9939.078    10576.568     3507.613        6.638        1.201      326.541       49.794        0.023      334.854        5.097      860.258
11/02/2014  00:41:00     -139.722      215.574      -36.277       81.753       82.916       48.495     6683.599     6875.010     2351.756        4.161        0.796      256.894       50.781        0.039      334.900        5.175      860.274
11/02/2014  00:42:00     -158.288      224.829      -29.502       84.683      105.500       55.744     7171.221    11130.248     3107.346        4.894        1.070      274.960       47.974        0.030      334.901        5.177      860.293
11/02/2014  00:43:00     -117.913      239.635      -29.590       59.182       80.963       47.557     3502.534     6555.057     2261.701        4.226        0.616      267.074       39.671        0.022      334.886        5.151      860.326
11/02/2014  00:44:00     -130.965      241.175      -25.060       76.276       95.489       53.597     5818.007     9118.181     2872.644        4.687        0.890      274.440       54.919        0.040      334.935        5.234      860.347
11/02/2014  00:45:00     -162.445      196.076      -29.976       80.886       89.278       53.257     6542.621     7970.483     2836.306        4.154        0.867      254.626       48.041        0.036      334.957        5.270      860.357
11/02/2014  00:46:00      -83.264      134.650      -13.961       76.191       93.611       50.354     5805.120     8763.006     2535.552        2.118        0.855      158.315       53.212        0.113      334.970        5.294      860.367
11/02/2014  00:47:00     -140.485      180.813      -25.309       72.000       82.138       45.740     5183.937     6746.629     2092.150        3.354        0.701      228.975       46.953        0.042      334.980        5.308      860.377
11/02/2014  00:48:00     -156.457      213.748      -36.534       83.715       96.157       54.860     7008.285     9246.221     3009.623        4.538        0.963      264.891       44.038        0.028      334.979        5.305      860.379
11/02/2014  00:49:00     -127.758      134.561      -26.492       73.944       67.101       42.937     5467.771     4502.593     1843.563        2.347        0.591      185.550       42.318        0.052      334.987        5.320      860.389
11/02/2014  00:50:00     -145.636      168.639      -36.568       65.025       96.114       37.017     4228.194     9237.877     1370.265        3.291        0.742      222.821       35.966        0.026      334.968        5.288      860.387
11/02/2014  00:51:00     -138.392      101.762       -1.540       92.438       88.319       54.271     8544.767     7800.266     2945.351        2.440        0.965      171.778       42.937        0.062      334.952        5.264      860.393
11/02/2014  00:52:00     -142.264      101.046      -21.288       78.124       88.274       45.266     6103.282     7792.337     2048.976        2.342        0.797      174.497       53.249        0.093      334.986        5.320      860.397
11/02/2014  00:53:00     -126.572      124.282      -34.948       37.611       42.432       20.720     1414.623     1800.500      429.317        1.817        0.182      177.388       12.252        0.005      334.990        5.327      860.387
11/02/2014  00:54:00     -122.155       88.899      -15.759       53.064       85.842       40.610     2815.768     7368.923     1649.142        1.745        0.592      151.079       30.147        0.040      334.967        5.289      860.384
11/02/2014  00:55:00     -160.945       76.857      -27.122       87.852       71.882       40.613     7717.942     5167.002     1649.442        2.354        0.727      178.355       43.643        0.060      334.998        5.340      860.390
11/02/2014  00:56:00     -164.131       80.895      -29.090       95.496       77.968       46.670     9119.424     6079.021     2178.085        2.585        0.869      182.983       44.298        0.059      334.953        5.263      860.398
11/02/2014  00:57:00     -136.222       69.163      -19.399       89.448       88.584       41.142     8000.953     7847.038     1692.700        2.062        0.877      152.774       46.405        0.092      334.914        5.200      860.401
11/02/2014  00:58:00     -117.681      -30.216       -3.247       79.384       77.570       40.948     6301.762     6017.169     1676.728        1.438        0.700      121.498       31.310        0.066      334.851        5.096      860.392
11/02/2014  00:59:00     -120.571       12.185       -6.251       53.943       64.275       33.505     2909.856     4131.230     1122.576        1.144        0.408      121.186       28.851        0.057      334.803        5.016      860.386
11/02/2014  01:00:00     -136.893        7.106       -9.302       70.433       92.255       39.280     4960.784     8510.921     1542.937        1.694        0.751      137.078       38.958        0.081      334.745        4.918      860.386
11/02/2014  01:01:00     -154.267      -42.804       -4.355       63.357       50.234       33.560     4014.173     2523.409     1126.300        1.666        0.383      160.096       34.019        0.045      334.679        4.809      860.375
11/02/2014  01:02:00     -179.863       -9.344      -16.488       79.838       76.703       38.529     6374.053     5883.299     1484.446        2.322        0.687      180.105       32.926        0.033      334.690        4.825      860.370
11/02/2014  01:03:00     -156.416      -47.602      -18.316       79.189       68.108       30.475     6270.908     4638.657      928.752        1.945        0.592      163.499       17.253        0.011      334.704        4.850      860.380
11/02/2014  01:04:00     -116.443       22.653      -15.234       45.901       39.675       40.189     2106.928     1574.078     1615.183        0.980        0.265      118.626       24.556        0.043      334.650        4.762      860.386
11/02/2014  01:05:00      -74.916       23.471      -11.104       52.493       62.247       21.057     2755.547     3874.695      443.385        0.668        0.354       78.506       10.790        0.019      334.646        4.757      860.396
11/02/2014  01:06:00     -117.342       10.058      -10.011       54.372       70.557       42.836     2956.281     4978.313     1834.953        1.187        0.488      117.772       40.690        0.119      334.641        4.746      860.409
11/02/2014  01:07:00      -97.568       -7.832      -22.492       35.554       57.015       28.193     1264.064     3250.726      794.873        0.770        0.265       97.882       12.128        0.015      334.669        4.794      860.425
11/02/2014  01:08:00      -63.241       -0.681       -5.571       36.009       40.380       22.762     1296.652     1630.526      518.100        0.374        0.172       63.245        7.996        0.016      334.621        4.714      860.446
11/02/2014  01:09:00     -106.328       41.241      -16.914       95.274       53.843       37.264     9077.205     2899.019     1388.585        1.333        0.668      114.046       39.039        0.117      334.741        4.913      860.465
11/02/2014  01:10:00      -92.486       80.896      -12.685       49.378       82.249       37.395     2438.168     6764.851     1398.363        1.293        0.530      122.873       47.325        0.148      334.739        4.909      860.482
11/02/2014  01:11:00      -63.246       65.531       -9.966       55.725       69.474       32.336     3105.241     4826.612     1045.593        0.868        0.449       91.073       34.783        0.146      334.776        4.971      860.497
11/02/2014  01:12:00      -62.048      102.322      -17.142       42.459       41.062       27.108     1802.744     1686.051      734.863        0.942        0.211      119.665       20.007        0.028      334.843        5.082      860.503
11/02/2014  01:13:00       -5.538      150.200      -18.793       31.413       38.185       23.080      986.751     1458.060      532.681        1.296        0.149      150.302       22.360        0.022      334.708        4.859      860.511
11/02/2014  01:14:00      -18.312      188.612      -24.189       40.896       73.664       28.735     1672.490     5426.346      825.707        2.221        0.396      189.498       28.614        0.023      334.570        4.628      860.518
11/02/2014  01:15:00      -66.557      146.186      -14.387       33.048       74.315       31.730     1092.140     5522.675     1006.820        1.681        0.381      160.625       30.030        0.035      334.611        4.694      860.516
11/02/2014  01:16:00      -67.834      142.243      -18.250       53.498       63.221       31.106     2862.034     3996.914      967.583        1.650        0.391      157.590       33.822        0.046      334.495        4.505      860.513
11/02/2014  01:17:00      -85.535      192.944      -26.384       77.651       74.046       36.213     6029.613     5482.839     1311.350        2.903        0.641      211.054       41.763        0.039      334.621        4.709      860.510
11/02/2014  01:18:00      -64.413      120.488      -10.838       39.193       53.917       28.016     1536.082     2907.066      784.913        1.200        0.261      136.625       14.143        0.011      334.559        4.610      860.520
11/02/2014  01:19:00      -53.063      203.113      -24.101       45.109       71.654       35.859     2034.818     5134.260     1285.867        2.655        0.423      209.930       35.026        0.028      334.623        4.714      860.541
11/02/2014  01:20:00      -10.701      208.117      -30.733       41.779       56.648       31.155     1745.464     3208.973      970.648        2.515        0.296      208.392       20.909        0.010      334.515        4.536      860.569
11/02/2014  01:21:00      -72.397      175.106      -23.079       57.367       51.880       32.346     3291.020     2691.558     1046.275        2.173        0.351      189.482       27.127        0.020      334.448        4.424      860.589
11/02/2014  01:22:00      -53.073      189.274      -16.745       50.900       72.502       38.983     2590.764     5256.480     1519.704        2.414        0.468      196.574       40.113        0.042      334.400        4.346      860.601
11/02/2014  01:23:00      -93.129      193.506      -18.931       53.713       76.243       44.134     2885.093     5812.923     1947.828        2.856        0.532      214.750       46.622        0.047      334.397        4.341      860.613
11/02/2014  01:24:00      -82.769      204.787      -21.325       56.206       98.440       42.583     3159.146     9690.352     1813.351        3.195        0.733      220.881       57.315        0.067      334.333        4.233      860.619
11/02/2014  01:25:00      -20.547      129.629       -0.455       37.169      101.805       41.323     1381.515    10364.289     1707.631        1.534        0.673      131.247       38.198        0.085      334.282        4.151      860.617
11/02/2014  01:26:00      -45.689      122.973       -8.780       37.104       57.056       32.241     1376.670     3255.388     1039.504        1.148        0.284      131.187       29.344        0.050      334.357        4.277      860.623
11/02/2014  01:27:00      -39.312      157.446      -19.294       41.638       60.538       28.491     1733.687     3664.865      811.739        1.646        0.311      162.279       23.515        0.021      334.425        4.388      860.631
11/02/2014  01:28:00      -46.684      153.492      -21.728       66.306       72.882       35.880     4396.494     5311.844     1287.408        1.860        0.550      160.434       34.236        0.046      334.318        4.211      860.635
11/02/2014  01:29:00      -53.823      145.761      -15.763       43.103       67.705       28.861     1857.839     4583.979      832.984        1.583        0.364      155.381       32.640        0.044      334.370        4.296      860.632
11/02/2014  01:30:00      -64.920      217.865      -21.672       57.698       89.869       42.243     3329.114     8076.448     1784.489        3.267        0.660      227.332       43.053        0.036      334.250        4.096      860.638
11/02/2014  01:31:00      -98.545      223.385      -23.955       59.470       67.605       39.570     3536.651     4570.413     1565.763        3.493        0.484      244.155       26.284        0.012      334.262        4.115      860.647
11/02/2014  01:32:00      -86.866      249.530      -27.929       84.920      106.785       52.554     7211.453    11403.040     2761.892        4.598        1.069      264.218       59.682        0.051      334.224        4.051      860.653
11/02/2014  01:33:00      -70.171      280.884      -30.431       65.594      125.030       49.303     4302.516    15632.616     2430.766        5.355        1.118      289.517       62.753        0.047      334.198        4.009      860.660
11/02/2014  01:34:00      -81.253      155.036      -18.891       56.143       69.047       38.734     3152.065     4767.519     1500.302        2.021        0.471      175.038       32.058        0.034      334.292        4.166      860.669
11/02/2014  01:35:00      -61.952      223.921      -24.168       64.998       92.614       54.088     4224.717     8577.310     2925.467        3.514        0.786      232.333       47.045        0.041      334.210        4.027      860.666
11/02/2014  01:36:00     -116.954      286.463      -32.950       78.359      102.852       51.660     6140.087    10578.468     2668.782        5.810        0.969      309.417       42.754        0.019      334.198        4.008      860.651
11/02/2014  01:37:00     -114.679      248.778      -32.176       72.750      110.991       43.089     5292.579    12318.960     1856.690        4.777        0.973      273.938       35.781        0.017      334.159        3.943      860.650
11/02/2014  01:38:00     -122.955      220.149      -23.988       78.204      114.183       59.958     6115.896    13037.851     3595.008        4.345        1.137      252.157       55.047        0.048      334.138        3.910      860.649
11/02/2014  01:39:00     -119.767      223.368      -28.023       99.350      105.590       55.758     9870.402    11149.229     3108.996        4.457        1.206      253.451       57.942        0.052      334.113        3.869      860.640
11/02/2014  01:40:00     -134.658      224.985      -26.654       73.239      112.848       53.285     5363.935    12734.716     2839.308        4.520        1.047      262.204       48.159        0.034      334.112        3.865      860.639
11/02/2014  01:41:00     -128.106      219.851      -27.521       73.202       74.300       46.093     5358.507     5520.471     2124.547        3.925        0.650      254.452       42.651        0.028      334.135        3.902      860.634
11/02/2014  01:42:00     -121.691      200.598      -33.405       53.203       60.428       41.314     2830.580     3651.523     1706.836        3.217        0.409      234.623       31.435        0.018      334.148        3.925      860.640
11/02/2014  01:43:00     -126.647      229.278      -27.853       53.248       64.039       41.339     2835.397     4101.020     1708.935        3.901        0.432      261.931       36.037        0.019      334.101        3.848      860.636
11/02/2014  01:44:00     -123.235      208.585      -34.054       68.417       77.395       47.549     4680.945     5989.966     2260.954        3.639        0.647      242.270       35.230        0.021      334.075        3.805      860.647
11/02/2014  01:45:00     -122.924      162.754      -26.363       60.338       75.936       54.364     3640.633     5766.269     2955.430        2.733        0.618      203.959       36.191        0.031      334.102        3.849      860.653
11/02/2014  01:46:00     -178.688      255.640      -49.100       56.158      110.119       47.825     3153.685    12126.248     2287.269        5.863        0.878      311.899       42.998        0.019      334.077        3.808      860.674
11/02/2014  01:47:00     -125.717      195.633      -24.167       66.534       80.795       47.551     4426.713     6527.812     2261.080        3.394        0.661      232.545       46.252        0.040      334.012        3.700      860.683
11/02/2014  01:48:00     -174.551      182.745      -37.657       96.798       94.349       46.083     9369.784     8901.710     2123.670        4.283        1.020      252.713       55.177        0.048      334.034        3.737      860.681
11/02/2014  01:49:00     -137.470      229.349      -30.665       64.049       78.960       54.451     4102.300     6234.718     2964.921        4.287        0.665      267.393       46.660        0.030      334.000        3.681      860.689
11/02/2014  01:50:00     -163.239      215.913      -42.010       83.289       97.367       48.192     6937.009     9480.351     2322.437        4.688        0.937      270.676       39.877        0.022      334.006        3.691      860.693
11/02/2014  01:51:00     -173.045      199.819      -53.695       86.772       61.272       39.299     7529.342     3754.229     1544.439        4.279        0.641      264.334       42.078        0.025      333.976        3.640      860.680
11/02/2014  01:52:00     -141.008      198.392      -38.488       69.278       73.555       43.489     4799.442     5410.273     1891.303        3.641        0.605      243.398       34.258        0.020      333.961        3.616      860.699
11/02/2014  01:53:00     -157.227      253.256      -37.605       81.916       95.262       48.602     6710.215     9074.930     2362.121        5.421        0.907      298.092       54.650        0.034      333.937        3.576      860.696
11/02/2014  01:54:00     -182.714      222.214      -44.268       69.219       62.697       40.887     4791.217     3930.926     1671.786        4.756        0.520      287.686       33.401        0.013      333.933        3.568      860.688
11/02/2014  01:55:00     -169.257      206.349      -41.249       83.788       90.956       52.524     7020.390     8273.045     2758.719        4.549        0.903      266.886       49.312        0.034      333.925        3.557      860.690
11/02/2014  01:56:00     -176.311      218.529      -40.084       75.021       75.723       48.849     5628.219     5734.022     2386.229        4.710        0.687      280.786       47.246        0.028      333.915        3.539      860.691
11/02/2014  01:57:00     -135.894      160.715      -20.806       61.517       87.515       42.719     3784.378     7658.810     1824.945        2.900        0.663      210.467       34.148        0.026      333.945        3.590      860.684
11/02/2014  01:58:00     -150.733      149.789      -21.250       93.643       93.532       58.890     8769.102     8748.209     3468.081        3.329        1.049      212.502       65.034        0.094      333.922        3.554      860.694
11/02/2014  01:59:00     -200.050      230.588      -55.512       67.343       88.604       42.090     4535.121     7850.685     1771.568        5.521        0.708      305.271       39.909        0.017      333.916        3.541      860.696
11/02/2014  01:00:00     -164.284      217.147      -39.734       64.475       81.245       43.607     4157.084     6600.769     1901.573        4.419        0.633      272.291       39.206        0.021      333.883        3.487      860.696
11/02/2014  01:01:00     -203.851      256.352      -53.142       86.702       85.592       46.368     7517.221     7325.909     2150.034        6.354        0.850      327.524       46.561        0.020      333.918        3.543      860.700
11/02/2014  01:02:00     -192.515      244.527      -52.700       64.786       80.583       43.080     4197.245     6493.653     1855.899        5.609        0.627      311.216       38.176        0.015      333.898        3.511      860.702
11/02/2014  01:03:00     -179.763      221.487      -39.033       67.338       71.412       51.677     4534.463     5099.617     2670.519        4.760        0.615      285.257       41.830        0.022      333.907        3.526      860.712
11/02/2014  01:04:00     -150.548      184.079      -28.897       57.819       86.935       47.150     3342.992     7557.710     2223.167        3.525        0.656      237.802       40.990        0.030      333.898        3.512      860.708
11/02/2014  01:05:00     -195.332      267.948      -52.697       75.113       90.892       53.080     5641.971     8261.298     2817.486        6.472        0.836      331.588       50.899        0.024      333.928        3.560      860.710
11/02/2014  01:06:00     -203.063      225.572      -53.850       73.728       95.637       45.175     5435.801     9146.364     2040.806        5.582        0.831      303.509       46.818        0.024      333.960        3.615      860.712
11/02/2014  01:07:00     -145.301      184.017      -37.447       72.023       88.508       37.724     5187.250     7833.602     1423.082        3.541        0.722      234.466       37.508        0.026      333.962        3.620      860.722
11/02/2014  01:08:00     -155.339      169.173      -31.486       70.091       81.727       44.936     4912.767     6679.370     2019.203        3.367        0.681      229.673       35.043        0.023      333.943        3.587      860.728
11/02/2014  01:09:00     -196.406      179.118      -41.148       80.018       80.775       50.032     6402.822     6524.600     2503.201        4.389        0.772      265.817       48.538        0.033      333.939        3.580      860.730
11/02/2014  01:10:00     -172.053      164.269      -22.555       90.233       81.538       47.957     8142.011     6648.471     2299.847        3.709        0.855      237.879       41.310        0.030      333.921        3.549      860.739
11/02/2014  01:11:00     -183.663      191.948      -46.796       59.909       74.763       42.710     3589.057     5589.449     1824.149        4.188        0.550      265.661       36.614        0.019      333.939        3.578      860.738
11/02/2014  01:12:00     -241.642      195.467      -58.563       96.342       71.680       45.104     9281.860     5138.058     2034.389        5.824        0.823      310.803       51.091        0.027      333.978        3.643      860.731
11/02/2014  01:13:00     -172.994      159.939      -24.043       86.606       83.533       62.113     7500.527     6977.782     3857.976        3.721        0.917      235.600       56.556        0.058      333.959        3.614      860.723
11/02/2014  01:14:00     -147.815      181.880      -29.022       59.674       94.751       47.387     3560.972     8977.732     2245.496        3.528        0.739      234.371       44.973        0.037      333.943        3.587      860.708
11/02/2014  01:15:00     -149.328      183.229      -35.870       81.554       85.496       44.105     6650.977     7309.597     1945.240        3.653        0.795      236.371       44.905        0.036      333.963        3.619      860.716
11/02/2014  01:16:00     -142.244      186.469      -35.907       74.791       75.309       44.548     5593.632     5671.459     1984.511        3.477        0.662      234.530       42.136        0.032      334.023        3.719      860.727
11/02/2014  01:17:00     -158.915      134.158      -30.156       71.856       86.055       44.571     5163.336     7405.493     1986.545        2.936        0.728      207.972       38.487        0.034      334.013        3.702      860.728
11/02/2014  01:18:00      -98.312      201.433      -24.028       64.415       81.714       43.390     4149.263     6677.237     1882.649        3.176        0.635      224.144       35.504        0.025      334.012        3.701      860.755
11/02/2014  01:19:00      -93.353      229.838      -27.717       48.994       57.877       42.407     2400.371     3349.758     1798.330        3.493        0.377      248.073       22.150        0.008      334.051        3.764      860.773
11/02/2014  01:20:00      -54.952      146.140      -10.789       49.527       85.996       40.835     2452.954     7395.390     1667.472        1.800        0.576      156.130       44.669        0.082      334.019        3.716      860.775
11/02/2014  01:21:00      -94.325      219.327      -29.597       47.126       72.518       39.353     2220.825     5258.805     1548.659        3.345        0.451      238.750       25.539        0.011      334.031        3.733      860.797
11/02/2014  01:22:00      -98.112      223.792      -27.818       63.627       68.637       43.535     4048.399     4711.093     1895.329        3.557        0.533      244.354       39.152        0.026      334.044        3.753      860.800
11/02/2014  01:23:00     -111.734      244.148      -32.537       73.067       82.284       41.375     5338.846     6770.671     1711.867        4.348        0.691      268.501       38.905        0.021      334.080        3.812      860.789
11/02/2014  01:24:00     -108.278      133.433      -25.840       59.025       60.023       40.210     3483.983     3602.804     1616.880        1.945        0.435      171.839       32.982        0.037      334.076        3.808      860.776
11/02/2014  01:25:00      -66.624      190.383      -23.140       51.543       45.641       25.692     2656.701     2083.101      660.066        2.331        0.270      201.704       13.766        0.005      334.063        3.786      860.764
11/02/2014  01:26:00      -80.966       76.289      -13.644       39.955       44.362       36.880     1596.424     1968.011     1360.155        0.874        0.246      111.245       30.574        0.076      334.084        3.823      860.748
11/02/2014  01:27:00      -50.847       97.219       -5.418       53.062       75.087       35.981     2815.602     5638.085     1294.630        1.091        0.487      109.713       27.776        0.064      334.068        3.798      860.734
11/02/2014  01:28:00      -95.488       85.835      -14.882       55.724       46.660       28.836     3105.181     2177.129      831.526        1.141        0.306      128.396       21.893        0.029      334.039        3.749      860.747
11/02/2014  01:29:00      -32.864      102.795      -12.377       39.016       40.658       31.461     1522.237     1653.106      989.794        0.798        0.208      107.920       29.611        0.075      333.998        3.681      860.757
11/02/2014  01:30:00     -107.092       87.907      -14.513       48.324       54.091       28.707     2335.256     2925.783      824.106        1.274        0.304      138.551       24.617        0.032      333.975        3.642      860.762
11/02/2014  01:31:00     -123.166      126.409      -28.375       57.038       58.830       32.978     3253.283     3460.937     1087.570        1.988        0.390      176.491       34.278        0.038      333.969        3.632      860.768
11/02/2014  01:32:00     -117.361      173.423      -28.607       62.598       51.727       35.318     3918.460     2675.634     1247.359        2.625        0.392      209.402       34.782        0.028      333.952        3.602      860.772
11/02/2014  01:33:00     -131.683      196.366      -51.783       66.511       74.365       41.144     4423.755     5530.220     1692.832        3.511        0.582      236.431       43.709        0.034      333.968        3.628      860.777
11/02/2014  01:34:00     -113.374      121.786      -40.498       49.636       51.966       24.218     2463.730     2700.452      586.531        1.754        0.288      166.390       30.316        0.033      333.987        3.660      860.793
11/02/2014  01:35:00      -80.931      100.542      -19.680       38.662       42.236       27.270     1494.777     1783.869      743.676        1.053        0.201      129.068       21.002        0.026      333.969        3.633      860.809
11/02/2014  01:36:00      -78.865       76.163      -22.819       33.410       38.734       18.765     1116.232     1500.313      352.138        0.775        0.148      109.639       18.726        0.029      333.968        3.630      860.828
11/02/2014  01:37:00      -83.450       92.162      -23.713       36.296       46.388       24.209     1317.384     2151.813      586.077        1.004        0.203      124.330       25.079        0.041      333.922        3.553      860.842
11/02/2014  01:38:00      -60.474       88.862      -10.149       60.573       39.026       25.461     3669.081     1523.060      648.282        0.875        0.292      107.487       16.370        0.023      333.961        3.619      860.860
11/02/2014  01:39:00      -49.500      110.417        1.003       58.135       59.522       35.451     3379.682     3542.849     1256.780        1.141        0.409      121.005       35.495        0.086      333.877        3.478      860.871
11/02/2014  01:40:00      -41.554       41.654        9.692       51.694       34.188       27.793     2672.219     1168.832      772.440        0.408        0.231       58.837       23.485        0.159      333.882        3.489      860.880
11/02/2014  01:41:00      -16.116       92.775       -2.529       43.854       53.722       24.539     1923.194     2886.033      602.171        0.714        0.271       94.165       24.667        0.069      333.792        3.339      860.893
11/02/2014  01:42:00      -19.944      123.657      -11.067       27.794       44.287       18.996      772.513     1961.306      360.859        0.945        0.155      125.255       17.728        0.020      333.849        3.434      860.904
11/02/2014  01:43:00      -23.834      104.340      -19.284       32.452       60.576       23.352     1053.154     3669.463      545.299        0.855        0.263      107.028       24.896        0.054      333.879        3.483      860.917
11/02/2014  01:44:00      -36.804      154.874      -12.447       39.003       48.382       29.942     1521.231     2340.800      896.506        1.513        0.238      159.187       17.012        0.011      333.896        3.512      860.938
11/02/2014  01:45:00      -41.824      199.525      -25.363       30.201       50.733       24.519      912.121     2573.848      601.199        2.314        0.204      203.861       15.211        0.006      333.842        3.420      860.949
11/02/2014  01:46:00      -54.701       61.080       -7.093       45.014       47.923       17.362     2026.283     2296.597      301.426        0.570        0.231       81.994       13.332        0.026      333.866        3.462      860.967
11/02/2014  01:47:00      -47.888      109.582       -9.245       43.773       64.473       27.710     1916.074     4156.813      767.830        1.061        0.342      119.589       29.404        0.060      333.858        3.448      860.976
11/02/2014  01:48:00      -65.141       67.853       -6.831       35.505       35.799       22.019     1260.609     1281.588      484.838        0.596        0.151       94.060       16.375        0.030      333.814        3.375      860.979
11/02/2014  01:49:00      -66.259      162.093      -26.622       40.579       90.424       28.610     1646.625     8176.477      818.550        2.101        0.532      175.113       23.609        0.018      333.908        3.529      860.983
11/02/2014  01:50:00      -77.085      125.889      -16.705       47.746       49.658       38.139     2279.713     2465.872     1454.596        1.413        0.310      147.615       32.198        0.048      333.902        3.522      860.992
11/02/2014  01:51:00      -41.277       56.518        1.863       42.265       56.841       29.627     1786.369     3230.860      877.764        0.540        0.295       69.986       25.228        0.130      333.818        3.382      860.991
11/02/2014  01:52:00      -31.225       64.621      -10.202       24.402       30.221       16.804      595.437      913.301      282.360        0.352        0.090       71.769       15.210        0.045      333.899        3.517      860.996
11/02/2014  01:53:00      -48.075       19.246       -3.821       34.867       33.924       16.101     1215.703     1150.806      259.229        0.266        0.131       51.785       17.855        0.119      333.821        3.389      861.005
11/02/2014  01:54:00      -43.801       58.440       -4.273       49.086       50.850       25.407     2409.413     2585.757      645.529        0.550        0.282       73.033       25.521        0.122      333.876        3.477      861.013
11/02/2014  01:55:00      -59.998       73.678       -9.092       40.420       59.090       25.546     1633.810     3491.573      652.606        0.744        0.289       95.017       28.580        0.090      333.842        3.422      861.019
11/02/2014  01:56:00      -36.309      155.874      -17.817       29.880       37.092       24.883      892.794     1375.816      619.165        1.441        0.144      160.047       20.311        0.016      333.807        3.363      861.035
11/02/2014  01:57:00      -42.441      175.564      -19.008       30.443       54.102       27.474      926.768     2927.037      754.799        1.880        0.230      180.621       28.463        0.025      333.791        3.336      861.043
11/02/2014  01:58:00      -37.913      227.352      -32.544       36.668       36.216       22.475     1344.548     1311.602      505.124        2.867        0.158      230.492       15.888        0.005      333.756        3.275      861.052
11/02/2014  01:59:00      -16.441      193.752      -26.665       39.608       50.384       25.178     1568.784     2538.497      633.934        2.163        0.237      194.449       18.968        0.010      333.663        3.123      861.062
11/02/2014  02:00:00      -35.811      181.842      -19.512       35.345       48.633       23.317     1249.242     2365.165      543.687        1.944        0.208      185.334       22.967        0.015      333.680        3.153      861.079
11/02/2014  02:01:00      -44.816      163.847      -19.812       38.436       42.086       22.075     1477.301     1771.226      487.327        1.649        0.187      169.865       20.283        0.014      333.644        3.094      861.084
11/02/2014  02:02:00      -65.003      157.669      -23.916       43.684       57.506       27.320     1908.249     3306.996      746.361        1.781        0.298      170.543       26.808        0.025      333.733        3.240      861.089
11/02/2014  02:03:00      -67.138      164.138      -15.765       42.894       49.754       28.490     1839.888     2475.499      811.668        1.841        0.256      177.338       21.458        0.015      333.823        3.391      861.102
11/02/2014  02:04:00      -93.803      101.722      -12.941       45.674       49.661       31.277     2086.075     2466.241      978.265        1.242        0.277      138.370       27.050        0.038      333.718        3.216      861.104
11/02/2014  02:05:00     -117.260       63.475      -20.816       41.973       42.955       26.671     1761.768     1845.152      711.335        1.126        0.216      133.338       21.055        0.025      333.676        3.146      861.121
11/02/2014  02:06:00      -98.674       69.288      -16.467       35.656       34.380       25.681     1271.333     1182.016      659.532        0.896        0.156      120.571       18.099        0.023      333.752        3.271      861.148
11/02/2014  02:07:00     -120.222       78.114      -19.556       69.573       45.262       33.981     4840.422     2048.693     1154.733        1.449        0.402      143.371       36.357        0.064      333.757        3.281      861.169
11/02/2014  02:08:00      -91.551       50.975       -7.787       46.529       47.625       30.628     2164.942     2268.099      938.105        0.820        0.269      104.786       33.186        0.100      333.739        3.251      861.187
11/02/2014  02:09:00      -92.980       50.845      -15.133       38.578       41.008       22.189     1488.276     1681.639      492.358        0.756        0.183      105.974       16.046        0.023      333.722        3.223      861.205
11/02/2014  02:10:00      -89.896       63.739      -16.100       49.519       37.405       28.144     2452.177     1399.104      792.068        0.852        0.232      110.199       23.718        0.046      333.798        3.348      861.218
11/02/2014  02:11:00      -80.979       35.162      -17.012       25.875       45.647       21.671      669.520     2083.666      469.621        0.565        0.161       88.283        9.980        0.013      333.751        3.271      861.237
11/02/2014  02:12:00      -50.102       30.910       -9.052       31.742       35.068       29.238     1007.544     1229.780      854.853        0.332        0.155       58.870       14.388        0.060      333.768        3.298      861.257
11/02/2014  02:13:00      -44.825       21.376       -0.941       26.495       30.817       13.739      701.961      949.697      188.749        0.215        0.092       49.661        9.519        0.037      333.728        3.233      861.286
11/02/2014  02:14:00      -75.098       89.521      -20.670       20.979       28.516       18.152      440.108      813.143      329.494        0.783        0.079      116.849       10.385        0.008      333.844        3.426      861.306
11/02/2014  02:15:00      -15.555       50.291       -8.369       22.975       32.300        9.120      527.843     1043.281       83.173        0.225        0.083       52.641       12.925        0.060      333.740        3.254      861.317
11/02/2014  02:16:00       10.992        2.872       -4.327       11.685       10.756        8.619      136.528      115.700       74.286        0.024        0.016       11.361        5.264        0.215      333.699        3.185      861.326
11/02/2014  02:17:00        6.500        4.790       -3.825       10.179       17.285        7.775      103.603      298.778       60.447        0.027        0.023        8.074        5.549        0.472      333.691        3.174      861.323
11/02/2014  02:18:00      -11.281      -14.041       -9.023       19.580       19.058       10.952      383.395      363.226      119.946        0.064        0.043       18.011        7.863        0.191      333.661        3.124      861.324
11/02/2014  02:19:00       11.162      -30.313       14.770       19.545       23.030       18.055      382.000      530.369      325.992        0.125        0.062       32.303       10.049        0.097      333.717        3.216      861.314
11/02/2014  02:20:00       -7.348      -23.924       11.731       23.666       14.877       18.689      560.059      221.317      349.285        0.095        0.057       25.027       16.843        0.453      333.687        3.165      861.313
11/02/2014  02:21:00      -45.300       -7.385       -6.359       18.800       19.560       11.837      353.438      382.607      140.107        0.151        0.044       45.898       11.541        0.063      333.681        3.156      861.314
11/02/2014  02:22:00      -15.363       -3.962        7.552       15.514       34.415       13.273      240.680     1184.418      176.185        0.095        0.080       15.866        9.384        0.350      333.566        2.964      861.312
11/02/2014  02:23:00       -8.589      -30.777       -2.335       24.108       18.659       11.717      581.177      348.154      137.300        0.105        0.053       31.953       10.317        0.104      333.623        3.060      861.311
11/02/2014  02:24:00      -10.519      -15.212       -3.583       10.898       14.670        7.677      118.769      215.203       58.939        0.037        0.020       18.495        6.442        0.121      333.667        3.132      861.309
11/02/2014  02:25:00      -44.079      -10.267       -3.371       13.137        8.824        5.607      172.592       77.863       31.434        0.117        0.014       45.259        1.200        0.001      333.615        3.047      861.307
11/02/2014  02:26:00      -27.239      -10.543       -7.277       13.244       12.070        8.624      175.409      145.678       74.367        0.065        0.020       29.208        6.779        0.054      333.588        3.001      861.308
11/02/2014  02:27:00      -73.422      -24.794       -6.306       23.407       19.263        9.266      547.868      371.046       85.867        0.352        0.050       77.495        8.021        0.011      333.614        3.044      861.309
11/02/2014  02:28:00      -51.985      -35.728       -6.376       16.671       23.352       13.269      277.925      545.325      176.063        0.251        0.050       63.078        9.917        0.025      333.598        3.016      861.316
11/02/2014  02:29:00      -49.641      -10.272       -4.709       18.322        9.554       10.800      335.713       91.277      116.633        0.157        0.027       50.692        8.622        0.029      333.566        2.967      861.331
11/02/2014  02:30:00      -47.461      -14.293        3.743       23.190       15.368        9.200      537.781      236.167       84.635        0.166        0.043       49.567       10.759        0.047      333.455        2.779      861.337
11/02/2014  02:31:00      -28.621      -14.478       -5.850       28.630       16.845        9.056      819.677      283.767       82.014        0.112        0.059       32.075       12.383        0.149      333.456        2.782      861.355
11/02/2014  02:32:00      -97.360      -29.245       -7.030       16.489       11.797        9.370      271.898      139.164       87.791        0.544        0.025      101.657        7.532        0.005      333.436        2.749      861.359
11/02/2014  02:33:00      -87.795      -25.834       -9.887       22.079       17.258       12.492      487.477      297.844      156.047        0.471        0.047       91.517       13.712        0.022      333.422        2.725      861.370
11/02/2014  02:34:00      -72.741       -9.228      -11.981       20.033       13.735       11.195      401.319      188.647      125.323        0.312        0.036       73.324       10.722        0.021      333.353        2.613      861.372
11/02/2014  02:35:00      -78.110      -24.914      -13.506       21.319       16.145       14.260      454.492      260.663      203.337        0.391        0.046       81.987       14.623        0.032      333.343        2.597      861.365
11/02/2014  02:36:00      -91.360      -31.577       -9.394       31.079       16.489       15.916      965.902      271.898      253.334        0.546        0.075       96.664       18.064        0.035      333.317        2.553      861.375
11/02/2014  02:37:00     -100.355      -48.909      -10.423       20.150       16.958       14.200      406.009      287.590      201.645        0.673        0.045      111.639       13.611        0.015      333.295        2.517      861.378
11/02/2014  02:38:00      -82.651      -61.568        8.239       39.511       31.333       23.235     1561.121      981.777      539.875        0.689        0.154      103.062       21.099        0.042      333.329        2.571      861.391
11/02/2014  02:39:00      -81.671      -56.081       -2.280       57.911       24.418       24.271     3353.647      596.259      589.082        0.718        0.227       99.072       31.762        0.103      333.435        2.748      861.408
11/02/2014  02:40:00      -38.891      -36.919        5.875       41.171       25.801       18.775     1695.083      665.676      352.499        0.281        0.136       53.624       22.656        0.179      333.413        2.711      861.419
11/02/2014  02:41:00      -87.154      -22.426       -7.271       32.428       21.505       13.658     1051.544      462.475      186.533        0.493        0.085       89.993       17.119        0.036      333.370        2.640      861.434
11/02/2014  02:42:00      -61.416      -24.668       -4.621       34.850       24.756       15.994     1214.522      612.851      255.804        0.324        0.104       66.185       18.582        0.079      333.319        2.556      861.444
11/02/2014  02:43:00      -90.111      -53.867      -11.139       12.307        9.048        9.852      151.464       81.875       97.061        0.574        0.017      104.984        6.002        0.003      333.360        2.627      861.453
11/02/2014  02:44:00     -102.542      -66.797       -8.246       18.797       18.457       12.274      353.331      340.646      150.647        0.794        0.042      122.379        8.298        0.005      333.369        2.639      861.454
11/02/2014  02:45:00      -63.939      -43.154        5.220       37.533       22.226       19.741     1408.742      494.008      389.714        0.413        0.115       77.140       19.002        0.061      333.308        2.539      861.455
11/02/2014  02:46:00      -36.858      -37.572       11.516       35.813       27.107       20.629     1282.565      734.778      425.555        0.267        0.122       52.632       20.845        0.157      333.328        2.570      861.455
11/02/2014  02:47:00     -101.558      -40.724       -5.388       25.354       17.801       15.024      642.837      316.880      225.719        0.659        0.059      109.419       15.128        0.019      333.265        2.466      861.451
11/02/2014  02:48:00      -88.906      -52.025       -4.569       16.870       19.572       16.102      284.596      383.050      259.285        0.578        0.046      103.009        9.521        0.009      333.274        2.481      861.450
11/02/2014  02:49:00      -46.928      -39.257        9.543       35.893       21.620       17.243     1288.341      467.416      297.313        0.294        0.103       61.183       20.448        0.112      333.328        2.570      861.449
11/02/2014  02:50:00      -96.726      -46.626       -4.906       23.967       25.845       13.398      574.437      667.961      179.494        0.649        0.071      107.377       13.237        0.015      333.303        2.528      861.458
11/02/2014  02:51:00      -81.105      -15.477       -7.454       16.706       10.950        7.759      279.087      119.912       60.200        0.367        0.023       82.569        6.342        0.006      333.278        2.488      861.467
11/02/2014  02:52:00      -42.048      -33.103        4.280       25.390       25.096       18.482      644.640      629.798      341.595        0.225        0.081       53.515       14.609        0.075      333.299        2.522      861.474
11/02/2014  02:53:00      -47.667      -32.593       -4.253       33.018       21.101       11.194     1090.204      445.246      125.309        0.251        0.083       57.745        9.508        0.027      333.241        2.427      861.492
11/02/2014  02:54:00      -61.810      -45.099       -7.168       30.571       16.495       13.983      934.559      272.095      195.521        0.365        0.070       76.514       16.140        0.044      333.200        2.359      861.512
11/02/2014  02:55:00      -36.298      -61.841        8.274       30.132       36.726       17.392      907.948     1348.795      302.495        0.388        0.128       71.707       18.760        0.068      333.226        2.402      861.526
11/02/2014  02:56:00       -9.028      -43.085        7.444       42.591       37.704       18.430     1813.960     1421.567      339.670        0.278        0.179       44.021       24.246        0.303      333.459        2.786      861.529
11/02/2014  02:57:00      -48.006      -41.770        5.989       39.784       17.028       17.052     1582.776      289.952      290.761        0.312        0.108       63.635       17.146        0.073      333.278        2.488      861.520
11/02/2014  02:58:00      -40.336      -38.956        0.505       35.348       23.889       14.891     1249.476      570.687      221.742        0.259        0.102       56.077       15.181        0.073      333.200        2.360      861.513
11/02/2014  02:59:00      -61.047      -44.341       -1.860       25.281       25.056       20.188      639.117      627.821      407.555        0.369        0.084       75.451       17.425        0.053      333.241        2.426      861.507
11/02/2014  03:00:00       -9.102      -41.830        3.251       25.808       22.676       18.069      666.059      514.205      326.477        0.167        0.075       42.809       14.532        0.115      333.290        2.507      861.506
11/02/2014  03:01:00      -42.763      -55.580       -4.363       25.792       19.894       15.616      665.222      395.783      243.848        0.312        0.065       70.127       15.478        0.049      333.367        2.637      861.509
11/02/2014  03:02:00      -52.940      -63.042       -0.204       24.342       29.318       17.137      592.517      859.543      293.677        0.426        0.087       82.322       12.236        0.022      333.345        2.599      861.509
11/02/2014  03:03:00      -59.262      -16.067       10.522       24.156       26.835       18.437      583.489      720.100      339.935        0.276        0.082       61.402       12.551        0.042      333.200        2.357      861.520
11/02/2014  03:04:00      -38.280      -66.433       -1.838       29.809       33.157       19.241      888.585     1099.418      370.219        0.412        0.118       76.673       21.856        0.081      333.201        2.360      861.525
11/02/2014  03:05:00      -71.183     -111.358      -10.325       42.948       48.431       24.902     1844.529     2345.594      620.116        1.119        0.241      132.165       18.329        0.019      333.158        2.291      861.519
11/02/2014  03:06:00     -118.251      -23.576      -18.452       31.058       28.043       17.615      964.597      786.406      310.276        0.847        0.103      120.579        7.349        0.004      333.133        2.248      861.546
11/02/2014  03:07:00      -84.408      -45.594       -5.096       62.376       35.927       23.590     3890.796     1290.781      556.479        0.748        0.287       95.935       23.085        0.058      333.020        2.061      861.565
11/02/2014  03:08:00      -30.825      -56.498       -2.572       39.218       43.899       20.311     1538.029     1927.144      412.533        0.401        0.194       64.360       21.604        0.113      333.039        2.093      861.565
11/02/2014  03:09:00      -23.148     -168.245       -4.788       25.051       24.497       19.372      627.578      600.110      375.284        1.523        0.080      169.830       13.964        0.007      333.359        2.623      861.551
11/02/2014  03:10:00      -44.163      -59.207        9.120       49.768       43.839       25.790     2476.834     1921.854      665.126        0.530        0.253       73.863       26.191        0.126      333.297        2.520      861.551
11/02/2014  03:11:00      -64.385      -20.321       -3.349       19.196       27.106       14.261      368.471      734.753      203.386        0.294        0.065       67.515        8.267        0.015      333.193        2.348      861.560
11/02/2014  03:12:00      -63.567        0.514       -4.844       30.547       23.298       11.238      933.150      542.814      126.303        0.283        0.080       63.569        8.869        0.019      333.106        2.203      861.576
11/02/2014  03:13:00      -79.491      -11.984      -12.124       16.075       17.198       12.137      258.420      295.784      147.306        0.366        0.035       80.390        8.602        0.011      333.041        2.096      861.587
11/02/2014  03:14:00     -127.021       -6.737      -20.182       38.426       18.918       13.412     1476.534      357.893      179.869        0.930        0.101      127.199       14.684        0.013      332.954        1.953      861.589
11/02/2014  03:15:00      -72.674      -71.091       -7.142       39.468       35.412       22.039     1557.706     1253.997      485.734        0.684        0.165      101.664       21.195        0.043      333.020        2.063      861.577
11/02/2014  03:16:00      -31.942      -53.738       -7.783       49.496       32.021       27.938     2449.841     1025.321      780.510        0.411        0.213       62.515       26.492        0.180      333.247        2.435      861.579
11/02/2014  03:17:00      -77.383       28.399      -15.175       23.605       56.466       17.048      557.175     3188.460      290.635        0.553        0.202       82.430       10.029        0.015      333.313        2.545      861.574
11/02/2014  03:18:00     -156.278      -46.295      -21.876       39.229       51.088       18.997     1538.944     2609.985      360.868        1.578        0.225      162.991       15.561        0.009      333.230        2.410      861.566
11/02/2014  03:19:00       -3.908      -25.637       16.232       40.668       24.156       26.390     1653.898      583.503      696.424        0.193        0.147       25.933       24.194        0.870      332.967        1.973      861.549
11/02/2014  03:20:00      -89.564      -24.588       -4.653       51.836       43.278       24.855     2686.929     1872.951      617.782        0.691        0.259       92.877       33.722        0.132      332.942        1.934      861.550
11/02/2014  03:21:00     -106.311      -37.252        4.776       48.757       48.988       24.505     2377.244     2399.841      600.507        0.904        0.269      112.648       24.513        0.047      332.936        1.924      861.564
11/02/2014  03:22:00      -61.007      -82.159       10.094       56.118       50.178       29.270     3149.206     2517.803      856.733        0.855        0.326      102.333       33.233        0.105      333.144        2.267      861.554
11/02/2014  03:23:00     -140.435      -88.497       -8.449       65.220       29.890       27.907     4253.642      893.435      778.775        1.677        0.296      165.993       32.960        0.039      333.214        2.381      861.553
11/02/2014  03:24:00     -127.860      -91.485        5.380       44.041       34.556       22.454     1939.643     1194.149      504.200        1.419        0.182      157.218       19.671        0.016      333.315        2.550      861.557
11/02/2014  03:25:00      -98.887      -61.376       -0.646       53.061       45.941       24.097     2815.509     2110.588      580.658        0.953        0.275      116.386       24.244        0.043      333.342        2.594      861.541
11/02/2014  03:26:00     -153.362      -57.294       -1.660       64.604       46.187       27.091     4173.697     2133.238      733.942        1.692        0.352      163.715       26.326        0.026      333.125        2.234      861.544
11/02/2014  03:27:00     -202.497      -64.785       -3.287       72.266       53.830       28.680     5222.305     2897.618      822.534        2.708        0.447      212.608       31.721        0.022      333.097        2.187      861.555
11/02/2014  03:28:00     -160.542     -103.094        8.399       52.235       43.918       35.956     2728.539     1928.760     1292.836        2.121        0.298      190.794       30.264        0.025      332.987        2.008      861.553
11/02/2014  03:29:00     -163.591      -66.430       -0.188       67.703       38.306       28.820     4583.699     1467.331      830.619        1.903        0.344      176.564       32.608        0.034      333.077        2.154      861.552
11/02/2014  03:30:00     -107.551      -83.211        4.093       62.964       48.751       31.125     3964.419     2376.664      968.751        1.291        0.365      135.983       33.928        0.062      333.124        2.234      861.551
11/02/2014  03:31:00     -131.324      -69.670       -1.071       61.641       44.779       29.609     3799.579     2005.172      876.714        1.439        0.334      148.660       25.564        0.030      333.186        2.335      861.552
11/02/2014  03:32:00     -108.687      -69.652       10.347       45.566       43.493       30.560     2076.288     1891.630      933.886        1.084        0.245      129.090       26.382        0.042      333.192        2.346      861.557
11/02/2014  03:33:00     -136.037      -57.990       -3.607       61.094       36.679       28.053     3732.500     1345.343      786.968        1.387        0.293      147.881       25.751        0.030      333.257        2.452      861.569
11/02/2014  03:34:00     -119.052      -82.621        1.908       63.275       52.395       35.573     4003.756     2745.248     1265.465        1.451        0.401      144.913       32.060        0.049      333.305        2.532      861.575
11/02/2014  03:35:00     -122.459      -61.529       10.495       63.985       61.374       33.237     4094.031     3766.758     1104.675        1.393        0.448      137.048       32.964        0.058      333.346        2.600      861.591
11/02/2014  03:36:00     -130.061      -78.197        2.745       70.178       49.274       35.913     4924.912     2427.907     1289.763        1.584        0.432      151.758       39.462        0.068      333.358        2.619      861.611
11/02/2014  03:37:00     -185.022      -59.494      -10.278       50.571       32.974       30.544     2557.426     1087.254      932.938        2.123        0.229      194.352       24.108        0.015      333.320        2.555      861.629
11/02/2014  03:38:00     -120.356      -14.799       -5.270       45.963       28.172       18.341     2112.592      793.639      336.404        0.899        0.162      121.263       23.123        0.036      333.297        2.518      861.644
11/02/2014  03:39:00     -117.146      -52.904       -6.084       75.030       34.223       26.114     5629.488     1171.180      681.944        1.202        0.374      128.537       31.241        0.059      333.377        2.651      861.650
11/02/2014  03:40:00     -117.755      -56.035       -3.693       57.354       34.393       26.318     3289.433     1182.906      692.632        1.109        0.258      130.408       29.668        0.052      333.330        2.573      861.670
11/02/2014  03:41:00      -95.586      -60.806       -1.165       40.398       30.156       20.017     1631.985      909.361      400.691        0.789        0.147      113.287       18.248        0.026      333.408        2.702      861.675
11/02/2014  03:42:00      -99.174      -63.859       -7.653       45.262       59.811       31.367     2048.617     3577.379      983.883        1.029        0.330      117.955       25.261        0.046      333.390        2.672      861.675
11/02/2014  03:43:00      -68.984      -10.529        4.140       49.766       34.156       27.386     2476.686     1166.659      750.015        0.464        0.220       69.783       30.229        0.188      333.343        2.595      861.679
11/02/2014  03:44:00     -120.096       18.828      -11.930       36.968       40.650       17.196     1366.618     1652.428      295.696        0.912        0.166      121.563       13.257        0.012      333.408        2.703      861.688
11/02/2014  03:45:00     -102.202        6.526      -14.303       22.475       22.926       17.194      505.119      525.622      295.650        0.601        0.066      102.410       11.445        0.012      333.384        2.664      861.677
11/02/2014  03:46:00     -142.840       71.935      -32.914       59.348       44.096       28.035     3522.130     1944.486      785.969        1.646        0.313      159.931       28.300        0.031      333.685        3.160      861.667
11/02/2014  03:47:00     -105.465       14.899       -8.456       31.286       41.330       23.019      978.822     1708.192      529.874        0.732        0.161      106.512       19.884        0.035      333.688        3.167      861.669
11/02/2014  03:48:00     -106.864      -12.281      -15.074       18.109       26.630       16.464      327.938      709.158      271.049        0.655        0.065      107.567       10.147        0.009      333.502        2.858      861.692
11/02/2014  03:49:00      -68.138      -76.459        6.834       51.071       40.475       28.414     2608.260     1638.187      807.354        0.779        0.253      102.415       21.155        0.043      333.471        2.807      861.685
11/02/2014  03:50:00     -119.515      -83.822       -5.026       39.632       35.286       18.337     1570.715     1245.067      336.233        1.224        0.158      145.979       16.553        0.013      333.464        2.794      861.697
11/02/2014  03:51:00      -79.754      -61.461        4.025       52.095       33.609       30.595     2713.872     1129.586      936.084        0.747        0.239      100.688       32.947        0.107      333.421        2.725      861.709
11/02/2014  03:52:00      -66.720      -65.509        6.187       46.830       44.367       33.201     2193.042     1968.417     1102.313        0.702        0.263       93.504       32.616        0.122      333.433        2.744      861.727
11/02/2014  03:53:00     -106.552      -53.805        0.410       46.088       38.746       24.775     2124.092     1501.243      613.811        0.924        0.212      119.366       23.448        0.039      333.564        2.961      861.761
11/02/2014  03:54:00     -142.441      -66.183       -3.939       71.750       33.343       24.100     5148.117     1111.760      580.832        1.576        0.342      157.065       22.544        0.021      333.581        2.988      861.769
11/02/2014  03:55:00      -70.821      -22.148        0.904       31.834       32.716       23.543     1013.403     1070.308      554.257        0.407        0.132       74.204       20.578        0.077      333.629        3.068      861.771
11/02/2014  03:56:00       10.602       -9.394       14.579       30.306       22.533       28.061      918.453      507.732      787.420        0.131        0.111       14.165       11.441        0.652      333.542        2.925      861.776
11/02/2014  03:57:00      -85.558        2.004       -2.528       46.491       31.796       13.584     2161.436     1010.986      184.518        0.534        0.168       85.582       17.096        0.040      333.597        3.015      861.777
11/02/2014  03:58:00     -190.826      -18.882      -18.743       49.088       47.331       26.323     2409.672     2240.261      692.912        2.123        0.267      191.758       24.208        0.016      333.535        2.911      861.770
11/02/2014  03:59:00     -126.397      -69.620        0.242       61.228       50.287       31.210     3748.919     2528.790      974.078        1.404        0.363      144.302       24.612        0.029      333.560        2.954      861.774
11/02/2014  04:00:00     -113.302      -13.655        1.569       63.072       36.150       28.663     3978.069     1306.826      821.580        0.957        0.305      114.122       30.582        0.072      333.487        2.834      861.787
11/02/2014  04:01:00     -111.951      -91.818       -8.498       36.182       38.189       19.992     1309.153     1458.426      399.682        1.210        0.158      144.788       15.412        0.011      333.556        2.948      861.787
11/02/2014  04:02:00      -78.802      -68.802       -4.730       49.242       36.214       24.085     2424.759     1311.427      580.095        0.764        0.216      104.611       29.009        0.077      333.650        3.103      861.779
11/02/2014  04:03:00     -148.197      -61.242       -4.798       30.332       31.482       19.656      920.029      991.138      386.374        1.402        0.115      160.353       16.176        0.010      333.633        3.074      861.801
11/02/2014  04:04:00     -119.035      -66.700      -13.376       72.106       44.501       29.778     5199.214     1980.360      886.700        1.343        0.403      136.448       20.561        0.023      333.634        3.075      861.834
11/02/2014  04:05:00      -97.072      -29.392        0.928       30.352       44.726       25.948      921.226     2000.430      673.276        0.694        0.180      101.424       19.043        0.035      333.623        3.058      861.856
11/02/2014  04:06:00      -68.905      -26.987        0.982       39.458       31.455       21.390     1556.929      989.437      457.531        0.424        0.150       74.001       22.402        0.092      333.523        2.892      861.840
11/02/2014  04:07:00     -115.270      -86.023       -6.727       43.659       46.851       29.347     1906.082     2194.985      861.273        1.285        0.248      143.830       19.878        0.019      333.640        3.087      861.822
11/02/2014  04:08:00     -176.412      -58.781      -19.808       48.623       52.443       28.509     2364.168     2750.252      812.752        2.045        0.296      185.947       22.699        0.015      333.478        2.816      861.846
11/02/2014  04:09:00     -189.203      -35.915      -20.049       45.581       39.272       29.093     2077.592     1542.302      846.397        2.098        0.223      192.581       28.874        0.022      333.509        2.867      861.876
11/02/2014  04:10:00     -193.761       -8.944      -13.231       66.656       38.050       25.896     4442.977     1447.807      670.616        2.218        0.328      193.967       29.529        0.023      333.491        2.839      861.893
11/02/2014  04:11:00     -112.719      -23.911       -6.531       36.905       47.726       25.074     1361.958     2277.732      628.683        0.879        0.213      115.227       20.761        0.032      333.532        2.907      861.890
11/02/2014  04:12:00     -113.064      -61.480       -1.083       61.678       39.000       29.688     3804.190     1520.995      881.363        1.138        0.310      128.698       27.002        0.044      333.630        3.069      861.892
11/02/2014  04:13:00     -175.510      -53.407      -10.830       65.431       40.488       33.104     4281.272     1639.271     1095.862        2.039        0.351      183.456       37.394        0.042      333.628        3.066      861.903
11/02/2014  04:14:00      -87.544      -22.941       -0.933       90.407       48.183       31.510     8173.343     2321.589      992.873        0.984        0.574       90.500       34.200        0.143      333.569        2.968      861.924
11/02/2014  04:15:00     -171.858      -76.236       -5.712       32.679       26.203       24.440     1067.943      686.575      597.322        1.887        0.118      188.008       20.543        0.012      333.531        2.905      861.938
11/02/2014  04:16:00     -128.104      -37.676       -2.471       32.322       23.117       18.698     1044.685      534.410      349.607        0.988        0.096      133.530       18.331        0.019      333.570        2.972      861.959
11/02/2014  04:17:00      -99.989      -36.754       -1.680       28.557       27.122       22.632      815.531      735.589      512.198        0.671        0.103      106.530       14.187        0.018      333.601        3.023      861.959
11/02/2014  04:18:00     -142.776      -71.727      -11.507       43.313       23.668       25.339     1876.023      560.152      642.056        1.437        0.154      159.780       24.476        0.023      333.572        2.974      861.970
11/02/2014  04:19:00     -156.261      -48.834      -13.117       32.834       31.232       21.544     1078.059      975.433      464.151        1.475        0.126      163.714       17.324        0.011      333.583        2.993      862.004
11/02/2014  04:20:00     -108.351      -55.088      -14.004       56.539       50.827       32.100     3196.699     2583.334     1030.391        1.089        0.341      121.551       31.260        0.066      333.557        2.949      862.002
11/02/2014  04:21:00     -177.995      -82.176       -0.878       76.197       48.368       35.451     5806.030     2339.475     1256.788        2.392        0.470      196.049       33.106        0.029      333.572        2.972      861.981
11/02/2014  04:22:00     -197.584      -72.295       -2.892       73.349       57.020       38.965     5380.073     3251.303     1518.263        2.721        0.507      210.395       40.014        0.036      333.571        2.971      861.990
11/02/2014  04:23:00     -195.549       -9.503      -14.642       63.813       49.127       34.038     4072.082     2413.501     1158.555        2.309        0.382      195.780       29.893        0.023      333.452        2.773      862.042
11/02/2014  04:24:00     -196.095      -37.275      -20.366       48.702       33.845       29.460     2371.854     1145.478      867.890        2.232        0.219      199.606       21.875        0.012      333.363        2.626      862.062
11/02/2014  04:25:00     -118.657      -48.646       -6.980       36.671       42.484       26.227     1344.786     1804.850      687.845        1.017        0.192      128.241       21.737        0.029      333.342        2.596      862.043
11/02/2014  04:26:00      -82.905      -41.955       -1.009       33.817       22.119       18.516     1143.571      489.253      342.856        0.530        0.099       92.917       13.075        0.020      333.479        2.819      862.009
11/02/2014  04:27:00     -132.256      -42.507      -11.458       77.113       38.801       25.473     5946.444     1505.549      648.884        1.376        0.405      138.919       31.523        0.051      333.410        2.706      862.007
11/02/2014  04:28:00     -108.742        3.725       -2.989       45.460       38.790       20.625     2066.653     1504.702      425.385        0.792        0.200      108.806       18.799        0.030      333.313        2.545      862.035
11/02/2014  04:29:00     -116.896       20.013      -16.142       49.298       19.677       17.703     2430.250      387.200      313.407        0.873        0.157      118.597       16.348        0.019      333.347        2.602      862.034
11/02/2014  04:30:00      -86.025       13.278      -10.136       24.438       21.704       17.085      597.207      471.058      291.903        0.452        0.068       87.044       11.880        0.019      333.329        2.573      862.029
11/02/2014  04:31:00      -70.808       -4.339       -7.819       26.123       27.416       11.920      682.427      751.612      142.095        0.333        0.079       70.941        9.382        0.017      333.335        2.582      862.012
11/02/2014  04:32:00      -48.566      -11.742      -16.979       24.607       24.183       14.696      605.525      584.820      215.965        0.210        0.070       49.966        8.936        0.032      333.334        2.580      862.015
11/02/2014  04:33:00     -132.336      -12.417      -20.217       33.337       33.382       19.188     1111.333     1114.330      368.188        1.033        0.130      132.917       17.621        0.018      333.277        2.485      862.024
11/02/2014  04:34:00     -186.273      -55.221      -26.253       36.557       38.404       21.271     1336.391     1474.883      452.436        2.085        0.163      194.286       19.568        0.010      333.259        2.455      862.030
11/02/2014  04:35:00     -155.600      -46.975      -16.725       42.343       36.592       27.759     1792.899     1338.950      770.582        1.530        0.195      162.536       24.285        0.022      333.224        2.397      862.035
11/02/2014  04:36:00      -86.756      -35.979        5.487      113.204      100.669       32.599    12815.239    10134.233     1062.726        1.643        1.201       93.920       44.260        0.222      333.255        2.448      862.046
11/02/2014  04:37:00     -100.765       -2.792      -11.362       53.089       41.757       29.355     2818.449     1743.654      861.691        0.786        0.271      100.804       23.223        0.053      333.278        2.487      862.070
11/02/2014  04:38:00     -148.636      -52.752       -8.995       49.895       41.316       20.602     2489.505     1707.049      424.445        1.479        0.231      157.719       18.260        0.013      333.218        2.387      862.082
11/02/2014  04:39:00      -82.920      -29.082       -0.954       37.818       28.940       21.664     1430.182      837.517      469.319        0.523        0.137       87.873       23.178        0.070      333.131        2.244      862.089
11/02/2014  04:40:00     -139.289       15.000      -13.030       21.795       25.577       15.013      475.011      654.167      225.394        1.058        0.068      140.095        8.006        0.003      333.189        2.340      862.104
11/02/2014  04:41:00     -131.632      -25.500      -17.696       27.863       21.519       15.932      776.321      463.060      253.842        0.989        0.075      134.080        9.187        0.005      333.195        2.350      862.119
11/02/2014  04:42:00     -131.117      -32.439      -10.811       37.960       26.856       19.951     1440.926      721.269      398.044        1.046        0.128      135.071       19.402        0.021      333.136        2.254      862.142
11/02/2014  04:43:00     -161.530      -32.651       -9.994       36.326       53.742       26.225     1319.608     2888.195      687.752        1.608        0.245      164.797       18.321        0.012      333.195        2.350      862.169
11/02/2014  04:44:00     -219.765       -0.989      -23.518       81.188       51.695       33.473     6591.486     2672.350     1120.440        2.962        0.519      219.767       35.312        0.026      333.228        2.404      862.196
11/02/2014  04:45:00     -209.841      -20.087      -13.835       68.812       51.196       41.380     4735.101     2621.069     1712.282        2.685        0.453      210.800       40.533        0.037      333.325        2.562      862.214
11/02/2014  04:46:00     -176.204      -38.785       -9.129       41.766       47.926       27.488     1744.439     2296.887      755.575        1.872        0.240      180.422       25.039        0.019      333.306        2.533      862.232
11/02/2014  04:47:00     -119.954      -58.738       -7.099       58.204       39.494       28.448     3387.690     1559.740      809.263        1.182        0.288      133.563       22.937        0.029      333.343        2.596      862.253
11/02/2014  04:48:00     -127.487      -12.878       -8.905       40.345       39.041       23.668     1627.753     1524.215      560.190        1.010        0.186      128.135       22.055        0.030      333.239        2.423      862.285
11/02/2014  04:49:00      -55.255       29.299       -8.552       50.740       38.755       23.003     2574.556     1501.979      529.122        0.429        0.230       62.542       20.245        0.105      333.308        2.538      862.295
11/02/2014  04:50:00      -57.638       82.811       -0.599       28.760       58.057       29.077      827.123     3370.640      845.452        0.761        0.252      100.895       27.405        0.074      333.230        2.409      862.296
11/02/2014  04:51:00      -76.148       70.517      -17.981       23.968       36.627       23.307      574.449     1341.560      543.217        0.678        0.123      103.784       15.232        0.022      333.280        2.490      862.303
11/02/2014  04:52:00      -71.455       49.746      -10.369       25.147       36.561       22.118      632.347     1336.680      489.201        0.507        0.123       87.066       12.994        0.022      333.289        2.506      862.307
11/02/2014  04:53:00      -72.491       31.013       -4.852       37.708       53.734       23.383     1421.909     2887.383      546.785        0.555        0.243       78.846       25.448        0.104      333.267        2.468      862.317
11/02/2014  04:54:00      -68.738      -13.031       -3.287       31.609       35.279       17.696      999.141     1244.594      313.131        0.373        0.128       69.962       17.972        0.066      333.211        2.377      862.323
11/02/2014  04:55:00      -73.915      -39.394       -7.464       35.556       32.373       16.496     1264.238     1048.026      272.107        0.483        0.129       83.757       19.990        0.057      333.176        2.320      862.330
11/02/2014  04:56:00     -116.965      -35.108      -20.638       44.911       44.109       23.532     2016.958     1945.579      553.736        0.993        0.226      122.120        9.346        0.006      333.246        2.434      862.330
11/02/2014  04:57:00     -105.452      -20.899      -20.944       34.838       36.697       26.065     1213.660     1346.690      679.388        0.762        0.162      107.503       11.005        0.010      333.230        2.407      862.339
11/02/2014  04:58:00      -97.561       19.322       -6.811       72.085       52.163       37.528     5196.277     2720.939     1408.375        0.963        0.466       99.456       36.706        0.136      333.149        2.274      862.344
11/02/2014  04:59:00      -75.916      -21.543       -3.186       39.814       29.391       28.902     1585.157      863.805      835.318        0.476        0.164       78.913       24.096        0.093      333.227        2.401      862.349
11/02/2014  05:00:00      -60.458       23.226      -10.425       34.862       36.486       32.173     1215.362     1331.213     1035.108        0.394        0.179       64.766       26.157        0.163      333.257        2.454      862.352
11/02/2014  05:01:00     -102.817      106.990      -21.221       85.842       64.127       30.884     7368.795     4112.296      953.818        1.745        0.622      148.385       39.496        0.071      333.299        2.520      862.351
11/02/2014  05:02:00     -118.517       13.932      -19.289       55.080       81.991       30.415     3033.832     6722.468      925.043        1.264        0.534      119.333       37.712        0.100      333.392        2.676      862.345
11/02/2014  05:03:00      -89.395       50.920      -24.363       40.360       55.782       25.840     1628.944     3111.653      667.712        0.829        0.270      102.880       22.592        0.048      333.340        2.590      862.376
11/02/2014  05:04:00      -59.399       38.316       -0.634       35.582       34.655       22.644     1266.112     1200.969      512.753        0.399        0.149       70.685       22.983        0.106      333.281        2.492      862.390
11/02/2014  05:05:00      -80.895       31.925      -15.905       42.297       45.808       23.542     1789.041     2098.405      554.238        0.613        0.222       86.967       22.510        0.067      333.361        2.624      862.401
11/02/2014  05:06:00      -87.664       48.323      -11.795       35.576       28.382       19.926     1265.618      805.510      397.031        0.631        0.123      100.100       16.884        0.028      333.278        2.488      862.422
11/02/2014  05:07:00      -69.426      -36.791       -6.885       33.615       33.427       19.881     1129.978     1117.390      395.261        0.443        0.132       78.572       16.765        0.046      333.187        2.337      862.435
11/02/2014  05:08:00      -42.487       59.437      -13.997       31.066       55.113       19.178      965.076     3037.404      367.810        0.495        0.219       73.061       22.255        0.093      333.331        2.575      862.456
11/02/2014  05:09:00      -50.863       40.107       -6.589       28.688       41.852       15.652      823.015     1751.598      244.974        0.353        0.141       64.774       17.596        0.074      333.327        2.570      862.478
11/02/2014  05:10:00      -65.586       13.426      -12.857       23.951       29.253       12.388      573.666      855.716      153.457        0.311        0.079       66.946        9.157        0.019      333.290        2.509      862.484
11/02/2014  05:11:00      -44.844      -27.067       -0.380       37.464       23.047       12.980     1403.558      531.159      168.468        0.242        0.105       52.380        8.004        0.023      333.227        2.403      862.493
11/02/2014  05:12:00      -47.679       -4.777        4.605       29.096       33.928       16.761      846.550     1151.098      280.929        0.230        0.114       47.917       10.405        0.047      333.181        2.327      862.478
11/02/2014  05:13:00      -65.945       16.937       -4.080       40.466       29.290       23.396     1637.487      857.909      547.363        0.385        0.152       68.085       18.591        0.075      333.137        2.255      862.491
11/02/2014  05:14:00      -74.127      -18.817       -3.535       33.072       35.846       20.743     1093.734     1284.947      430.287        0.433        0.140       76.478       19.982        0.068      333.146        2.269      862.503
11/02/2014  05:15:00      -85.202      -35.129      -20.565       64.683       57.243       30.997     4183.911     3276.735      960.835        0.867        0.421       92.160       27.308        0.088      333.325        2.566      862.520
11/02/2014  05:16:00      -33.240       48.321      -14.803       25.537       55.211       30.524      652.132     3048.282      931.689        0.414        0.232       58.650       22.467        0.147      333.334        2.578      862.528
11/02/2014  05:17:00     -105.357      117.310      -25.072       41.865       78.021       27.609     1752.671     6087.351      762.233        1.704        0.430      157.676       27.145        0.030      333.374        2.645      862.549
11/02/2014  05:18:00     -109.754      100.724      -14.884       52.575       40.300       36.630     2764.120     1624.073     1341.761        1.407        0.286      148.967       26.319        0.031      333.342        2.593      862.549
11/02/2014  05:19:00      -89.172       90.081      -15.134       45.214       61.505       37.308     2044.287     3782.804     1391.876        1.176        0.361      126.753       32.598        0.066      333.339        2.589      862.540
11/02/2014  05:20:00      -59.642       22.195        3.670       36.504       28.232       18.304     1332.537      797.052      335.021        0.326        0.123       63.638       16.940        0.071      333.337        2.587      862.533
11/02/2014  05:21:00      -61.421      127.849      -18.365       63.910       71.036       34.587     4084.494     5046.124     1196.234        1.539        0.516      141.838       31.664        0.050      333.428        2.736      862.543
11/02/2014  05:22:00     -170.077      -39.992       -5.870       88.903       84.910       33.104     7903.668     7209.685     1095.884        2.338        0.810      174.716       34.022        0.038      333.366        2.632      862.530
11/02/2014  05:23:00      -82.048       63.528      -13.266       38.815       52.354       26.677     1506.624     2740.980      711.637        0.795        0.248      103.767       27.478        0.070      333.437        2.752      862.549
11/02/2014  05:24:00      -66.133       22.763      -12.076       22.113       31.869       12.777      488.976     1015.617      163.256        0.335        0.083       69.941        9.650        0.019      333.362        2.628      862.559
11/02/2014  05:25:00      -53.627       49.871       -8.256       31.339       51.503       25.140      982.136     2652.536      631.999        0.485        0.213       73.233       24.909        0.116      333.348        2.604      862.588
11/02/2014  05:26:00      -56.333       20.896       -5.470       46.466       57.319       21.107     2159.055     3285.412      445.489        0.476        0.294       60.084       26.662        0.197      333.383        2.663      862.577
11/02/2014  05:27:00      -70.791      -23.682       -1.366       59.540       50.500       32.303     3544.956     2550.243     1043.487        0.635        0.357       74.647       33.229        0.198      333.295        2.516      862.585
11/02/2014  05:28:00      -81.922       15.857       -5.049       63.490       32.106       18.973     4031.041     1030.826      359.969        0.620        0.271       83.442       24.456        0.086      333.262        2.461      862.583
11/02/2014  05:29:00     -138.845       16.166      -27.008       35.881       57.936       23.454     1287.477     3356.573      550.081        1.273        0.260      139.783       13.622        0.009      333.289        2.507      862.605
11/02/2014  05:30:00     -105.767      111.966      -27.957       39.172       59.401       27.296     1534.485     3528.458      745.046        1.516        0.290      154.023       26.367        0.029      333.334        2.580      862.621
11/02/2014  05:31:00     -100.055       77.429      -16.207       58.395       68.793       29.502     3410.031     4732.512      870.375        1.264        0.451      126.516       29.211        0.053      333.388        2.669      862.632
11/02/2014  05:32:00     -116.754       88.822      -17.416       54.462       51.637       35.981     2966.123     2666.351     1294.632        1.437        0.346      146.700       33.017        0.051      333.340        2.589      862.625
11/02/2014  05:33:00     -124.257      130.565      -23.467       66.709       73.699       41.303     4450.033     5431.502     1705.929        2.231        0.579      180.242       43.005        0.057      333.296        2.515      862.624
11/02/2014  05:34:00     -126.546       74.355      -11.572       62.112       94.623       36.163     3857.839     8953.441     1307.769        1.789        0.706      146.774       31.003        0.045      333.324        2.563      862.617
11/02/2014  05:35:00     -121.902       22.296      -11.687       62.191       77.870       32.167     3867.693     6063.763     1034.737        1.323        0.548      123.925       30.630        0.061      333.337        2.585      862.624
11/02/2014  05:36:00     -115.333       -1.376      -15.593       82.629      104.859       40.920     6827.504    10995.312     1674.429        1.652        0.975      115.342       35.264        0.093      333.336        2.584      862.629
11/02/2014  05:37:00     -106.640       38.854      -35.809       56.800       77.406       43.609     3226.200     5991.743     1901.756        1.264        0.556      113.498       36.558        0.104      333.338        2.588      862.622
11/02/2014  05:38:00      -94.529       48.538      -12.096       44.203       55.940       30.564     1953.903     3129.280      934.150        0.873        0.301      106.262       21.828        0.042      333.299        2.522      862.631
11/02/2014  05:39:00     -157.442       51.909      -17.930       72.662      107.329       45.838     5279.702    11519.410     2101.134        2.335        0.945      165.779       48.996        0.087      333.280        2.490      862.635
11/02/2014  05:40:00     -157.260       72.748      -22.114       68.492       57.850       36.192     4691.212     3346.589     1309.861        1.993        0.467      173.271       25.177        0.021      333.277        2.486      862.646
11/02/2014  05:41:00     -152.873      119.421      -16.925       84.501       61.112       45.655     7140.491     3734.731     2084.376        2.544        0.648      193.989       44.009        0.051      333.248        2.437      862.658
11/02/2014  05:42:00     -100.892       71.588      -11.163       58.821       68.460       44.942     3459.874     4686.750     2019.744        1.280        0.508      123.710       36.648        0.088      333.242        2.428      862.676
11/02/2014  05:43:00     -163.344       87.017      -30.287       77.338       79.759       39.622     5981.118     6361.520     1569.937        2.454        0.696      185.076       38.468        0.043      333.282        2.493      862.689
11/02/2014  05:44:00     -109.662       50.123      -11.528       92.403       43.235       35.895     8538.383     1869.280     1288.443        1.318        0.585      120.574       42.158        0.122      333.232        2.410      862.701
11/02/2014  05:45:00     -217.695       60.955      -24.120       79.574      104.668       51.620     6331.982    10955.410     2664.574        3.582        0.998      226.068       38.091        0.028      333.249        2.436      862.709
11/02/2014  05:46:00     -172.265       99.837      -24.660      119.220       94.235       61.545    14213.442     8880.325     3787.733        3.356        1.344      199.104       59.143        0.088      333.241        2.423      862.714
11/02/2014  05:47:00     -208.825      141.500      -33.017       85.846      115.565       59.004     7369.480    13355.294     3481.419        4.446        1.210      252.250       53.397        0.045      333.263        2.460      862.713
11/02/2014  05:48:00     -234.144      140.715      -44.079      104.856       83.653       63.860    10994.778     6997.765     4078.142        4.931        1.104      273.174       59.833        0.048      333.237        2.417      862.714
11/02/2014  05:49:00     -191.878       91.509      -33.305       80.648       76.539       48.438     6504.157     5858.248     2346.198        3.050        0.735      212.582       46.071        0.047      333.212        2.375      862.710
11/02/2014  05:50:00     -234.077       94.870      -36.360       98.601      133.486       55.711     9722.119    17818.486     3103.741        4.787        1.532      252.572       40.243        0.025      333.232        2.407      862.708
11/02/2014  05:51:00     -150.660       74.886      -18.444       99.797       85.668       64.025     9959.380     7338.952     4099.179        2.502        1.070      168.245       58.022        0.119      333.219        2.389      862.717
11/02/2014  05:52:00     -156.536      103.124      -20.036       93.914      150.338       72.784     8819.749    22601.423     5297.482        3.612        1.836      187.451       63.763        0.116      333.231        2.407      862.730
11/02/2014  05:53:00     -140.436      -17.352       -1.179       63.726       80.280       42.825     4060.965     6444.937     1833.984        1.618        0.617      141.504       22.501        0.025      333.280        2.490      862.708
11/02/2014  05:54:00     -199.845       50.836      -24.245       72.326       73.346       45.240     5231.120     5379.564     2046.629        2.788        0.633      206.209       37.860        0.034      333.213        2.378      862.714
11/02/2014  05:55:00     -248.907      111.101      -43.550       80.865       58.671       45.994     6539.180     3442.324     2115.481        4.414        0.605      272.577       38.680        0.020      333.206        2.365      862.705
11/02/2014  05:56:00     -183.638       72.218      -29.100       64.394      103.258       42.442     4146.612    10662.263     1801.288        2.819        0.831      197.328       39.342        0.040      333.171        2.307      862.692
11/02/2014  05:57:00     -187.601       47.079      -26.075       77.644       83.263       46.954     6028.565     6932.761     2204.676        2.663        0.758      193.418       46.366        0.057      333.175        2.315      862.700
11/02/2014  05:58:00     -185.690       42.054       -5.365       96.181       80.969       51.084     9250.712     6555.962     2609.610        2.734        0.921      190.392       52.103        0.075      333.156        2.283      862.701
11/02/2014  05:59:00     -191.934       55.012      -17.591      122.457       71.877       53.296    14995.641     5166.269     2840.471        3.158        1.150      199.662       65.477        0.108      333.148        2.271      862.704
11/02/2014  06:00:00     -200.616       82.418      -33.793       57.435       59.183       37.465     3298.757     3502.658     1403.632        2.819        0.410      216.885       24.476        0.013      333.124        2.232      862.710
11/02/2014  06:01:00     -193.547      101.668      -39.956       63.414       57.160       35.897     4021.313     3267.218     1288.607        2.898        0.429      218.625       33.549        0.024      333.118        2.221      862.708
11/02/2014  06:02:00     -162.010       50.274      -18.142       91.234       53.539       35.079     8323.702     2866.379     1230.541        2.076        0.621      169.631       21.554        0.016      333.129        2.241      862.721
11/02/2014  06:03:00     -141.807       88.990      -23.028       69.541       55.876       35.968     4835.943     3122.168     1293.692        1.890        0.463      167.417       30.918        0.034      333.142        2.262      862.744
11/02/2014  06:04:00     -142.475       86.047      -21.468       57.171       71.611       40.288     3268.573     5128.093     1623.084        1.909        0.501      166.443       36.398        0.048      333.082        2.164      862.752
11/02/2014  06:05:00     -135.770       70.963      -18.668       57.686       49.616       26.223     3327.675     2461.771      687.629        1.515        0.324      153.197       27.654        0.033      333.103        2.199      862.762
11/02/2014  06:06:00     -113.487       16.334       -8.993       72.438       58.452       35.886     5247.280     3416.612     1287.837        1.159        0.498      114.656       29.163        0.065      333.115        2.217      862.764
11/02/2014  06:07:00      -85.425       74.499      -19.182       43.271       45.554       32.953     1872.371     2075.194     1085.902        0.912        0.252      113.347       21.046        0.034      333.094        2.186      862.779
11/02/2014  06:08:00     -138.961      104.319      -21.604       59.099       71.718       37.913     3492.730     5143.519     1437.376        2.036        0.504      173.760       21.808        0.016      333.075        2.151      862.795
11/02/2014  06:09:00     -128.088      144.832      -27.203       47.001       66.100       31.065     2209.050     4369.152      965.023        2.283        0.377      193.347       30.484        0.025      333.021        2.061      862.797
11/02/2014  06:10:00     -120.265      161.376      -26.943       47.855       64.546       37.975     2290.070     4166.206     1442.124        2.456        0.395      201.261       28.819        0.021      332.976        1.988      862.802
11/02/2014  06:11:00     -117.707      123.568      -21.288       57.782       40.502       27.690     3338.796     1640.382      766.725        1.766        0.287      170.657       18.942        0.012      333.047        2.106      862.815
11/02/2014  06:12:00     -123.135      125.310      -24.209       58.589       66.399       44.743     3432.674     4408.855     2001.908        2.065        0.492      175.684       38.035        0.047      333.044        2.100      862.834
11/02/2014  06:13:00     -124.807      120.520      -23.842       50.658       57.358       29.182     2566.275     3289.980      851.592        1.869        0.335      173.499       30.457        0.031      333.008        2.039      862.860
11/02/2014  06:14:00     -154.666      175.776      -43.525       45.660       65.244       28.758     2084.822     4256.769      827.000        3.194        0.358      234.135       19.640        0.007      332.982        1.996      862.894
11/02/2014  06:15:00     -131.380      163.187      -28.918       57.062       70.837       35.899     3256.055     5017.864     1288.755        2.714        0.478      209.501       34.519        0.027      333.013        2.048      862.924
11/02/2014  06:16:00     -156.322      169.363      -39.252       69.732       85.960       42.973     4862.536     7389.102     1846.670        3.438        0.705      230.479       42.900        0.035      333.002        2.029      862.956
11/02/2014  06:17:00     -124.430      124.917      -25.966       52.739       65.156       32.749     2781.395     4245.282     1072.489        1.993        0.405      176.316       22.039        0.016      332.954        1.952      862.964
11/02/2014  06:18:00     -102.538      124.906      -21.754       49.962       66.120       36.788     2496.218     4371.906     1353.368        1.740        0.411      161.603       32.658        0.041      332.951        1.947      862.977
11/02/2014  06:19:00     -123.095       81.313      -10.452       69.499       54.656       52.685     4830.107     2987.263     2775.695        1.623        0.530      147.527       47.811        0.105      333.030        2.077      862.998
11/02/2014  06:20:00     -125.455       99.060      -18.974       66.977       80.092       45.292     4485.872     6414.720     2051.357        1.943        0.648      159.849       40.873        0.065      333.105        2.201      863.018
11/02/2014  06:21:00     -131.594      189.483      -27.569       65.640       65.811       44.891     4308.643     4331.112     2015.181        3.232        0.533      230.696       43.568        0.036      333.073        2.147      863.033
11/02/2014  06:22:00     -150.875      158.393      -26.040       59.063       85.044       43.852     3488.426     7232.412     1923.036        3.058        0.632      218.750       34.905        0.025      333.110        2.208      863.044
11/02/2014  06:23:00     -147.786      101.986      -16.816       75.893       56.642       44.460     5759.711     3208.329     1976.731        2.173        0.547      179.560       37.747        0.044      333.136        2.251      863.056
11/02/2014  06:24:00      -96.107      102.872      -18.312       71.161       55.479       35.050     5063.914     3077.938     1228.528        1.476        0.469      140.781       33.203        0.056      333.133        2.247      863.057
11/02/2014  06:25:00     -106.695       97.971      -17.520       52.332       62.679       28.084     2738.665     3928.605      788.726        1.437        0.373      144.853       31.679        0.048      333.156        2.285      863.065
11/02/2014  06:26:00     -105.268       47.283       -0.356       51.105       66.860       34.550     2611.721     4470.300     1193.724        1.079        0.414      115.399       12.252        0.011      333.205        2.368      863.070
11/02/2014  06:27:00      -82.153       51.230      -11.796       32.375       48.750       20.394     1048.116     2376.605      415.915        0.668        0.192       96.817       15.999        0.027      333.151        2.277      863.080
11/02/2014  06:28:00      -74.418       37.772      -10.394       38.914       54.018       24.133     1514.325     2917.906      582.391        0.604        0.251       83.455       19.922        0.057      333.154        2.282      863.094
11/02/2014  06:29:00     -116.485      119.862      -25.917       54.160       61.385       33.797     2933.272     3768.158     1142.216        1.822        0.392      167.140       36.379        0.047      333.182        2.328      863.099
11/02/2014  06:30:00     -137.309      114.359      -30.076       64.890       62.429       39.791     4210.661     3897.436     1583.328        2.126        0.485      178.695       33.193        0.035      333.212        2.376      863.097
11/02/2014  06:31:00     -111.161       89.677      -18.553       53.199       48.607       29.221     2830.177     2362.620      853.858        1.339        0.302      142.824       27.438        0.037      333.215        2.382      863.102
11/02/2014  06:32:00     -139.343       80.156      -23.739       45.973       47.620       24.037     2113.475     2267.661      577.775        1.568        0.248      160.753       19.886        0.015      333.161        2.292      863.103
11/02/2014  06:33:00      -95.946       29.590       -6.376       55.580       37.503       25.298     3089.165     1406.452      639.987        0.763        0.257      100.405       29.430        0.086      333.111        2.212      863.108
11/02/2014  06:34:00     -169.757       76.086      -29.096       46.329       44.580       30.623     2146.404     1987.395      937.774        2.026        0.254      186.028       22.591        0.015      333.168        2.304      863.128
11/02/2014  06:35:00     -141.509       74.874      -22.216       58.014       56.149       35.295     3365.672     3152.733     1245.736        1.694        0.388      160.096       27.602        0.030      333.151        2.276      863.146
11/02/2014  06:36:00     -133.344       65.438      -19.266       38.853       43.379       28.789     1509.574     1881.780      828.794        1.333        0.211      148.535       22.553        0.023      333.149        2.275      863.152
11/02/2014  06:37:00     -102.388       38.861      -16.380       68.090       47.790       30.499     4636.281     2283.894      930.215        1.005        0.393      109.515       33.688        0.095      333.134        2.248      863.154
11/02/2014  06:38:00     -127.530       -3.374       -8.404       33.040       27.845       23.496     1091.645      775.349      552.064        0.938        0.121      127.575       19.221        0.023      333.130        2.244      863.160
11/02/2014  06:39:00     -103.476      -30.365       -9.429       29.915       32.889       19.490      894.909     1081.683      379.869        0.704        0.118      107.839       16.222        0.023      333.130        2.243      863.155
11/02/2014  06:40:00     -110.004      -22.589      -16.676       30.393       36.120       17.435      923.728     1304.668      303.972        0.771        0.127      112.300        8.897        0.006      333.076        2.154      863.167
11/02/2014  06:41:00      -65.535      -41.073        2.404       46.743       32.143       23.560     2184.894     1033.178      555.097        0.488        0.189       77.342       21.497        0.077      333.033        2.082      863.187
11/02/2014  06:42:00      -47.110      -38.256        3.705       38.032       38.885       25.079     1446.446     1512.068      628.968        0.364        0.179       60.686       25.632        0.178      332.998        2.025      863.189
11/02/2014  06:43:00      -44.785      -11.550        6.444       42.131       35.435       27.619     1775.051     1255.616      762.834        0.299        0.190       46.251       28.974        0.392      332.952        1.949      863.192
11/02/2014  06:44:00      -99.858      -16.722       -0.520       32.383       31.585       27.868     1048.681      997.602      776.649        0.654        0.141      101.249       25.885        0.065      332.911        1.881      863.213
11/02/2014  06:45:00      -65.654      -44.561       -5.828       53.313       36.248       24.890     2842.246     1313.912      619.516        0.555        0.239       79.348       21.671        0.075      332.899        1.862      863.238
11/02/2014  06:46:00     -105.443      -59.477      -10.589       43.218       34.007       26.188     1867.763     1156.507      685.822        0.924        0.186      121.060       23.373        0.037      332.929        1.912      863.253
11/02/2014  06:47:00     -109.351      -26.516       -0.936       44.261       46.776       24.963     1958.998     2188.039      623.144        0.871        0.239      112.520       20.951        0.035      332.896        1.857      863.261
11/02/2014  06:48:00      -54.961      -27.623        1.032       46.474       22.097       14.282     2159.812      488.276      203.987        0.332        0.143       61.512       10.601        0.030      332.926        1.908      863.284
11/02/2014  06:49:00     -110.154       19.968      -13.856       72.063       45.425       25.420     5193.017     2063.396      646.191        1.031        0.395      111.949       36.935        0.109      332.989        2.011      863.308
11/02/2014  06:50:00      -35.629        9.776       -7.591       19.286       28.266       10.379      371.957      798.955      107.716        0.135        0.064       36.946        9.958        0.073      332.962        1.966      863.322
11/02/2014  06:51:00      -55.431      -42.036       -7.499       24.472       20.442       11.433      598.878      417.862      130.719        0.302        0.057       69.568       11.816        0.029      333.077        2.156      863.335
11/02/2014  06:52:00      -79.312      -25.497       -9.559       17.583       28.450       11.092      309.169      809.428      123.022        0.414        0.062       83.309        4.296        0.003      333.068        2.143      863.359
11/02/2014  06:53:00      -59.055      -14.273       -7.657       18.010       20.633       12.539      324.365      425.739      157.232        0.233        0.045       60.755        8.006        0.017      333.097        2.188      863.363
11/02/2014  06:54:00      -16.226      -31.843       -0.181       34.144       28.020       16.068     1165.806      785.096      258.181        0.174        0.110       35.739       14.477        0.164      333.114        2.217      863.383
11/02/2014  06:55:00       -0.105      -45.091        4.809       27.234       21.492       21.781      741.691      461.897      474.405        0.187        0.084       45.091       18.003        0.159      333.127        2.240      863.401
11/02/2014  06:56:00      -38.013      -22.392        6.867       31.677       27.959       19.669     1003.403      781.682      386.872        0.208        0.109       44.118       19.748        0.200      333.131        2.245      863.415
11/02/2014  06:57:00      -37.421      -29.577       -0.344       27.946       18.938       19.100      780.965      358.652      364.801        0.189        0.075       47.699       15.000        0.099      333.098        2.191      863.421
11/02/2014  06:58:00      -31.163      -16.688      -11.110       21.427       18.179       22.068      459.107      330.477      487.003        0.132        0.064       35.350       15.781        0.199      333.004        2.035      863.425
11/02/2014  06:59:00      -18.260      -30.355       -1.619       32.445       24.253       15.749     1052.658      588.185      248.033        0.157        0.094       35.424       13.381        0.143      333.089        2.178      863.424
11/02/2014  07:00:00        0.795      -13.434       19.750       12.089       25.749       15.411      146.136      662.986      237.484        0.081        0.052       13.458       14.540        1.167      333.190        2.341      863.427
11/02/2014  07:01:00      -17.605      -12.523       -1.175       12.395       30.939       13.756      153.624      957.221      189.229        0.088        0.065       21.605       11.120        0.265      332.941        1.933      863.429
11/02/2014  07:02:00      -19.379       15.865        1.983       14.144       18.841       23.129      200.057      354.972      534.930        0.086        0.054       25.044       14.046        0.315      332.904        1.870      863.435
11/02/2014  07:03:00      -18.431        7.202       13.765       17.982       13.815       18.253      323.343      190.864      333.165        0.071        0.042       19.788       12.649        0.409      332.820        1.732      863.441
11/02/2014  07:04:00      -29.570       -1.957        5.256       14.639       15.644       15.451      214.311      244.731      238.740        0.080        0.035       29.635       10.138        0.117      332.905        1.871      863.460
11/02/2014  07:05:00       -9.008        4.319        4.362       15.674        9.289       13.343      245.664       86.289      178.027        0.031        0.025        9.989        6.991        0.490      332.917        1.892      863.482
11/02/2014  07:06:00      -37.299      -12.455        4.749       20.168       18.120       17.285      406.736      328.342      298.775        0.130        0.052       39.323        8.737        0.049      332.665        1.475      863.488
11/02/2014  07:07:00      -42.661       -0.932        4.840       21.193       29.249       14.705      449.139      855.507      216.224        0.168        0.076       42.672       11.238        0.069      332.590        1.351      863.497
11/02/2014  07:08:00      -42.718        7.172        1.993       23.836       26.975       15.961      568.132      727.641      254.739        0.172        0.078       43.315       13.669        0.100      332.623        1.404      863.512
11/02/2014  07:09:00      -26.758        3.649        5.300       31.937       14.795       13.007     1019.979      218.893      169.173        0.108        0.070       27.005       15.432        0.327      332.660        1.468      863.513
11/02/2014  07:10:00       17.655       34.598       12.074       14.302       22.538       13.396      204.557      507.975      179.444        0.127        0.045       38.842        9.090        0.055      332.774        1.656      863.513
11/02/2014  07:11:00      -29.820        6.060       13.481       22.325       20.934       11.726      498.400      438.229      137.505        0.109        0.054       30.429       10.536        0.120      332.820        1.732      863.528
11/02/2014  07:12:00      -57.655      -13.710        1.523       23.174       20.339       11.622      537.054      413.680      135.082        0.230        0.054       59.263        9.741        0.027      332.696        1.527      863.545
11/02/2014  07:13:00       -6.800      -30.653        1.152       37.382       26.037       23.538     1397.377      677.933      554.049        0.181        0.131       31.398       18.383        0.343      332.749        1.615      863.554
11/02/2014  07:14:00      -29.757      -24.283        9.875       33.892       24.804       20.289     1148.663      615.249      411.632        0.187        0.109       38.407       22.852        0.354      332.902        1.867      863.565
11/02/2014  07:15:00      -24.065      -26.561        1.917       22.947       23.831       12.078      526.550      567.919      145.888        0.126        0.062       35.841       13.525        0.142      332.864        1.805      863.584
11/02/2014  07:16:00      -14.153        0.558        5.706       11.029       10.540       12.386      121.646      111.086      153.415        0.031        0.019       14.164        8.966        0.401      333.026        2.072      863.587
11/02/2014  07:17:00      -12.786        7.011       18.563       14.455        9.894       10.176      208.944       97.900      103.543        0.048        0.021       14.582        7.539        0.267      333.118        2.223      863.590
11/02/2014  07:18:00      -27.242        2.922        3.348       13.754       10.187       10.354      189.175      103.777      107.201        0.058        0.020       27.398        8.933        0.106      332.946        1.941      863.596
11/02/2014  07:19:00      -28.308       -6.924        3.480       16.870       13.258       10.160      284.590      175.775      103.232        0.071        0.028       29.142        7.899        0.073      332.893        1.853      863.593
11/02/2014  07:20:00      -19.429       -9.370        0.477       24.843       20.604       18.727      617.164      424.540      350.705        0.093        0.070       21.571       14.202        0.433      332.986        2.007      863.595
11/02/2014  07:21:00      -42.287      -27.388        7.016       40.052       29.315       20.122     1604.189      859.358      404.879        0.273        0.143       50.382       19.707        0.153      332.936        1.925      863.595
11/02/2014  07:22:00      -29.422      -15.145       -0.701       32.006       30.504       26.506     1024.385      930.509      702.591        0.188        0.133       33.092       15.633        0.223      332.942        1.932      863.600
11/02/2014  07:23:00      -99.071      -52.773       -2.460       40.141       34.157       28.892     1611.299     1166.689      834.728        0.811        0.181      112.250       28.099        0.063      332.735        1.590      863.609
11/02/2014  07:24:00      -44.042      -28.933       -1.678       34.277       21.957       22.852     1174.936      482.107      522.222        0.248        0.109       52.696       17.823        0.114      332.831        1.749      863.621
11/02/2014  07:25:00      -25.552      -18.614       -2.438       28.828       17.381       13.304      831.025      302.095      177.003        0.116        0.066       31.613       10.817        0.117      333.009        2.043      863.623
11/02/2014  07:26:00       -6.226       -7.677       -0.098       15.857       10.022        7.074      251.440      100.445       50.042        0.025        0.020        9.885        1.437        0.021      333.156        2.287      863.638
11/02/2014  07:27:00      -26.723      -27.793      -10.332       18.015       25.709        7.662      324.548      660.945       58.702        0.132        0.052       38.556        8.984        0.054      333.226        2.401      863.645
11/02/2014  07:28:00      -28.027        8.338       -6.134       22.730       19.663       14.994      516.638      386.619      224.821        0.101        0.056       29.241        7.154        0.060      333.290        2.508      863.666
11/02/2014  07:29:00      -11.576        1.308        6.455       18.608       12.867       14.459      346.257      165.552      209.051        0.045        0.036       11.650       10.836        0.865      333.509        2.870      863.672
11/02/2014  07:30:00      -11.471      -13.480        3.919       23.913       17.519       18.548      571.839      306.921      344.038        0.078        0.061       17.700       10.163        0.330      333.361        2.625      863.680
11/02/2014  07:31:00      -38.037        0.516        3.289       28.614       26.512       18.285      818.781      702.907      334.339        0.166        0.093       38.041       14.972        0.155      333.259        2.456      863.692
11/02/2014  07:32:00      -16.036      -20.216        2.214       20.518       23.153       17.898      420.999      536.078      320.343        0.097        0.064       25.804       14.408        0.312      333.521        2.889      863.697
11/02/2014  07:33:00      -49.072      -45.006        4.363       58.527       41.187       26.568     3425.405     1696.331      705.849        0.514        0.291       66.586       33.380        0.251      333.342        2.593      863.698
11/02/2014  07:34:00      -64.147      -56.835        0.990       43.085       44.086       22.836     1856.348     1943.555      521.477        0.583        0.216       85.703       14.146        0.027      333.227        2.401      863.708
11/02/2014  07:35:00      -90.633      -91.417       -4.959       51.065       40.356       28.857     2607.631     1628.604      832.736        1.083        0.253      128.730       23.467        0.033      333.241        2.426      863.705
11/02/2014  07:36:00      -71.160       -9.468        0.397       35.325       47.433       23.497     1247.887     2249.849      552.092        0.460        0.202       71.787       24.509        0.117      333.346        2.599      863.712
11/02/2014  07:37:00      -33.239       -1.990       13.528       28.621       31.801       20.877      819.140     1011.292      435.866        0.178        0.113       33.299       20.870        0.393      333.504        2.863      863.722
11/02/2014  07:38:00      -30.387      -21.170       -8.439       31.887       31.227       17.914     1016.753      975.127      320.903        0.188        0.116       37.035       16.297        0.194      333.410        2.706      863.740
11/02/2014  07:39:00        1.604      -14.956       -4.007       27.106       20.123       14.793      734.724      404.930      218.844        0.080        0.068       15.042        5.889        0.153      333.576        2.982      863.752
11/02/2014  07:40:00       -2.545       -1.317       11.498       35.775       27.117       18.101     1279.865      735.343      327.636        0.124        0.117        2.866       16.578       33.466      333.597        3.016      863.764
11/02/2014  07:41:00      -16.990      -26.646        7.075       42.916       27.613       18.259     1841.810      762.470      333.399        0.199        0.147       31.602       17.434        0.304      333.530        2.905      863.768
11/02/2014  07:42:00      -58.907      -40.158       11.196       46.389       44.170       27.441     2151.973     1950.972      753.005        0.503        0.243       71.293       25.480        0.128      333.476        2.815      863.776
11/02/2014  07:43:00     -128.116     -102.276       -4.417       48.434       33.791       28.607     2345.805     1141.834      818.349        1.560        0.215      163.933       27.191        0.028      333.255        2.449      863.783
11/02/2014  07:44:00     -132.292     -119.264       -8.228       44.495       42.159       28.890     1979.786     1777.378      834.644        1.819        0.230      178.115       24.047        0.018      333.186        2.335      863.799
11/02/2014  07:45:00      -94.881      -73.221       -2.100       57.065       46.522       34.717     3256.370     2164.258     1205.270        1.050        0.331      119.849       33.910        0.080      333.186        2.334      863.813
11/02/2014  07:46:00      -27.897     -117.817       -0.575       33.403       41.395       28.067     1115.761     1713.535      787.762        0.914        0.181      121.074       27.699        0.052      333.235        2.419      863.831
11/02/2014  07:47:00      -70.445      -72.725        0.071       66.954       39.905       35.805     4482.834     1592.443     1282.029        0.880        0.368      101.249       39.590        0.153      333.163        2.296      863.843
11/02/2014  07:48:00      -67.524      -48.252        1.955       51.474       36.436       24.364     2649.599     1327.558      593.590        0.573        0.229       82.992       19.377        0.055      333.222        2.394      863.852
11/02/2014  07:49:00      -55.278      -24.928       -3.216       51.345       39.304       29.352     2636.311     1544.838      861.547        0.436        0.252       60.639       25.906        0.183      333.289        2.507      863.863
11/02/2014  07:50:00       -9.643      -41.605       -6.332       57.200       39.384       33.969     3271.880     1551.120     1153.900        0.392        0.299       42.708       21.473        0.253      333.495        2.847      863.891
11/02/2014  07:51:00       38.409      -51.572        0.570       33.932       42.176       29.731     1151.373     1778.797      883.904        0.397        0.191       64.303       22.876        0.127      333.531        2.907      863.923
11/02/2014  07:52:00       -6.318      -12.443       18.117       45.881       31.723       23.216     2105.077     1006.334      538.966        0.209        0.183       13.955       28.391        4.139      333.596        3.013      863.946
11/02/2014  07:53:00      -26.267        3.311       21.540       43.537       36.641       28.002     1895.489     1342.595      784.091        0.259        0.201       26.475       25.181        0.905      333.591        3.006      863.951
11/02/2014  07:54:00      -37.671        3.498       21.498       47.583       46.220       29.799     2264.130     2136.300      887.954        0.359        0.264       37.833       27.510        0.529      333.560        2.954      863.951
11/02/2014  07:55:00      -68.394      -44.664       -0.510       44.185       23.253       21.343     1952.312      540.681      455.537        0.481        0.147       81.686       16.218        0.039      333.295        2.515      863.969
11/02/2014  07:56:00      -77.562      -38.793        6.889       37.557       40.825       22.535     1410.564     1666.685      507.844        0.558        0.179       86.722       16.444        0.036      333.297        2.519      863.974
11/02/2014  07:57:00      -28.814       -5.220       13.018       51.765       36.039       25.270     2679.613     1298.774      638.586        0.282        0.231       29.283       24.525        0.701      333.531        2.907      863.989
11/02/2014  07:58:00      -83.974      -43.239        1.229       69.335       33.334       22.322     4807.361     1111.126      498.251        0.767        0.321       94.452       21.309        0.051      333.375        2.647      863.992
11/02/2014  07:59:00     -110.389     -107.758       -7.684       46.176       29.773       21.306     2132.264      886.402      453.954        1.366        0.174      154.264       20.407        0.017      333.237        2.419      863.998
11/02/2014  08:00:00     -103.156     -101.470      -15.942       37.780       38.186       27.178     1427.314     1458.174      738.658        1.241        0.181      144.697       24.232        0.028      333.236        2.417      864.005
11/02/2014  08:01:00     -117.117      -95.051      -13.272       30.917       34.686       23.642      955.835     1203.115      558.932        1.282        0.136      150.835       18.563        0.015      333.245        2.432      864.013
11/02/2014  08:02:00      -94.266      -86.078        0.748       35.096       43.768       22.702     1231.751     1915.651      515.397        0.998        0.183      127.653       23.440        0.034      333.306        2.534      864.030
11/02/2014  08:03:00      -50.905      -65.532        5.650       42.526       46.603       28.945     1808.502     2171.849      837.821        0.587        0.241       82.981       24.477        0.087      333.413        2.712      864.057
11/02/2014  08:04:00      -66.495      -78.916       -3.216       49.755       50.082       31.339     2475.601     2508.159      982.153        0.831        0.298      103.196       35.837        0.121      333.349        2.605      864.078
11/02/2014  08:05:00      -94.983     -136.587       -4.718       24.597       30.628       16.776      605.033      938.049      281.448        1.476        0.091      166.367       14.285        0.007      333.198        2.355      864.103
11/02/2014  08:06:00      -92.321      -45.118       -2.495       30.325       34.482       21.800      919.618     1189.033      475.243        0.657        0.129      102.756       17.229        0.028      333.324        2.564      864.108
11/02/2014  08:07:00      -96.046      -62.394       -1.259       44.516       30.820       25.609     1981.690      949.890      655.817        0.835        0.179      114.533       22.296        0.038      333.351        2.610      864.115
11/02/2014  08:08:00      -61.767      -38.044      -10.641       45.510       35.006       22.989     2071.187     1225.435      528.474        0.460        0.191       72.543       18.933        0.068      333.354        2.614      864.131
11/02/2014  08:09:00      -48.045       -8.786       12.392       41.193       36.473       22.849     1696.847     1330.244      522.055        0.304        0.177       48.842       24.279        0.247      333.584        2.993      864.149
11/02/2014  08:10:00      -30.402      -23.886        7.484       40.350       35.013       23.941     1628.153     1225.913      573.149        0.249        0.171       38.663       25.949        0.450      333.662        3.124      864.167
11/02/2014  08:11:00      -53.929      -44.959       -7.199       43.324       41.318       26.570     1876.956     1707.174      705.973        0.463        0.215       70.211       15.993        0.052      333.402        2.693      864.176
11/02/2014  08:12:00      -73.291      -94.458       -5.430       25.201       25.142       17.226      635.088      632.096      296.723        0.794        0.078      119.557       12.179        0.010      333.251        2.443      864.180
11/02/2014  08:13:00      -48.555      -78.132       -7.160       16.994       52.246       15.767      288.801     2729.595      248.584        0.589        0.163       91.990       21.208        0.053      333.343        2.596      864.183
11/02/2014  08:14:00      -69.170      -64.230       -0.022       29.156       27.556       18.012      850.089      759.345      324.438        0.542        0.097       94.393       13.305        0.020      333.398        2.687      864.189
11/02/2014  08:15:00      -53.133      -76.394       -6.342       29.825       33.274       19.490      889.523     1107.167      379.856        0.554        0.119       93.054       17.702        0.036      333.392        2.677      864.194
11/02/2014  08:16:00      -41.447      -99.924       -6.194       31.373       32.843       25.254      984.239     1078.653      637.753        0.722        0.135      108.179       18.077        0.028      333.423        2.726      864.206
11/02/2014  08:17:00      -64.082      -95.210       -5.714       30.190       45.873       17.505      911.453     2104.331      306.428        0.826        0.166      114.767       13.968        0.015      333.455        2.780      864.217
11/02/2014  08:18:00      -68.005      -69.094        1.983       30.844       47.185       22.816      951.383     2226.421      520.582        0.655        0.185       96.947       19.716        0.041      333.506        2.865      864.237
11/02/2014  08:19:00      -81.562      -32.100       -4.026       21.923       30.997       17.772      480.618      960.807      315.837        0.473        0.088       87.652        9.113        0.011      333.558        2.951      864.248
11/02/2014  08:20:00      -67.030      -35.021       -6.120       28.017       27.195       16.295      784.979      739.590      265.522        0.377        0.090       75.627       14.495        0.037      333.713        3.209      864.269
11/02/2014  08:21:00      -44.862      -36.073       -0.553       24.771       31.668       16.283      613.603     1002.831      265.145        0.260        0.094       57.566       12.482        0.047      333.748        3.267      864.284
11/02/2014  08:22:00      -76.614      -53.007       -8.363       23.038       27.138       14.309      530.728      736.463      204.756        0.511        0.074       93.163        5.643        0.004      333.733        3.241      864.299
11/02/2014  08:23:00      -38.059      -42.489       -2.096       27.850       31.465       16.790      775.628      990.050      281.890        0.265        0.102       57.042       16.119        0.080      333.781        3.323      864.319
11/02/2014  08:24:00      -68.624       20.809       -6.548       25.030       24.006       18.754      626.489      576.270      351.721        0.337        0.078       71.710       15.529        0.047      333.764        3.292      864.328
11/02/2014  08:25:00     -107.182      -60.557       -7.826       43.272       30.249       18.180     1872.493      915.024      330.507        0.917        0.156      123.106       14.152        0.013      333.746        3.263      864.328
11/02/2014  08:26:00      -34.283      -61.118       -0.548       34.598       30.285       24.865     1197.044      917.179      618.280        0.382        0.137       70.077       21.538        0.094      333.758        3.283      864.326
11/02/2014  08:27:00      -21.801      -36.312       -2.773        9.562       14.890        9.193       91.426      221.703       84.515        0.110        0.020       42.354        5.895        0.019      333.724        3.228      864.323
11/02/2014  08:28:00       -7.989      -49.818       -8.646       15.617       19.297       15.474      243.902      372.375      239.433        0.174        0.043       50.455       11.802        0.055      333.798        3.349      864.336
11/02/2014  08:29:00      -29.165      -45.653       -7.707       19.643       40.094       17.038      385.840     1607.490      290.299        0.264        0.114       54.174       11.822        0.048      333.912        3.540      864.353
11/02/2014  08:30:00      -53.685      -36.475       -1.017       17.676       30.742       23.265      312.425      945.041      541.276        0.301        0.090       64.904       19.594        0.091      333.898        3.516      864.371
11/02/2014  08:31:00      -71.996      -19.397       -9.988       23.881       28.616       13.482      570.321      818.901      181.761        0.361        0.079       74.563       14.227        0.036      333.936        3.580      864.380
11/02/2014  08:32:00      -52.306       -4.000       -0.490       20.172       22.209       14.444      406.928      493.257      208.616        0.193        0.055       52.459        4.899        0.009      333.933        3.573      864.373
11/02/2014  08:33:00      -64.842      -44.962       -1.444       36.276       35.117       19.068     1315.966     1233.183      363.575        0.457        0.146       78.905       18.387        0.054      333.913        3.540      864.369
11/02/2014  08:34:00      -78.785      -74.403        2.981       36.868       47.211       26.038     1359.249     2228.899      677.988        0.801        0.213      108.365       22.288        0.042      333.846        3.428      864.367
11/02/2014  08:35:00      -69.646      -60.988        2.264       33.588       36.209       25.980     1128.183     1311.125      674.959        0.584        0.156       92.575       19.969        0.047      333.939        3.582      864.375
11/02/2014  08:36:00      -52.002      -54.847       -0.358       30.611       30.178       19.774      937.058      910.697      391.028        0.398        0.112       75.580       16.644        0.048      333.815        3.377      864.392
11/02/2014  08:37:00      -51.487       -4.027       -4.966       22.740       24.225       12.835      517.129      586.874      164.725        0.198        0.063       51.644       10.935        0.045      333.968        3.631      864.420
11/02/2014  08:38:00      -36.260        0.803        8.571       25.576       27.013       18.047      654.146      729.723      325.679        0.155        0.085       36.269        9.192        0.064      334.162        3.954      864.438
11/02/2014  08:39:00      -27.029       42.345        6.811       29.338       32.743       26.539      860.743     1072.087      704.303        0.260        0.132       50.236       20.958        0.174      334.522        4.550      864.458
11/02/2014  08:40:00      -42.356      -19.002        5.653       35.595       41.490       19.893     1266.978     1721.423      395.736        0.278        0.169       46.423       19.426        0.175      334.295        4.172      864.483
11/02/2014  08:41:00      -41.907      -35.250       -2.193       28.974       22.611       17.693      839.493      511.266      313.028        0.233        0.083       54.761       12.643        0.053      334.056        3.779      864.493
11/02/2014  08:42:00      -26.523      -15.896       -5.367       18.626       13.821       10.236      346.923      191.027      104.766        0.081        0.032       30.922        8.203        0.070      334.123        3.887      864.506
11/02/2014  08:43:00      -24.359      -11.530        1.760       15.276       19.548       10.685      233.367      382.105      114.173        0.073        0.036       26.950        8.320        0.095      334.283        4.153      864.512
11/02/2014  08:44:00        0.847       36.431       25.918       19.456       25.862       22.716      378.518      668.830      516.014        0.178        0.078       36.441       12.307        0.114      334.695        4.836      864.510
11/02/2014  08:45:00      -41.282       -1.228        7.947       38.049       41.120       27.239     1447.697     1690.847      741.940        0.282        0.194       41.300       21.980        0.283      334.546        4.591      864.520
11/02/2014  08:46:00      -23.569      -12.777       16.202       49.802       36.559       23.015     2480.260     1336.543      529.681        0.266        0.217       26.809       25.963        0.938      334.753        4.934      864.546
11/02/2014  08:47:00     -122.351       14.123       -6.065       31.072       31.102       24.623      965.485      967.330      606.301        0.887        0.127      123.163       19.001        0.024      334.046        3.759      864.583
11/02/2014  08:48:00      -95.582      -18.962      -15.180       19.328       27.961       14.785      373.571      781.810      218.592        0.555        0.069       97.444       11.427        0.014      334.068        3.796      864.598
11/02/2014  08:49:00      -81.367      -20.176      -10.419       38.052       23.687       21.414     1447.990      561.052      458.564        0.480        0.123       83.831        9.098        0.012      334.124        3.889      864.601
11/02/2014  08:50:00      -48.547       -7.812       -3.548       26.022       18.915       12.026      677.165      357.779      144.621        0.180        0.059       49.172        7.595        0.024      334.204        4.023      864.590
11/02/2014  08:51:00      -45.966       -5.737      -10.406       26.091       20.068       11.195      680.737      402.718      125.317        0.173        0.060       46.323        7.931        0.029      334.296        4.176      864.577
11/02/2014  08:52:00      -20.598        3.057        1.538       23.962       17.471       16.728      574.197      305.239      279.821        0.080        0.058       20.823        9.180        0.194      334.674        4.803      864.554
11/02/2014  08:53:00      -52.121       -6.924       -6.352       27.547       28.316       18.046      758.862      801.774      325.653        0.235        0.094       52.578       15.763        0.090      334.410        4.364      864.554
11/02/2014  08:54:00      -30.704        7.530       -1.292       28.015       33.527       24.713      784.855     1124.070      610.714        0.176        0.126       31.614       18.203        0.332      334.570        4.631      864.563
11/02/2014  08:55:00      -68.671      -39.226      -12.572       19.814       28.046       20.601      392.593      786.573      424.420        0.401        0.080       79.085       16.386        0.043      334.315        4.207      864.576
11/02/2014  08:56:00      -69.528      -51.247       -4.994       56.009       47.985       19.898     3137.040     2302.595      395.932        0.666        0.292       86.374       16.962        0.039      334.445        4.423      864.590
11/02/2014  08:57:00      -45.567     -114.112        0.033       44.771       61.522       27.371     2004.431     3784.911      749.171        1.082        0.327      122.873       16.878        0.019      334.256        4.108      864.592
11/02/2014  08:58:00      -53.400      -74.545        5.355       45.069       33.235       30.542     2031.182     1104.542      932.794        0.625        0.203       91.697       22.289        0.059      334.327        4.227      864.598
11/02/2014  08:59:00      -35.633      -15.059      -10.749       19.046       29.856       20.480      362.739      891.370      419.434        0.164        0.084       38.684        9.532        0.061      334.321        4.216      864.592
11/02/2014  09:00:00      -68.780      -68.296       -5.736       27.846       43.084       17.395      775.375     1856.199      302.569        0.618        0.147       96.929        9.495        0.010      334.234        4.072      864.582
11/02/2014  09:01:00      -66.986       30.110       -0.674       35.664       16.213       19.442     1271.920      262.876      377.996        0.365        0.096       73.442       20.302        0.076      334.500        4.514      864.576
11/02/2014  09:02:00       52.500       46.934       21.494       32.203       33.972       27.249     1037.062     1154.083      742.534        0.418        0.147       70.421       28.468        0.163      335.099        5.509      864.580
11/02/2014  09:03:00       71.929       38.096       29.882       35.173       19.930       26.885     1237.132      397.196      722.777        0.494        0.118       81.394       17.638        0.047      334.833        5.067      864.586
11/02/2014  09:04:00       43.449       58.409        2.794       32.570       36.556       23.635     1060.815     1336.325      558.626        0.413        0.148       72.798       15.166        0.043      334.880        5.144      864.597
11/02/2014  09:05:00       52.151      183.412      -35.006       63.421       88.280       32.085     4022.194     7793.420     1029.455        2.521        0.642      190.682       32.695        0.029      334.694        4.832      864.600
11/02/2014  09:06:00       47.080       59.685       16.086       63.529       48.030       35.053     4035.978     2306.841     1228.721        0.680        0.379       76.018       25.793        0.115      335.032        5.398      864.585
11/02/2014  09:07:00      -14.609      122.820       -0.812       44.264       90.798       39.759     1959.282     8244.247     1580.810        1.354        0.589      123.686       50.114        0.164      335.052        5.429      864.575
11/02/2014  09:08:00     -101.601      165.426      -25.887       36.406       48.767       30.806     1325.382     2378.191      948.994        2.150        0.233      194.135       26.911        0.019      334.604        4.683      864.562
11/02/2014  09:09:00      -13.330       71.279        8.839       56.083       42.785       31.243     3145.296     1830.554      976.144        0.564        0.298       72.515       36.140        0.248      335.192        5.663      864.534
11/02/2014  09:10:00       19.436       79.060        2.095       46.852       39.037       31.283     2195.134     1523.892      978.619        0.566        0.235       81.414       22.447        0.076      334.988        5.324      864.514
11/02/2014  09:11:00      -20.072      175.321      -21.555       38.578       70.498       32.055     1488.271     4969.956     1027.500        1.954        0.374      176.466       31.235        0.031      334.759        4.942      864.513
11/02/2014  09:12:00       19.703       73.007        8.177       53.939       61.282       29.039     2909.442     3755.436      843.236        0.665        0.375       75.619       30.818        0.166      335.126        5.554      864.501
11/02/2014  09:13:00       30.075       77.378        7.435       49.597       43.121       29.939     2459.879     1859.403      896.344        0.608        0.261       83.017       24.981        0.091      335.106        5.519      864.490
11/02/2014  09:14:00       84.442       47.661       18.698       57.270       48.448       36.701     3279.829     2347.248     1346.993        0.836        0.349       96.964       17.510        0.033      334.864        5.118      864.491
11/02/2014  09:15:00        6.226       11.790        7.979       64.886       59.703       33.705     4210.200     3564.393     1136.018        0.457        0.446       13.333       24.070        3.259      335.175        5.634      864.491
11/02/2014  09:16:00       47.328       51.984        2.804       76.031       57.594       37.104     5780.755     3317.117     1376.716        0.771        0.524       70.301       22.073        0.099      335.257        5.772      864.512
11/02/2014  09:17:00      -29.456      151.859      -15.128       39.942       84.605       30.960     1595.377     7158.000      958.511        1.693        0.486      154.689       38.943        0.063      335.022        5.378      864.524
11/02/2014  09:18:00        6.085      134.572       -1.359       34.546       93.242       45.613     1193.409     8694.152     2080.516        1.506        0.598      134.710       55.306        0.169      335.171        5.626      864.537
11/02/2014  09:19:00       20.884      196.331      -17.907       43.115       83.065       45.008     1858.912     6899.850     2025.679        2.504        0.539      197.439       51.502        0.068      334.830        5.058      864.543
11/02/2014  09:20:00       -2.516      169.240      -17.410       37.596       59.149       40.071     1413.481     3498.569     1605.698        1.773        0.326      169.258       35.144        0.043      334.914        5.200      864.537
11/02/2014  09:21:00      -13.346      100.168        4.531       40.228       48.712       36.126     1618.330     2372.822     1305.066        0.776        0.265      101.053       31.903        0.100      335.237        5.736      864.530
11/02/2014  09:22:00      -33.327       94.806       -5.832       54.186       47.328       30.969     2936.114     2239.898      959.055        0.813        0.307      100.493       27.971        0.077      335.187        5.653      864.534
11/02/2014  09:23:00      -23.330      205.864      -11.593       35.809       73.245       31.580     1282.276     5364.799      997.265        2.535        0.382      207.182       34.835        0.028      334.958        5.272      864.534
11/02/2014  09:24:00      -27.752       83.681       13.932       53.428       54.466       46.425     2854.505     2966.532     2155.291        0.797        0.399       88.163       27.221        0.095      335.395        6.001      864.553
11/02/2014  09:25:00       72.352       77.233       24.820       60.699       51.938       45.496     3684.337     2697.539     2069.847        1.013        0.423      105.829       35.409        0.112      335.322        5.879      864.562
11/02/2014  09:26:00       -5.411      145.429      -17.681       37.529       59.737       32.356     1408.432     3568.565     1046.924        1.376        0.301      145.529       30.725        0.045      335.228        5.723      864.578
11/02/2014  09:27:00      -27.177      140.672      -12.542       55.058       55.579       34.181     3031.384     3089.032     1168.364        1.399        0.364      143.273       38.819        0.073      334.991        5.329      864.592
11/02/2014  09:28:00      -33.581       84.617        2.026       62.959       76.052       36.841     3963.840     5783.906     1357.227        0.970        0.555       91.037       44.201        0.236      335.076        5.470      864.601
11/02/2014  09:29:00      -29.455       40.369       11.728       64.925       36.364       32.303     4215.211     1322.316     1043.492        0.461        0.329       49.972       33.026        0.437      335.139        5.575      864.608
11/02/2014  09:30:00      -46.028      188.233      -21.905       45.368       84.785       30.626     2058.232     7188.571      937.967        2.411        0.509      193.779       38.875        0.040      334.936        5.236      864.611
11/02/2014  09:31:00      -42.943      124.692       -0.786       42.619       56.922       37.497     1816.381     3240.131     1406.020        1.193        0.323      131.880       39.892        0.091      335.345        5.918      864.612
11/02/2014  09:32:00        0.103      127.281       -5.364       35.968       82.887       38.658     1293.729     6870.221     1494.450        1.294        0.483      127.281       48.270        0.144      335.092        5.496      864.606
11/02/2014  09:33:00       34.242      229.671      -28.513       50.691       72.240       48.582     2569.565     5218.652     2360.225        3.244        0.507      232.209       44.782        0.037      334.937        5.236      864.602
11/02/2014  09:34:00       60.504      119.665       -6.716       63.296       69.764       52.164     4006.331     4866.968     2721.087        1.481        0.580      134.091       50.775        0.143      335.062        5.445      864.586
11/02/2014  09:35:00       75.377       74.248        7.194       83.518       52.293       38.064     6975.198     2734.606     1448.878        1.120        0.558      105.804       34.258        0.105      334.959        5.275      864.566
11/02/2014  09:36:00       67.462      114.660        1.111       80.046       59.215       41.271     6407.429     3506.418     1703.318        1.466        0.581      133.034       36.252        0.074      334.994        5.334      864.532
11/02/2014  09:37:00       78.781      143.578      -11.374       54.170       64.507       53.195     2934.354     4161.203     2829.745        1.844        0.496      163.771       44.396        0.073      334.922        5.213      864.516
11/02/2014  09:38:00       76.959       83.209       16.448       46.106       41.832       44.298     2125.772     1749.950     1962.334        0.948        0.292      113.342       24.978        0.049      335.131        5.561      864.500
11/02/2014  09:39:00      165.721      114.419       38.205       93.928       83.777       50.494     8822.560     7018.595     2549.630        3.020        0.920      201.383       39.830        0.039      335.247        5.752      864.502
11/02/2014  09:40:00      234.869      106.994       55.772       91.846       81.688       63.685     8435.665     6672.859     4055.750        4.444        0.958      258.091       53.945        0.044      334.961        5.276      864.511
11/02/2014  09:41:00      160.231      135.304       40.527       88.131       57.822       70.862     7767.113     3343.419     5021.490        3.087        0.807      209.717       48.252        0.053      335.079        5.472      864.529
11/02/2014  09:42:00      242.038      149.417        0.343       91.868       56.026       55.593     8439.742     3138.861     3090.559        4.779        0.733      284.443       27.886        0.010      334.944        5.248      864.552
11/02/2014  09:43:00      220.262      120.668       30.758       77.383       63.720       56.261     5988.110     4060.225     3165.279        3.862        0.661      251.150       45.886        0.033      335.069        5.455      864.538
11/02/2014  09:44:00      172.536      117.850        9.249       43.309       47.675       43.628     1875.659     2272.930     1903.388        2.490        0.303      208.944       24.718        0.014      335.047        5.419      864.538
11/02/2014  09:45:00      212.497      122.143       24.422       62.568       42.924       54.861     3914.739     1842.453     3009.764        3.472        0.438      245.100       27.934        0.013      334.860        5.106      864.521
11/02/2014  09:46:00      149.625      103.254       50.875       79.039       54.483       62.779     6247.218     2968.439     3941.149        2.439        0.658      181.794       55.152        0.092      335.076        5.468      864.510
11/02/2014  09:47:00       47.033      134.350      106.759       69.605       55.956       52.018     4844.915     3131.040     2705.904        2.117        0.534      142.344       45.025        0.100      335.273        5.796      864.506
11/02/2014  09:48:00      140.579       88.300       27.409       80.840       39.333       47.118     6535.163     1547.048     2220.074        1.930        0.515      166.010       24.355        0.022      335.003        5.345      864.505
11/02/2014  09:49:00       16.362       67.392       86.939       33.968       39.103       29.354     1153.852     1529.044      861.632        0.796        0.177       69.350       16.184        0.054      335.345        5.917      864.506
11/02/2014  09:50:00       26.000       52.270       71.284       30.183       36.526       20.035      911.035     1334.178      401.404        0.557        0.132       58.380       18.715        0.103      335.414        6.032      864.498
11/02/2014  09:51:00      -49.679       19.643       30.062       81.928       33.354       31.366     6712.181     1112.515      983.820        0.628        0.440       53.422       45.292        0.719      335.136        5.569      864.504
11/02/2014  09:52:00      -57.167        0.107        4.588       30.859       22.466       15.042      952.251      504.721      226.264        0.249        0.084       57.167        8.291        0.021      335.235        5.736      864.514
11/02/2014  09:53:00       14.275       52.884        4.114       43.336       41.069       26.502     1878.034     1686.632      702.341        0.364        0.213       54.777       22.627        0.171      335.348        5.922      864.534
11/02/2014  09:54:00        4.236        9.675       60.014       27.818       60.206       29.460      773.857     3624.791      867.868        0.449        0.263       10.561       28.027        7.042      335.804        6.682      864.552
11/02/2014  09:55:00       79.065       82.903       35.443       86.527       66.327       57.519     7486.940     4399.236     3308.424        1.478        0.760      114.561       53.614        0.219      335.578        6.304      864.573
11/02/2014  09:56:00      109.969       62.096       13.301       94.264       92.490       48.301     8885.684     8554.381     2333.034        1.795        0.989      126.290       31.250        0.061      335.239        5.738      864.603
11/02/2014  09:57:00       46.307       40.166       61.666       76.100       66.909       50.849     5791.184     4476.778     2585.594        1.020        0.643       61.300       36.292        0.351      335.367        5.952      864.606
11/02/2014  09:58:00       81.019       40.813       48.992       90.267       58.436       45.442     8148.086     3414.795     2064.985        1.213        0.681       90.718       46.611        0.264      335.362        5.945      864.623
11/02/2014  09:59:00      127.937      109.177        7.554       74.451       64.495       57.877     5542.943     4159.589     3349.697        2.070        0.653      168.189       42.189        0.063      335.237        5.737      864.651
11/02/2014  10:00:00       41.159      179.603       -9.286       63.812       58.466       47.409     4071.973     3418.301     2247.635        2.189        0.487      184.259       43.102        0.055      335.221        5.709      864.668
11/02/2014  10:01:00       44.368      108.345       -1.365       65.132       74.359       42.990     4242.234     5529.219     1848.123        1.266        0.581      117.077       38.548        0.108      335.405        6.016      864.682
11/02/2014  10:02:00       -4.040      199.518      -28.295       47.905       65.012       33.545     2294.860     4226.503     1125.242        2.413        0.382      199.559       33.576        0.028      335.002        5.345      864.693
11/02/2014  10:03:00      -37.954      120.356      -15.426       22.712       39.495       25.362      515.829     1559.823      643.233        0.944        0.136      126.199       23.641        0.035      335.028        5.390      864.699
11/02/2014  10:04:00      -27.796       44.954        5.006       32.787       54.194       20.380     1074.979     2936.974      415.343        0.362        0.221       52.854       22.962        0.189      335.709        6.522      864.708
11/02/2014  10:05:00      -17.142       36.978        9.764       28.313       31.295       25.476      801.600      979.396      649.017        0.209        0.122       40.758       20.316        0.248      335.772        6.630      864.722
11/02/2014  10:06:00       13.962       84.239        6.085       30.702       93.091       35.857      942.604     8665.958     1285.715        0.911        0.545       85.388       43.545        0.260      335.753        6.596      864.727
11/02/2014  10:07:00       79.757       87.268      -12.004       41.196       70.438       35.757     1697.109     4961.526     1278.585        1.103        0.397      118.224       21.941        0.034      335.137        5.571      864.744
11/02/2014  10:08:00      -47.954       84.368      -20.116       56.827       44.248       28.290     3229.346     1957.854      800.296        0.790        0.299       97.044       17.286        0.032      335.298        5.839      864.763
11/02/2014  10:09:00      -32.791       63.406      -15.522       50.286       48.392       28.534     2528.696     2341.739      814.166        0.551        0.284       71.383       14.063        0.039      335.401        6.012      864.797
11/02/2014  10:10:00      -76.902       23.101      -19.559       33.145       58.844       19.975     1098.604     3462.581      399.000        0.589        0.248       80.297       20.768        0.067      335.307        5.853      864.812
11/02/2014  10:11:00      -94.173       99.503      -17.956       53.625       45.233       36.647     2875.666     2046.034     1343.027        1.268        0.313      137.002       31.821        0.054      335.330        5.891      864.838
11/02/2014  10:12:00      -49.421       70.398       -5.825       42.446       49.477       32.569     1801.627     2447.956     1060.761        0.637        0.266       86.013       36.602        0.181      335.561        6.276      864.838
11/02/2014  10:13:00      -10.883      -18.030       13.245       36.925       22.591       19.406     1363.430      510.344      376.583        0.143        0.113       21.060       20.831        0.978      335.650        6.426      864.811
11/02/2014  10:14:00      -25.801       57.994       -7.073       42.985       83.362       28.138     1847.685     6949.284      791.761        0.683        0.479       63.474       36.986        0.340      335.325        5.883      864.808
11/02/2014  10:15:00       10.338       86.338       -7.035       35.251       29.972       28.747     1242.617      898.306      826.398        0.529        0.148       86.955       13.509        0.024      335.297        5.837      864.804
11/02/2014  10:16:00       67.126      130.397       12.437       60.969       96.491       55.629     3717.215     9310.514     3094.576        1.889        0.806      146.661       50.714        0.120      335.220        5.708      864.801
11/02/2014  10:17:00       42.911       67.212      -12.600       46.974       45.789       28.245     2206.547     2096.637      797.793        0.581        0.255       79.742       19.811        0.062      335.097        5.505      864.818
11/02/2014  10:18:00       47.051       41.425        0.216       37.466       32.136       27.606     1403.725     1032.733      762.104        0.356        0.160       62.688       22.747        0.132      335.178        5.640      864.820
11/02/2014  10:19:00       64.557       50.502       -1.660       49.021       42.640       28.126     2403.059     1818.159      791.053        0.587        0.251       81.964       18.896        0.053      335.143        5.580      864.824
11/02/2014  10:20:00       -5.498       86.296      -12.692       27.453       39.140       23.921      753.641     1531.918      572.232        0.525        0.143       86.471       21.960        0.064      335.205        5.685      864.831
11/02/2014  10:21:00      -11.470      165.892      -23.208       39.797      143.985       31.030     1583.830    20731.735      962.872        2.573        1.164      166.288       56.579        0.116      335.063        5.445      864.831
11/02/2014  10:22:00       38.252      183.808      -23.556       41.170       79.968       39.687     1694.946     6394.933     1575.032        2.273        0.483      187.746       46.119        0.060      335.070        5.458      864.820
11/02/2014  10:23:00       52.455       69.319        7.188       36.462       39.898       37.088     1329.461     1591.814     1375.537        0.595        0.215       86.929       26.332        0.092      335.182        5.646      864.820
11/02/2014  10:24:00       -1.814       86.551      -17.546       31.286       32.569       23.343      978.797     1060.730      544.873        0.519        0.129       86.570       13.553        0.025      335.123        5.547      864.818
11/02/2014  10:25:00       29.605       79.690        5.391       32.694       44.226       31.166     1068.891     1955.952      971.306        0.563        0.200       85.012       26.695        0.099      335.149        5.590      864.826
11/02/2014  10:26:00      -74.154      144.798      -23.183       62.348       46.435       36.196     3887.252     2156.212     1310.186        1.718        0.368      162.682       30.169        0.034      335.115        5.533      864.815
11/02/2014  10:27:00      -15.623       47.354       -1.267       18.366       38.993       16.036      337.322     1520.456      257.144        0.230        0.106       49.865        4.534        0.008      335.185        5.651      864.780
11/02/2014  10:28:00      114.150       70.913       18.995       65.870       42.345       37.790     4338.922     1793.071     1428.080        1.299        0.378      134.384       33.353        0.062      335.449        6.088      864.766
11/02/2014  10:29:00       60.097      121.855        0.566       60.026       78.225       46.083     3603.097     6119.088     2123.614        1.515        0.592      135.868       42.305        0.097      335.558        6.271      864.749
11/02/2014  10:30:00       79.196      234.498      -30.110       64.398       71.241       53.179     4147.038     5075.236     2828.056        3.711        0.603      247.510       48.341        0.038      335.317        5.867      864.749
11/02/2014  10:31:00       41.013       68.192       -3.141       45.374       61.231       47.146     2058.831     3749.280     2222.715        0.718        0.402       79.575       25.624        0.104      335.414        6.031      864.750
11/02/2014  10:32:00       48.636       88.337       15.497       45.315       56.421       41.741     2053.463     3183.326     1742.300        0.869        0.349      100.841       23.409        0.054      335.547        6.253      864.727
11/02/2014  10:33:00      101.725       91.571       -2.284       70.629       49.867       40.220     4988.445     2486.709     1617.657        1.391        0.455      136.870       32.287        0.056      335.449        6.089      864.723
11/02/2014  10:34:00       78.797       93.884       -2.629       54.784       33.986       37.683     3001.264     1155.081     1420.032        1.030        0.279      122.569       32.181        0.069      335.242        5.748      864.716
11/02/2014  10:35:00       27.521       41.703       -1.566       38.158       52.528       34.298     1456.011     2759.177     1176.363        0.394        0.270       49.965       24.539        0.241      335.675        6.467      864.698
11/02/2014  10:36:00       46.871       42.523       31.377       43.956       47.859       38.331     1932.165     2290.455     1469.275        0.534        0.285       63.286       25.653        0.164      335.971        6.960      864.695
11/02/2014  10:37:00       72.827       95.257       92.891       93.170       49.983       37.901     8680.636     2498.293     1436.474        1.781        0.631      119.907       25.791        0.046      335.831        6.724      864.692
11/02/2014  10:38:00       77.294       64.102       52.646       74.213       64.313       52.580     5507.574     4136.208     2764.622        1.263        0.620      100.416       46.386        0.213      335.741        6.575      864.691
11/02/2014  10:39:00      131.969       48.415       44.438       82.717       62.303       63.578     6842.121     3881.721     4042.200        1.825        0.738      140.569       33.667        0.057      335.830        6.724      864.685
11/02/2014  10:40:00       88.640       77.569       24.534       68.203       39.761       49.327     4651.699     1580.958     2433.138        1.157        0.433      117.788       46.332        0.155      335.839        6.741      864.688
11/02/2014  10:41:00      131.906       80.412       21.268       73.174       52.671       51.652     5354.407     2774.238     2667.887        1.755        0.540      154.484       26.385        0.029      336.011        7.025      864.687
11/02/2014  10:42:00      195.086      111.178       23.211       91.295       60.833       54.296     8334.864     3700.697     2948.066        3.297        0.749      224.542       39.311        0.031      335.679        6.471      864.679
11/02/2014  10:43:00       -1.429      142.914      -14.027       78.291       66.740       42.634     6129.443     4454.239     1817.620        1.651        0.620      142.921       43.603        0.093      335.883        6.814      864.667
11/02/2014  10:44:00       65.143       51.187       -5.640       83.254       60.180       37.426     6931.194     3621.579     1400.722        0.942        0.598       82.847       29.510        0.127      335.822        6.711      864.653
11/02/2014  10:45:00      -15.349       96.756        0.122       81.122       59.862       41.988     6580.851     3583.513     1763.026        1.076        0.596       97.966       49.591        0.256      335.901        6.845      864.645
11/02/2014  10:46:00       79.364       60.157       56.733      102.299       75.627       59.429    10465.125     5719.409     3531.750        1.642        0.986       99.587       40.503        0.165      336.060        7.108      864.606
11/02/2014  10:47:00      113.847      137.480       77.198       89.376       74.989       75.958     7988.136     5623.378     5769.619        2.860        0.969      178.499       48.862        0.075      335.917        6.868      864.592
11/02/2014  10:48:00      124.793      134.914      -21.879      108.472       54.340       44.597    11766.073     2952.822     1988.915        2.548        0.835      183.780       30.984        0.028      335.525        6.215      864.616
11/02/2014  10:49:00      130.857      109.112       32.574      102.078       50.357       51.849    10419.924     2535.845     2688.289        2.286        0.782      170.379       46.848        0.076      335.596        6.333      864.588
11/02/2014  10:50:00      223.659      147.484       30.145       56.870       37.942       51.533     3234.239     1439.613     2655.612        4.000        0.366      267.908       19.964        0.006      335.443        6.076      864.592
11/02/2014  10:51:00       58.712       95.076        4.178       57.429       58.724       47.893     3298.056     3448.523     2293.726        1.077        0.452      111.743       33.383        0.089      335.637        6.404      864.586
11/02/2014  10:52:00       63.179       31.195       11.245       37.211       52.493       40.024     1384.630     2755.514     1601.884        0.542        0.287       70.460       26.748        0.144      336.085        7.151      864.592
11/02/2014  10:53:00       42.382       -3.333       45.921       57.514       72.035       41.206     3307.807     5188.974     1697.952        0.705        0.510       42.513       34.751        0.668      336.250        7.425      864.593
11/02/2014  10:54:00       61.132      -50.579       40.210       72.500       60.598       45.819     5256.304     3672.094     2099.425        0.947        0.551       79.343       39.394        0.247      336.150        7.259      864.591
11/02/2014  10:55:00       37.773      -26.875       -0.673       27.472       51.622       36.522      754.708     2664.862     1333.883        0.345        0.238       46.358       28.519        0.378      335.881        6.811      864.587
11/02/2014  10:56:00       62.393       33.418       43.574       47.091       34.005       38.948     2217.570     1156.309     1516.932        0.590        0.245       70.779       26.939        0.145      336.161        7.276      864.589
11/02/2014  10:57:00       59.238       29.527        6.887       35.767       49.396       34.612     1279.306     2439.952     1197.989        0.467        0.246       66.189       19.986        0.091      335.895        6.834      864.598
11/02/2014  10:58:00       14.984       75.840      -16.471       28.420       26.852       34.803      807.703      721.005     1211.217        0.449        0.137       77.306       21.698        0.079      335.878        6.806      864.591
11/02/2014  10:59:00      102.456       50.356       31.380       34.966       39.140       32.211     1222.620     1531.917     1037.553        0.890        0.190      114.162       12.215        0.011      335.996        7.002      864.601
11/02/2014  11:00:00      -60.890      135.798       -6.106       77.427       76.824       42.248     5994.864     5901.866     1784.853        1.793        0.684      148.824       36.793        0.061      336.312        7.528      864.595
11/02/2014  11:01:00      -83.141      170.630      -23.773       58.857       73.049       44.702     3464.098     5336.107     1998.299        2.369        0.540      189.808       43.951        0.054      335.838        6.737      864.624
11/02/2014  11:02:00      -91.219      163.281      -45.430       64.423       63.830       34.013     4150.371     4074.229     1156.898        2.321        0.469      187.034       29.126        0.024      335.451        6.091      864.610
11/02/2014  11:03:00      -13.972      163.708      -16.015       33.264       84.369       34.647     1106.500     7118.182     1200.445        1.834        0.471      164.303       42.135        0.066      335.766        6.617      864.611
11/02/2014  11:04:00        1.933      128.284       -2.783       48.751       55.329       36.619     2376.703     3061.287     1340.972        1.162        0.339      128.299       33.356        0.068      336.049        7.091      864.591
11/02/2014  11:05:00       -6.192      139.798      -17.077       43.216       45.495       34.351     1867.583     2069.830     1179.993        1.249        0.256      139.935       27.126        0.038      336.059        7.108      864.583
11/02/2014  11:06:00      -35.120      102.980       -2.535       62.954       61.642       43.618     3963.190     3799.790     1902.537        1.075        0.483      108.804       39.191        0.130      336.197        7.337      864.588
11/02/2014  11:07:00      -24.299      153.716      -12.075       44.284       77.356       36.821     1961.046     5984.001     1355.801        1.683        0.465      155.624       40.003        0.066      335.977        6.970      864.594
11/02/2014  11:08:00      -11.318      114.557       -8.940       37.937       53.366       33.893     1439.234     2847.953     1148.724        0.938        0.272      115.114       31.684        0.076      336.111        7.195      864.590
11/02/2014  11:09:00        6.012       94.059       -1.503       39.886       55.151       36.357     1590.930     3041.667     1321.862        0.742        0.298       94.251       36.101        0.147      336.248        7.424      864.583
11/02/2014  11:10:00      -25.933      102.558       -0.885       40.227       42.990       34.309     1618.193     1848.142     1177.088        0.792        0.232      105.786       29.861        0.080      336.110        7.194      864.598
11/02/2014  11:11:00       -2.873      190.188       -9.217       50.375      101.634       53.703     2537.616    10329.432     2883.962        2.600        0.788      190.210       62.752        0.109      335.689        6.487      864.586
11/02/2014  11:12:00       14.883      127.750      -14.239       36.284       59.825       34.614     1316.551     3579.029     1198.152        1.142        0.305      128.614       37.659        0.086      335.777        6.637      864.586
11/02/2014  11:13:00       68.003       53.469       11.421       46.028       33.285       26.004     2118.596     1107.905      676.199        0.576        0.195       86.506       11.669        0.018      335.888        6.823      864.555
11/02/2014  11:14:00      -11.552       27.440       48.378       21.397       31.745       28.870      457.846     1007.753      833.499        0.276        0.115       29.772       17.738        0.355      336.110        7.192      864.533
11/02/2014  11:15:00      -25.382       88.114      -15.769       52.161       87.162       30.256     2720.788     7597.236      915.448        0.994        0.562       91.697       38.345        0.175      335.749        6.588      864.522
11/02/2014  11:16:00      -41.232      111.164       -7.488       81.089       61.853       41.121     6575.427     3825.773     1690.923        1.310        0.605      118.565       43.201        0.133      335.729        6.555      864.520
11/02/2014  11:17:00      156.810       84.507       17.922       66.737       50.650       41.119     4453.795     2565.432     1690.786        2.038        0.436      178.132       27.178        0.023      335.637        6.402      864.495
11/02/2014  11:18:00      128.474       62.288        7.341       48.547       34.208       36.362     2356.842     1170.167     1322.169        1.264        0.242      142.777       24.506        0.029      335.618        6.371      864.492
11/02/2014  11:19:00       24.861       78.921       16.625       45.957       51.143       34.615     2112.014     2615.627     1198.201        0.652        0.296       82.744       26.666        0.104      335.938        6.904      864.486
11/02/2014  11:20:00       38.765       63.436        1.075       34.101       36.619       31.250     1162.851     1340.952      976.535        0.450        0.174       74.343       19.074        0.066      335.893        6.831      864.473
11/02/2014  11:21:00       25.951       58.235        4.306       34.846       41.359       37.522     1214.224     1710.581     1407.923        0.421        0.217       63.756       31.083        0.238      336.009        7.022      864.483
11/02/2014  11:22:00       76.958       68.804        1.914       38.383       30.435       25.894     1473.285      926.297      670.481        0.686        0.154      103.230       19.297        0.035      335.889        6.823      864.475
11/02/2014  11:23:00      136.405       73.150       18.371       74.243       33.068       39.082     5511.967     1093.482     1527.380        1.621        0.407      154.781       12.041        0.006      336.091        7.158      864.465
11/02/2014  11:24:00      101.601       54.553       28.235       75.322       55.100       41.389     5673.466     3036.046     1713.088        1.226        0.521      115.321       42.300        0.135      336.283        7.481      864.446
11/02/2014  11:25:00      205.548      139.777       26.471       75.507       53.503       65.707     5701.320     2862.532     4317.421        3.768        0.644      248.571       55.139        0.049      335.863        6.777      864.447
11/02/2014  11:26:00       89.150       98.858       49.335       89.249       53.676       59.165     7965.357     2881.111     3500.498        1.725        0.717      133.119       62.168        0.218      335.896        6.833      864.441
11/02/2014  11:27:00       34.101        4.050       54.941       60.674       65.490       47.335     3681.330     4289.001     2240.596        0.720        0.511       34.340       39.006        1.290      336.280        7.475      864.415
11/02/2014  11:28:00       79.914       89.306       47.929       61.077       51.034       52.489     3730.454     2604.514     2755.115        1.287        0.455      119.841       35.914        0.090      336.321        7.543      864.408
11/02/2014  11:29:00      145.548      104.781       30.354      120.961       65.949       43.699    14631.625     4349.240     1909.637        2.698        1.045      179.342       38.006        0.045      336.041        7.075      864.434
11/02/2014  11:30:00      179.067      131.024       20.175       63.002       51.867       43.445     3969.208     2690.214     1887.455        2.909        0.427      221.883       33.050        0.022      335.690        6.487      864.436
11/02/2014  11:31:00      129.103      103.503        0.123       54.055       53.903       37.651     2921.929     2905.508     1417.617        1.731        0.362      165.470       17.024        0.011      335.852        6.760      864.428
11/02/2014  11:32:00      119.852       90.241       14.490       58.204       43.576       36.388     3387.734     1898.882     1324.123        1.466        0.331      150.027       14.502        0.009      336.169        7.290      864.420
11/02/2014  11:33:00       62.304       70.170       36.843       73.444       58.347       55.596     5394.009     3404.326     3090.868        1.102        0.594       93.838       33.184        0.125      336.405        7.684      864.432
11/02/2014  11:34:00       53.931       67.420       59.503       48.210       38.279       32.792     2324.192     1465.266     1075.332        0.793        0.243       86.337       21.880        0.064      336.378        7.638      864.427
11/02/2014  11:35:00      -33.168       31.607       17.028       52.812       27.188       32.683     2789.078      739.186     1068.164        0.349        0.230       45.816       25.284        0.305      336.650        8.094      864.419
11/02/2014  11:36:00      -60.761       16.984        2.910       38.190       30.429       29.905     1458.460      925.919      894.327        0.363        0.164       63.090       26.904        0.182      336.674        8.133      864.422
11/02/2014  11:37:00      -30.136       16.471        5.804       37.522       33.095       28.226     1407.926     1095.257      796.684        0.226        0.165       34.343       19.361        0.318      336.513        7.865      864.439
11/02/2014  11:38:00      -10.967       75.473        2.717       29.155       66.750       33.304      850.024     4455.560     1109.123        0.612        0.321       76.266       37.990        0.248      336.289        7.493      864.447
11/02/2014  11:39:00      -51.016       51.411       -1.292       34.390       86.411       27.263     1182.690     7466.930      743.262        0.732        0.470       72.427       37.414        0.267      336.166        7.284      864.446
11/02/2014  11:40:00      -19.052       71.342       -0.004       37.322       52.871       29.816     1392.899     2795.347      889.018        0.526        0.254       73.842       26.938        0.133      336.623        8.048      864.439
11/02/2014  11:41:00       -7.036      168.635      -13.878       58.209      113.895       48.686     3388.331    12972.016     2370.333        2.370        0.937      168.782       65.261        0.150      336.127        7.220      864.420
11/02/2014  11:42:00      -26.056      187.054      -20.458       30.681       67.636       35.613      941.297     4574.680     1268.270        2.143        0.339      188.860       38.606        0.042      336.072        7.128      864.417
11/02/2014  11:43:00     -133.166       98.758      -15.094       82.922       91.956       45.591     6876.042     8455.948     2078.576        2.256        0.871      165.790       47.746        0.083      336.229        7.390      864.416
11/02/2014  11:44:00     -146.815       18.988      -29.525       71.886       67.568       34.536     5167.600     4565.385     1192.748        1.685        0.546      148.038       27.125        0.034      335.916        6.866      864.399
11/02/2014  11:45:00     -121.123       18.493      -16.977      101.414       59.433       37.193    10284.853     3532.325     1383.335        1.525        0.760      122.527       43.703        0.127      336.338        7.573      864.389
11/02/2014  11:46:00     -231.456      -42.753      -32.028       66.432       83.199       32.883     4413.244     6922.099     1081.307        3.442        0.621      235.371       22.056        0.009      336.012        7.023      864.376
11/02/2014  11:47:00     -221.540       12.071      -30.319       62.904       75.162       36.935     3956.889     5649.379     1364.181        3.056        0.549      221.869       22.102        0.010      336.015        7.030      864.360
11/02/2014  11:48:00     -149.863      -14.837      -28.328       52.202       46.704       21.690     2725.093     2181.259      470.457        1.443        0.269      150.595       22.628        0.023      335.762        6.611      864.365
11/02/2014  11:49:00      -29.262      -38.107       22.171       57.236       42.601       36.393     3275.980     1814.812     1324.446        0.461        0.321       48.046       39.759        0.685      336.403        7.682      864.332
11/02/2014  11:50:00        0.757       11.396       17.557       20.769       19.980       25.622      431.347      399.194      656.480        0.096        0.074       11.421       13.939        1.490      336.420        7.710      864.321
11/02/2014  11:51:00       13.685      138.575       -7.972       59.846      125.083       42.568     3581.587    15645.758     1812.028        2.024        1.052      139.249       56.533        0.165      336.226        7.385      864.325
11/02/2014  11:52:00       47.034      188.903      -26.887       61.523       78.444       47.296     3785.054     6153.500     2236.955        2.539        0.609      194.670       43.421        0.050      335.780        6.640      864.319
11/02/2014  11:53:00       19.407       52.753      -27.476       45.069       34.623       19.760     2031.183     1198.775      390.457        0.377        0.181       56.210        8.150        0.021      335.831        6.727      864.290
11/02/2014  11:54:00       56.999       86.550       18.898       58.299       71.262       56.316     3398.771     5078.293     3171.515        1.137        0.582      103.633       49.218        0.226      336.081        7.143      864.271
11/02/2014  11:55:00      105.713      150.824       16.868       87.734      113.870       88.973     7697.257    12966.357     7916.237        3.139        1.429      184.182       73.395        0.159      336.064        7.113      864.258
11/02/2014  11:56:00       80.857      138.890        9.384       72.913      102.829       67.178     5316.286    10573.724     4512.857        2.316        1.020      160.712       59.870        0.139      336.148        7.253      864.253
11/02/2014  11:57:00       26.221      140.312       -0.979       63.552       87.073       54.037     4038.796     7581.682     2920.009        1.746        0.727      142.741       51.396        0.130      336.246        7.416      864.240
11/02/2014  11:58:00       40.378       91.155       19.700       88.382       85.698       56.213     7811.443     7344.078     3159.905        1.432        0.916       99.698       46.714        0.220      336.351        7.594      864.224
11/02/2014  11:59:00      192.657       89.077       23.440      117.926       81.410       66.572    13906.519     6627.532     4431.769        3.528        1.248      212.253       38.285        0.033      336.218        7.370      864.191
11/02/2014  12:00:00      248.769      128.763       17.540       75.196       60.909       55.082     5654.471     3709.846     3034.018        4.558        0.620      280.118       34.840        0.015      335.692        6.490      864.181
11/02/2014  12:01:00       47.827      -13.490      -17.958       63.085       67.909       25.186     3979.739     4611.613      634.329        0.601        0.461       49.693       32.931        0.439      335.715        6.534      864.169
11/02/2014  12:02:00       15.137       -1.808       23.280       40.379       61.248       40.404     1630.464     3751.266     1632.471        0.389        0.351       15.244       31.707        4.326      335.971        6.959      864.115
11/02/2014  12:03:00       83.446       84.408        4.438       59.332       44.423       36.013     3520.246     1973.405     1296.915        1.045        0.340      118.693       27.744        0.055      335.985        6.983      864.121
11/02/2014  12:04:00      158.252      120.706       20.489       86.579       65.956       43.492     7495.879     4350.247     1891.519        2.688        0.687      199.032       19.477        0.010      335.915        6.864      864.105
11/02/2014  12:05:00      192.094      125.469       22.274       70.443       50.486       46.706     4962.260     2548.793     2181.487        3.141        0.485      229.440       34.431        0.023      335.899        6.836      864.103
11/02/2014  12:06:00       69.590      175.722       -9.300       72.556      112.858       51.628     5264.443    12736.933     2665.459        2.823        1.033      189.000       61.082        0.104      335.936        6.899      864.115
11/02/2014  12:07:00       27.729      148.619      -12.308       55.218       88.827       42.170     3049.044     7890.224     1778.337        1.786        0.636      151.184       42.349        0.078      335.839        6.739      864.121
11/02/2014  12:08:00       80.944      155.522      -24.020       44.606       76.837       48.233     1989.668     5903.993     2326.431        2.077        0.511      175.326       45.437        0.067      335.806        6.683      864.112
11/02/2014  12:09:00       35.800       85.611       -7.521       30.633       57.168       46.147      938.363     3268.217     2129.569        0.750        0.317       92.795       25.865        0.078      335.889        6.823      864.098
11/02/2014  12:10:00      -16.642       41.301        5.520       27.224       38.193       19.752      741.141     1458.736      390.125        0.230        0.130       44.528        7.663        0.030      336.386        7.653      864.085
11/02/2014  12:11:00      -20.117       49.412      -24.765       53.893       40.488       31.068     2904.490     1639.285      965.207        0.448        0.275       53.350       29.975        0.316      336.108        7.190      864.092
11/02/2014  12:12:00        7.016      115.985      -23.246       45.435       61.762       24.035     2064.330     3814.523      577.678        1.025        0.323      116.197       23.448        0.041      336.024        7.048      864.092
11/02/2014  12:13:00      -11.875      100.950      -19.646       29.829       44.994       25.435      889.742     2024.481      646.941        0.714        0.178      101.646       17.746        0.030      335.935        6.901      864.093
11/02/2014  12:14:00       34.508      -15.138       -2.027       21.485       36.407       27.815      461.589     1325.479      773.687        0.199        0.128       37.682       21.502        0.326      336.264        7.450      864.088
11/02/2014  12:15:00       37.875       75.780       15.922       27.501       38.075       33.304      756.314     1449.699     1109.171        0.537        0.166       84.718       25.930        0.094      336.278        7.473      864.082
11/02/2014  12:16:00      -10.429      153.813        0.572       38.776       78.951       39.947     1503.580     6233.316     1595.793        1.655        0.467      154.166       42.946        0.078      336.230        7.391      864.086
11/02/2014  12:17:00      -74.247      185.756      -32.095       45.290       41.273       29.393     2051.207     1703.445      863.938        2.283        0.231      200.045       23.329        0.014      336.044        7.080      864.086
11/02/2014  12:18:00     -129.510       83.058      -35.215       37.164       68.737       26.488     1381.159     4724.757      701.622        1.586        0.340      153.855       31.399        0.042      335.937        6.904      864.086
11/02/2014  12:19:00       -3.994       51.548        3.432       57.397       37.788       38.085     3294.373     1427.966     1450.476        0.443        0.309       51.702       24.669        0.228      336.434        7.734      864.081
11/02/2014  12:20:00      -72.237       85.737      -23.177       63.506       52.059       35.209     4032.956     2710.132     1239.690        1.054        0.399      112.112       25.038        0.050      336.373        7.631      864.086
11/02/2014  12:21:00      -13.687      156.255      -10.091       47.611       67.985       47.618     2266.782     4621.905     2267.467        1.693        0.458      156.854       39.691        0.064      336.300        7.509      864.078
11/02/2014  12:22:00     -110.677      164.700      -10.727       63.509       77.830       48.473     4033.419     6057.523     2349.647        2.596        0.622      198.433       41.346        0.043      336.498        7.838      864.068
11/02/2014  12:23:00      -47.035      173.920      -17.701       33.768       72.718       36.867     1140.293     5287.956     1359.159        2.028        0.389      180.168       31.316        0.030      336.126        7.217      864.072
11/02/2014  12:24:00        0.608      103.224        0.867       43.377      104.889       41.267     1881.606    11001.785     1702.986        1.262        0.729      103.226       42.464        0.169      336.271        7.460      864.054
11/02/2014  12:25:00       17.617       93.428       -2.891       46.500       55.269       36.973     2162.252     3054.647     1366.992        0.781        0.329       95.075       33.701        0.126      336.419        7.709      864.024
11/02/2014  12:26:00       12.494      112.518      -14.994       39.223       49.497       34.094     1538.435     2449.909     1162.373        0.909        0.258      113.209       31.418        0.077      336.311        7.527      864.019
11/02/2014  12:27:00      -91.968      178.503      -16.186       64.110      105.240       47.541     4110.109    11075.531     2260.189        2.901        0.872      200.802       40.074        0.040      336.585        7.984      864.044
11/02/2014  12:28:00      -73.798      115.433       -6.983       65.242       80.663       38.417     4256.520     6506.519     1475.877        1.553        0.612      137.007       41.841        0.093      336.830        8.394      864.049
11/02/2014  12:29:00      -91.830      124.241      -12.946       71.115       81.984       39.754     5057.292     6721.366     1580.390        1.869        0.668      154.495       23.475        0.023      336.809        8.358      864.047
11/02/2014  12:30:00     -189.084      133.564      -34.060       69.649       58.032       37.095     4850.960     3367.730     1376.011        3.217        0.480      231.500       32.530        0.020      336.512        7.859      864.058
11/02/2014  12:31:00      -18.456       81.893        3.575       47.674       69.953       40.347     2272.815     4893.483     1627.864        0.793        0.440       83.947       31.420        0.140      336.919        8.542      864.066
11/02/2014  12:32:00      -71.828      193.467      -13.486       52.478       62.557       43.417     2753.988     3913.364     1884.999        2.566        0.428      206.370       30.974        0.023      336.335        7.566      864.070
11/02/2014  12:33:00      -23.265       98.657       -6.950       57.625       52.976       39.543     3320.690     2806.507     1563.665        0.901        0.385      101.363       38.602        0.145      336.456        7.772      864.071
11/02/2014  12:34:00       88.897      102.344      -10.426       57.686       60.503       33.274     3327.636     3660.637     1107.149        1.329        0.405      135.562       34.976        0.067      336.091        7.160      864.057
11/02/2014  12:35:00      124.911       86.081        8.657       59.466       46.189       34.323     3536.174     2133.382     1178.076        1.497        0.342      151.699       25.497        0.028      336.181        7.310      864.008
11/02/2014  12:36:00       52.361       56.857        9.334       70.206       54.649       37.191     4928.842     2986.545     1383.206        0.768        0.465       77.295       27.100        0.123      336.602        8.015      864.003
11/02/2014  12:37:00       55.505       44.861       -5.873       67.060       45.855       40.242     4497.046     2102.687     1619.453        0.667        0.411       71.367       20.035        0.079      336.581        7.979      864.000
11/02/2014  12:38:00       53.008       36.025       20.723       48.844       46.985       41.434     2385.728     2207.545     1716.792        0.542        0.316       64.091       16.826        0.069      336.508        7.858      863.997
11/02/2014  12:39:00      -60.143       46.461      -28.102       41.190       30.418       27.081     1696.634      925.252      733.389        0.496        0.168       75.999       21.478        0.080      336.519        7.876      864.005
11/02/2014  12:40:00     -133.667      -41.056       -1.312      135.441      110.003       38.411    18344.338    12100.762     1475.388        2.573        1.596      139.830       49.339        0.125      336.453        7.764      863.992
11/02/2014  12:41:00     -148.167      -94.356       -5.762      105.097       76.814       44.525    11045.286     5900.331     1982.508        2.491        0.946      175.660       52.350        0.089      336.404        7.681      863.991
11/02/2014  12:42:00      -25.783      -35.121        7.013       63.451       58.692       42.846     4026.018     3444.741     1835.747        0.563        0.465       43.569       39.851        0.837      336.855        8.438      863.996
11/02/2014  12:43:00      -49.632     -137.358       -6.042       63.167       52.823       39.767     3990.063     2790.297     1581.428        1.486        0.418      146.050       33.382        0.052      336.303        7.513      864.002
11/02/2014  12:44:00      -41.331      -47.336        4.883       44.611       48.919       27.929     1990.125     2393.028      780.017        0.457        0.258       62.841       26.095        0.172      336.541        7.912      863.998
11/02/2014  12:45:00      -55.317       -0.117       -2.217       22.353       32.796       23.474      499.638     1075.563      551.016        0.260        0.106       55.317       19.430        0.123      336.547        7.922      863.996
11/02/2014  12:46:00      -27.798       15.639        9.518       34.241       36.709       26.030     1172.438     1347.577      677.572        0.215        0.160       31.896       23.362        0.536      337.106        8.857      863.981
11/02/2014  12:47:00        2.762      132.613      -13.911       36.303       43.197       27.034     1317.883     1865.949      730.835        1.085        0.196      132.642       23.561        0.032      336.371        7.628      863.987
11/02/2014  12:48:00      -38.162       84.669       -8.823       28.160       56.940       26.725      792.987     3242.107      714.205        0.673        0.237       92.871       32.133        0.120      336.685        8.153      864.007
11/02/2014  12:49:00     -108.546       58.638      -23.229       55.215       49.104       39.443     3048.717     2411.221     1555.763        1.139        0.351      123.373       34.332        0.077      336.788        8.325      863.996
11/02/2014  12:50:00     -169.443      -53.540        1.913       96.064       62.834       41.200     9228.252     3948.118     1697.445        2.322        0.744      177.700       40.342        0.052      336.561        7.944      863.972
11/02/2014  12:51:00     -142.034      -13.646      -25.377       80.198       70.266       39.903     6431.657     4937.336     1592.234        1.698        0.648      142.688       30.491        0.046      336.611        8.028      863.958
11/02/2014  12:52:00      -71.703       84.306        2.529       70.095       73.413       50.201     4913.284     5389.481     2520.161        1.254        0.641      110.675       47.200        0.182      337.110        8.863      863.972
11/02/2014  12:53:00      -36.449       54.027      -11.747       56.160       43.640       39.261     3153.954     1904.415     1541.441        0.549        0.330       65.172       18.395        0.080      337.145        8.923      863.969
11/02/2014  12:54:00        2.272      127.083        6.732       34.619       84.472       47.471     1198.507     7135.491     2253.491        1.339        0.529      127.103       51.084        0.162      336.761        8.278      863.957
11/02/2014  12:55:00      -75.644      246.178      -30.044       51.612       68.791       36.569     2663.778     4732.256     1337.256        3.798        0.437      257.538       35.138        0.019      336.307        7.516      863.973
11/02/2014  12:56:00      -55.326      138.586       -8.910       46.295       60.464       38.810     2143.260     3655.902     1506.213        1.482        0.365      149.221       33.223        0.050      336.575        7.968      863.976
11/02/2014  12:57:00      -36.568       76.425        5.425       38.294       53.538       32.745     1466.447     2866.339     1072.207        0.631        0.270       84.723       31.503        0.138      336.906        8.522      863.978
11/02/2014  12:58:00      -52.565      105.400      -18.419       26.973       43.544       22.525      727.518     1896.121      507.377        0.867        0.157      117.780       11.980        0.010      336.312        7.527      863.967
11/02/2014  12:59:00       24.382        0.976       12.714       19.501       16.697       19.249      380.298      278.780      370.524        0.089        0.051       24.401       15.666        0.412      336.526        7.887      863.952
11/02/2014  13:00:00       42.727       32.041        1.033       14.406       14.121       17.966      207.521      199.391      322.782        0.179        0.036       53.406        7.247        0.018      336.259        7.441      863.940
11/02/2014  13:01:00      -12.972      215.935      -29.410       48.206      105.014       32.219     2323.796    11027.972     1038.069        3.102        0.719      216.324       33.174        0.024      336.434        7.731      863.940
11/02/2014  13:02:00      -80.306      220.455      -24.542       37.184       81.875       34.929     1382.671     6703.446     1220.007        3.248        0.465      234.626       33.014        0.020      336.511        7.860      863.944
11/02/2014  13:03:00      -63.449      115.160      -10.608       59.941       83.168       41.296     3592.921     6916.956     1705.386        1.481        0.611      131.483       46.278        0.124      336.788        8.323      863.916
11/02/2014  13:04:00       -3.326       64.028       29.510       82.479       45.828       43.213     6802.706     2100.217     1867.356        0.787        0.539       64.114       34.412        0.288      336.945        8.586      863.906
11/02/2014  13:05:00      120.206       54.240       39.828       66.779       69.483       50.191     4459.409     4827.868     2519.116        1.539        0.590      131.877       40.283        0.093      336.761        8.279      863.898
11/02/2014  13:06:00      144.883       88.633       38.567      104.141       61.957       55.549    10845.420     3838.643     3085.714        2.405        0.888      169.844       40.949        0.058      336.992        8.664      863.890
11/02/2014  13:07:00      128.400      141.263        0.920       86.589       62.754       45.866     7497.679     3938.037     2103.716        2.499        0.677      190.898       34.792        0.033      336.744        8.250      863.915
11/02/2014  13:08:00       87.893       27.386       27.473       91.908      118.956       48.640     8446.991    14150.557     2365.824        1.709        1.248       92.060       36.812        0.160      336.964        8.618      863.902
11/02/2014  13:09:00      137.836       81.589       28.602       68.809       51.339       50.340     4734.624     2635.713     2534.109        1.819        0.495      160.173       20.731        0.017      336.780        8.309      863.905
11/02/2014  13:10:00       43.765       95.370       79.684       86.983       75.438       52.677     7566.092     5690.838     2774.850        1.669        0.802      104.933       39.173        0.139      336.826        8.388      863.896
11/02/2014  13:11:00       67.894      144.890      -14.319       48.150       74.724       50.422     2318.450     5583.707     2542.335        1.812        0.522      160.008       45.347        0.080      336.353        7.598      863.899
11/02/2014  13:12:00       49.336       83.069       12.857       50.784       66.343       55.269     2578.987     4401.339     3054.647        0.977        0.502       96.616       43.791        0.205      336.527        7.889      863.888
11/02/2014  13:13:00       38.439       10.869        3.111       37.890       29.010       21.600     1435.625      841.567      466.551        0.217        0.137       39.946        7.160        0.032      336.928        8.560      863.892
11/02/2014  13:14:00       16.732      -51.697       22.203       74.738       60.704       42.513     5585.762     3684.997     1807.315        0.726        0.554       54.337       23.837        0.192      337.059        8.779      863.873
11/02/2014  13:15:00       48.148       25.686       27.607       34.530       45.028       31.156     1192.318     2027.515      970.667        0.396        0.210       54.571       14.585        0.071      337.111        8.865      863.882
11/02/2014  13:16:00       16.573       61.625        5.136       42.211       46.168       28.183     1781.726     2131.523      794.266        0.440        0.235       63.814       15.899        0.062      337.192        9.000      863.904
11/02/2014  13:17:00       33.171       85.443        5.151       72.838       78.323       49.497     5305.335     6134.558     2449.985        1.116        0.694       91.656       47.504        0.269      336.974        8.635      863.899
11/02/2014  13:18:00     -110.279       73.389      -14.091      100.879       74.236       37.640    10176.597     5510.997     1416.756        1.742        0.855      132.467       29.475        0.050      337.086        8.823      863.899
11/02/2014  13:19:00     -246.373      -44.124      -27.251       90.040       85.151       42.237     8107.208     7250.640     1783.950        4.026        0.857      250.293       47.905        0.037      336.521        7.874      863.893
11/02/2014  13:20:00     -170.435      -12.912      -14.098       96.162       75.781       45.218     9247.220     5742.718     2044.656        2.322        0.852      170.923       40.739        0.057      336.605        8.017      863.889
11/02/2014  13:21:00     -141.194       12.338       -6.094       71.078       68.878       43.347     5052.127     4744.142     1878.962        1.590        0.584      141.732       43.650        0.095      336.810        8.360      863.873
11/02/2014  13:22:00      -48.481      -31.671        8.341       94.613       54.909       46.378     8951.608     3015.035     2150.958        0.877        0.706       57.909       45.431        0.615      336.709        8.193      863.854
11/02/2014  13:23:00       -4.009       83.983        7.905       48.399       69.189       37.847     2342.502     4787.187     1432.385        0.785        0.428       84.079       38.054        0.205      336.981        8.649      863.823
11/02/2014  13:24:00       40.076       38.176       32.630       28.571       22.348       31.654      816.310      499.426     1001.960        0.322        0.116       55.349       22.851        0.170      336.597        8.006      863.790
11/02/2014  13:25:00        6.924      -16.468       -7.773       25.530       30.719       20.474      651.776      943.678      419.181        0.120        0.101       17.864       10.777        0.364      336.920        8.544      863.771
11/02/2014  13:26:00        1.729      -79.582        1.532       35.097       26.045       27.333     1231.785      678.343      747.084        0.450        0.133       79.601        9.526        0.014      336.607        8.021      863.737
11/02/2014  13:27:00       -9.584      -53.370       -5.718       25.549       24.144       22.492      652.758      582.929      505.899        0.236        0.087       54.223       11.920        0.048      336.983        8.650      863.708
11/02/2014  13:28:00      -41.117      -37.790        5.329       34.757       31.911       23.292     1208.053     1018.334      542.527        0.296        0.138       55.846       20.605        0.136      337.346        9.258      863.709
11/02/2014  13:29:00     -104.784      -65.601        3.524      105.255       87.604       36.951    11078.587     7674.488     1365.365        1.770        1.006      123.625       36.015        0.085      336.922        8.548      863.713
11/02/2014  13:30:00     -177.520      -66.081       -5.239       80.118       79.258       37.921     6418.926     6281.870     1438.024        2.502        0.707      189.420       38.544        0.041      336.810        8.359      863.712
11/02/2014  13:31:00     -166.338      -69.397      -15.343       54.655       46.654       30.945     2987.173     2176.618      957.612        1.942        0.306      180.234       35.037        0.038      336.444        7.748      863.709
11/02/2014  13:32:00      -60.991       -0.005       10.571       42.889       35.259       26.461     1839.482     1243.205      700.179        0.381        0.189       60.991       29.904        0.240      336.698        8.175      863.704
11/02/2014  13:33:00       44.336       71.892       -6.986       31.035       40.030       31.399      963.169     1602.435      985.921        0.537        0.178       84.464       26.999        0.102      336.564        7.951      863.671
11/02/2014  13:34:00       18.239       46.611       57.127       41.851       21.618       30.037     1751.469      467.342      902.219        0.444        0.156       50.052       11.691        0.055      336.586        7.987      863.645
11/02/2014  13:35:00      -53.757       43.809        2.119       49.533       61.830       28.198     2453.484     3822.961      795.130        0.594        0.354       69.347       26.454        0.146      336.913        8.533      863.658
11/02/2014  13:36:00     -193.111       17.223      -19.389       79.611       61.771       31.308     6337.887     3815.708      980.222        2.455        0.557      193.877       24.592        0.016      336.528        7.887      863.649
11/02/2014  13:37:00      -58.301       -4.985       -3.564       31.922       35.769       25.463     1019.013     1279.437      648.374        0.319        0.147       58.513       19.957        0.116      336.629        8.059      863.611
11/02/2014  13:38:00     -152.145      103.705      -22.887       76.223       71.583       44.764     5809.941     5124.135     2003.854        2.368        0.647      184.127       32.253        0.031      336.847        8.421      863.607
11/02/2014  13:39:00        1.871      126.428        3.352       80.704       97.663       56.075     6513.150     9538.101     3144.429        1.759        0.960      126.442       55.212        0.191      337.012        8.698      863.611
11/02/2014  13:40:00       29.760       71.779       20.859       57.028       85.281       48.086     3252.160     7272.903     2312.248        0.965        0.642       77.704       51.838        0.445      337.129        8.895      863.591
11/02/2014  13:41:00      123.600       90.693       36.829       91.546       54.400       52.073     8380.629     2959.349     2711.590        1.945        0.703      153.304       32.672        0.045      336.775        8.302      863.585
11/02/2014  13:42:00       96.324       54.041       13.688       89.864       65.948       52.493     8075.544     4349.189     2755.567        1.378        0.759      110.448       32.012        0.084      336.951        8.598      863.582
11/02/2014  13:43:00       45.058       94.476        7.563       90.147       90.135       40.770     8126.431     8124.282     1662.196        1.446        0.896      104.671       41.949        0.161      337.004        8.685      863.606
11/02/2014  13:44:00      117.094       93.531        7.272       70.079       78.013       60.291     4911.073     6085.996     3635.022        1.857        0.732      149.863       47.976        0.102      336.765        8.286      863.617
11/02/2014  13:45:00       53.427      133.961        1.168       76.004      102.119       62.960     5776.625    10428.292     3963.932        2.048        1.008      144.221       68.956        0.229      336.895        8.503      863.626
11/02/2014  13:46:00      171.617      130.738       10.543       94.417       60.963       56.293     8914.589     3716.496     3168.877        3.122        0.790      215.742       33.882        0.025      336.617        8.034      863.637
11/02/2014  13:47:00       39.119      138.092      -17.743       53.885       80.705       44.904     2903.613     6513.263     2016.369        1.617        0.572      143.525       42.323        0.087      336.615        8.034      863.671
11/02/2014  13:48:00      -23.212       19.044        7.045       24.598       18.625       27.322      605.038      346.899      746.480        0.132        0.085       30.024       18.532        0.381      336.873        8.468      863.676
11/02/2014  13:49:00       38.412       43.393       -5.816       35.573       15.157       27.201     1265.410      229.721      739.915        0.281        0.112       57.952       13.356        0.053      336.685        8.154      863.666
11/02/2014  13:50:00       22.854       10.902      -20.852       31.052       44.216       18.236      964.258     1955.015      332.569        0.216        0.163       25.322       16.420        0.421      336.901        8.515      863.660
11/02/2014  13:51:00       -6.508      -26.910       18.503       30.049       58.259       28.874      902.969     3394.081      833.712        0.312        0.257       27.686       16.196        0.342      337.233        9.069      863.661
11/02/2014  13:52:00       -6.890      122.324      -14.499       41.675       90.225       31.896     1736.831     8140.601     1017.342        1.306        0.545      122.518       43.917        0.128      336.659        8.107      863.680
11/02/2014  13:53:00      -29.008      180.337      -18.869       32.290       47.434       25.625     1042.650     2249.987      656.620        1.883        0.197      182.655       17.260        0.009      336.768        8.290      863.683
11/02/2014  13:54:00        5.539       58.703      -10.467       49.834       31.543       23.926     2483.454      994.938      572.473        0.382        0.203       58.964       26.210        0.198      336.916        8.540      863.675
11/02/2014  13:55:00      119.998      104.481       46.175      112.261       67.783       66.032    12602.557     4594.510     4360.222        2.450        1.078      159.110       27.546        0.030      337.094        8.834      863.643
11/02/2014  13:56:00      217.653      154.008        2.863       50.321       42.427       52.244     2532.163     1800.062     2729.435        3.908        0.353      266.629       16.746        0.004      336.554        7.928      863.639
11/02/2014  13:57:00      155.776      102.103       34.267       50.202       43.488       37.972     2520.231     1891.222     1441.863        2.086        0.293      186.256       29.170        0.025      336.674        8.133      863.644
11/02/2014  13:58:00       50.774       21.143      -22.925       60.902       60.385       18.484     3708.999     3646.361      341.644        0.562        0.385       55.000       27.303        0.246      336.404        7.682      863.649
11/02/2014  13:59:00      -74.454      -47.565      -13.438       31.420       29.629       22.578      987.202      877.856      509.752        0.518        0.119       88.350       11.388        0.017      336.665        8.120      863.635
11/02/2014  14:00:00      -39.643       25.947       39.393       33.418       18.884       17.743     1116.754      356.606      314.806        0.279        0.089       47.379       15.593        0.108      337.027        8.725      863.625
11/02/2014  14:01:00       23.211       32.817       48.212       28.939       38.052       21.065      837.491     1447.950      443.728        0.333        0.136       40.196       19.324        0.231      336.978        8.643      863.619
11/02/2014  14:02:00       99.023       70.272       43.516       59.557       35.930       44.991     3546.992     1290.930     2024.214        1.175        0.343      121.424       39.328        0.105      336.742        8.248      863.616
11/02/2014  14:03:00       99.805       55.897       17.116       32.503       46.544       27.536     1056.431     2166.366      758.207        0.868        0.199      114.392       20.668        0.033      336.518        7.874      863.606
11/02/2014  14:04:00      141.870       95.432       32.048       82.746       70.332       54.370     6846.889     4946.553     2956.115        2.250        0.737      170.981       41.115        0.058      336.694        8.164      863.597
11/02/2014  14:05:00      266.218      168.717       35.055       56.821       53.318       43.628     3228.597     2842.808     1903.428        5.427        0.399      315.178       20.339        0.004      336.565        7.949      863.591
11/02/2014  14:06:00      103.929       63.581       35.171       98.947       66.747       56.994     9790.588     4455.119     3248.353        1.678        0.875      121.835       39.661        0.106      336.939        8.576      863.587
11/02/2014  14:07:00      196.292      123.653       44.188      112.829       62.994       73.588    12730.300     3968.306     5415.141        3.894        1.106      231.992       61.840        0.071      336.884        8.481      863.592
11/02/2014  14:08:00      232.903      162.853       25.337       89.663       67.737       61.691     8039.397     4588.285     3805.766        4.892        0.822      284.192       32.192        0.013      336.776        8.301      863.601
11/02/2014  14:09:00      213.702      134.526       26.112       64.976       63.325       48.832     4221.865     4009.998     2384.588        3.753        0.531      252.518       24.331        0.009      336.933        8.563      863.605
11/02/2014  14:10:00       38.341       79.417        4.265       54.328       58.196       46.378     2951.578     3386.796     2150.963        0.814        0.424       88.188       37.583        0.182      336.885        8.486      863.607
11/02/2014  14:11:00       82.184       98.280       62.199       68.095       49.866       48.031     4636.961     2486.644     2306.961        1.485        0.472      128.114       34.700        0.073      337.039        8.745      863.588
11/02/2014  14:12:00       85.081      148.069      129.855       59.078       66.818       53.073     3490.267     4464.676     2816.696        2.840        0.539      170.773       47.514        0.077      336.806        8.351      863.577
11/02/2014  14:13:00       88.499       77.510       94.102       82.008       68.313       55.791     6725.319     4666.688     3112.617        1.860        0.725      117.643       53.162        0.204      336.850        8.427      863.574
11/02/2014  14:14:00       74.835       50.745       61.509       59.089       49.764       38.301     3491.451     2476.492     1466.976        0.970        0.372       90.417       34.032        0.142      336.868        8.459      863.575
11/02/2014  14:15:00       71.132       86.347       77.615       81.491       60.601       71.011     6640.739     3672.461     5042.523        1.694        0.768      111.873       60.023        0.288      336.943        8.581      863.574
11/02/2014  14:16:00      140.624      112.586       30.235       48.526       40.128       45.545     2354.797     1610.244     2074.384        1.970        0.302      180.141       13.357        0.005      336.760        8.278      863.597
11/02/2014  14:17:00      130.474       81.984        7.262       84.441       70.687       52.636     7130.228     4996.624     2770.579        1.934        0.745      154.094       23.184        0.023      337.129        8.893      863.620
11/02/2014  14:18:00       53.483      236.173      -26.081       62.465      139.352       60.779     3901.904    19418.940     3694.105        4.316        1.351      242.153       71.723        0.088      336.864        8.450      863.640
11/02/2014  14:19:00       82.288      126.643        3.150       79.264       62.873       54.951     6282.791     3953.019     3019.599        1.803        0.663      151.029       30.125        0.040      337.006        8.688      863.665
11/02/2014  14:20:00      142.979      123.019       30.221       84.788       62.882       71.149     7189.078     3954.086     5062.144        2.634        0.810      188.618       47.302        0.063      336.886        8.486      863.681
11/02/2014  14:21:00      175.461      124.508       17.961      122.616       80.247       66.620    15034.639     6439.560     4438.174        3.626        1.296      215.149       32.407        0.023      336.704        8.181      863.700
11/02/2014  14:22:00      -46.513      241.958      -33.934       68.445       61.344       34.546     4684.741     3763.069     1193.449        3.575        0.482      246.389       27.511        0.012      336.756        8.269      863.748
11/02/2014  14:23:00      -59.422      229.677      -30.197       35.419       52.940       23.810     1254.508     2802.630      566.923        3.091        0.231      237.239       23.011        0.009      336.582        7.977      863.758
11/02/2014  14:24:00       -7.500      206.850      -37.230       29.428       45.290       17.461      865.988     2051.187      304.885        2.372        0.161      206.986       18.550        0.008      336.634        8.067      863.756
11/02/2014  14:25:00      -15.334      116.283      -14.937       33.275       60.080       41.374     1107.194     3609.627     1711.833        1.020        0.321      117.289       35.860        0.093      336.849        8.427      863.742
11/02/2014  14:26:00       54.582       74.989       10.570       46.775       31.136       32.677     2187.921      969.465     1067.801        0.647        0.211       92.750       20.857        0.051      336.885        8.488      863.732
11/02/2014  14:27:00      152.755      114.447       58.558      110.769       56.812       50.438    12269.676     3227.573     2543.983        2.895        0.902      190.872       45.253        0.056      337.014        8.701      863.723
11/02/2014  14:28:00      141.984       87.729       38.511       95.385       58.520       57.490     9098.319     3424.604     3305.058        2.258        0.791      166.901       37.122        0.049      337.025        8.717      863.713
11/02/2014  14:29:00      114.697       77.053       45.819       74.312       62.471       54.801     5522.289     3902.667     3003.169        1.681        0.621      138.176       47.237        0.117      337.019        8.709      863.730
11/02/2014  14:30:00       33.003       36.440       59.331       82.286       60.380       39.733     6771.062     3645.789     1578.719        0.896        0.600       49.164       36.069        0.538      337.287        9.159      863.727
11/02/2014  14:31:00       63.293       65.227       46.677       69.105       49.287       45.278     4775.458     2429.253     2050.101        0.985        0.463       90.888       39.710        0.191      337.147        8.924      863.747
11/02/2014  14:32:00       99.838       58.922       48.844       64.226       54.854       50.513     4124.920     3008.923     2551.551        1.275        0.484      115.928       48.629        0.176      336.924        8.552      863.758
11/02/2014  14:33:00       13.563       35.426       31.587       41.131       33.921       32.126     1691.764     1150.643     1032.057        0.315        0.194       37.933       22.124        0.340      337.058        8.776      863.758
11/02/2014  14:34:00       83.569       97.193       95.026       90.356       67.559       51.193     8164.197     4564.243     2620.740        2.040        0.767      128.181       52.707        0.169      336.905        8.518      863.753
11/02/2014  14:35:00       60.350       45.201       69.125       56.729       62.649       43.271     3218.167     3924.847     1872.366        0.974        0.451       75.401       46.651        0.383      336.856        8.439      863.766
11/02/2014  14:36:00      103.648       84.390       49.992       64.556       51.981       52.056     4167.443     2702.073     2709.876        1.497        0.479      133.658       44.480        0.111      336.778        8.308      863.770
11/02/2014  14:37:00       78.602       52.977      -13.086       60.184       42.103       16.101     3622.162     1772.695      259.247        0.740        0.283       94.788        7.459        0.006      336.812        8.365      863.783
11/02/2014  14:38:00       41.346      138.738      -14.213       43.004       46.823       30.444     1849.325     2192.354      926.810        1.306        0.248      144.768       22.666        0.025      336.857        8.439      863.802
11/02/2014  14:39:00       21.411      111.147      -16.515       23.333       29.072       22.563      544.447      845.200      509.109        0.749        0.095      113.191       14.663        0.017      336.745        8.254      863.832
11/02/2014  14:40:00      -35.705       46.173      -26.395       20.574       46.110       11.778      423.288     2126.162      138.714        0.340        0.134       58.368       10.602        0.033      336.708        8.191      863.866
11/02/2014  14:41:00       19.615       34.304        1.868       16.043       25.946       18.512      257.369      673.203      342.707        0.142        0.064       39.516       12.561        0.101      336.853        8.433      863.882
11/02/2014  14:42:00       35.715       51.082       -4.428       71.116       25.267       31.993     5057.503      638.398     1023.530        0.531        0.336       62.329       34.442        0.305      336.996        8.671      863.896
11/02/2014  14:43:00        7.792      133.833      -23.826       31.508       63.788       18.162      992.772     4068.897      329.854        1.196        0.270      134.059       23.009        0.029      337.040        8.745      863.904
11/02/2014  14:44:00      -18.110      213.540      -34.703       45.433       48.033       26.275     2064.130     2307.197      690.382        2.610        0.253      214.306       23.000        0.012      336.968        8.622      863.907
11/02/2014  14:45:00       32.029       92.628        6.606       70.334       93.639       39.522     4946.932     8768.262     1562.015        1.246        0.764       98.010       49.450        0.255      337.217        9.042      863.907
11/02/2014  14:46:00       65.684       35.024        5.746       59.650       32.829       35.710     3558.104     1077.736     1275.187        0.574        0.296       74.438       28.969        0.151      337.218        9.043      863.908
11/02/2014  14:47:00       56.178       83.622        7.169       56.984       53.855       39.902     3247.184     2900.387     1592.147        0.897        0.387      100.740       30.051        0.089      336.951        8.596      863.887
11/02/2014  14:48:00      145.126       71.523       21.545       69.080       61.436       41.694     4772.105     3774.387     1738.383        1.846        0.514      161.793       26.500        0.027      336.850        8.426      863.883
11/02/2014  14:49:00       69.090       68.607       16.510       44.114       50.136       35.115     1946.007     2513.580     1233.057        0.772        0.285       97.367       22.101        0.052      337.007        8.691      863.881
11/02/2014  14:50:00       92.705       29.693        4.398       58.336       58.542       38.831     3403.090     3427.215     1507.878        0.892        0.417       97.344       23.834        0.060      337.088        8.825      863.885
11/02/2014  14:51:00       50.050        7.328       22.950       57.016       36.459       31.165     3250.849     1329.227      971.264        0.432        0.278       50.584       25.532        0.255      337.198        9.009      863.885
11/02/2014  14:52:00      118.651       83.263       59.963       93.671       74.802       64.249     8774.247     5595.394     4127.880        2.155        0.925      144.951       48.895        0.114      337.113        8.867      863.889
11/02/2014  14:53:00      124.270      103.212       38.580       66.355       61.197       67.776     4402.956     3745.023     4593.560        2.016        0.637      161.542       46.112        0.081      336.974        8.633      863.903
11/02/2014  14:54:00       -0.116       29.465       48.978       45.855       56.181       52.724     2102.666     3156.285     2779.870        0.565        0.402       29.465       46.392        2.479      337.288        9.159      863.915
11/02/2014  14:55:00      182.226      127.162       15.561      103.926       77.564       58.991    10800.574     6016.219     3479.932        3.495        1.015      222.208       43.573        0.038      337.045        8.752      863.947
11/02/2014  14:56:00       93.269      146.277      -17.478      102.591       67.563       55.809    10524.857     4564.766     3114.689        2.430        0.910      173.482       43.362        0.062      336.773        8.298      863.983
11/02/2014  14:57:00       80.225       91.331       11.415       76.054       52.477       39.432     5784.249     2753.812     1554.880        1.250        0.505      121.562       29.467        0.059      336.851        8.428      863.989
11/02/2014  14:58:00       43.757       40.321       22.652       38.380       46.087       44.147     1472.987     2123.980     1948.944        0.480        0.277       59.502       27.781        0.218      337.113        8.867      863.997
11/02/2014  14:59:00       52.212       76.103       54.743       44.316       40.151       45.690     1963.908     1612.120     2087.576        0.859        0.283       92.292       34.442        0.139      337.119        8.877      864.008
11/02/2014  15:00:00      126.587      136.449       15.007      105.514       81.813       63.338    11133.133     6693.388     4011.703        2.835        1.092      186.125       50.945        0.075      337.011        8.695      864.031
11/02/2014  15:01:00      110.248      114.966        6.974       70.021       70.468       50.439     4903.003     4965.742     2544.122        1.891        0.621      159.285       38.450        0.058      337.053        8.766      864.058
11/02/2014  15:02:00       64.208      143.158      -12.651       73.206       79.442       58.420     5359.067     6311.004     3412.845        1.993        0.754      156.898       50.144        0.102      337.090        8.827      864.086
11/02/2014  15:03:00       42.146      140.393      -19.444       46.763       88.363       44.975     2186.778     7807.988     2022.731        1.694        0.601      146.582       40.066        0.075      336.812        8.362      864.116
11/02/2014  15:04:00        0.162       80.498      -15.023       34.677       61.505       27.182     1202.463     3782.881      738.877        0.621        0.286       80.498       26.293        0.107      336.962        8.616      864.129
11/02/2014  15:05:00        9.616      153.338      -13.511       62.190       75.163       33.843     3867.656     5649.545     1145.370        1.722        0.533      153.639       44.133        0.083      336.876        8.470      864.141
11/02/2014  15:06:00       83.121       86.838        2.371       49.802       40.800       37.909     2480.218     1664.674     1437.106        1.002        0.279      120.207       24.845        0.043      336.898        8.508      864.149
11/02/2014  15:07:00       78.032      130.912        2.189       80.954       62.607       46.429     6553.520     3919.587     2155.655        1.793        0.631      152.404       45.984        0.091      336.955        8.602      864.169
11/02/2014  15:08:00       48.854      140.256      -14.280       52.060       63.415       39.741     2710.234     4021.487     1579.345        1.529        0.416      148.521       37.644        0.064      336.945        8.587      864.192
11/02/2014  15:09:00       40.308      126.808       -6.605       71.734      101.397       42.074     5145.817    10281.390     1770.184        1.747        0.860      133.060       51.713        0.151      337.006        8.687      864.205
11/02/2014  15:10:00       25.153      192.456      -36.588       50.521       47.728       24.949     2552.326     2277.943      622.431        2.223        0.273      194.092       22.238        0.013      336.890        8.492      864.215
11/02/2014  15:11:00       60.198      174.411        2.586       73.477       91.754       67.304     5398.865     8418.792     4529.788        2.619        0.917      184.507       58.516        0.101      336.993        8.664      864.220
11/02/2014  15:12:00      159.425      130.853       25.638      112.462       81.289       68.745    12647.804     6607.936     4725.925        3.358        1.199      206.250       40.316        0.038      336.966        8.618      864.218
11/02/2014  15:13:00      216.608      137.024        5.114      109.458       72.912       70.193    11981.090     5316.213     4927.036        4.397        1.111      256.309       48.642        0.036      336.878        8.470      864.206
11/02/2014  15:14:00      206.060      151.149        3.571      109.119       80.866       64.858    11907.030     6539.272     4206.557        4.398        1.133      255.552       38.417        0.023      336.879        8.473      864.224
11/02/2014  15:15:00       86.069      210.336      -16.997       89.367      123.078       68.616     7986.497    15148.244     4708.153        3.988        1.392      227.264       66.829        0.086      336.904        8.516      864.245
11/02/2014  15:16:00       64.012      178.476      -16.538       59.983      102.452       60.637     3597.903    10496.511     3676.817        2.699        0.889      189.608       61.235        0.104      336.867        8.453      864.265
11/02/2014  15:17:00       55.691      166.645      -23.480       76.558       79.503       48.707     5861.053     6320.715     2372.412        2.299        0.728      175.704       36.539        0.043      336.793        8.331      864.271
11/02/2014  15:18:00       78.015       96.158       14.107       86.750       66.157       38.464     7525.620     4376.729     1479.487        1.445        0.669      123.826       37.363        0.091      336.749        8.260      864.266
11/02/2014  15:19:00        8.475       90.382       -0.895       70.477       55.606       43.478     4967.018     3091.993     1890.320        0.909        0.497       90.778       44.072        0.236      336.859        8.444      864.239
11/02/2014  15:20:00      137.733       85.461       62.485      121.575       68.744       46.852    14780.377     4725.770     2195.136        2.594        1.085      162.093       30.540        0.035      336.889        8.491      864.227
11/02/2014  15:21:00      160.329       90.252       18.823       82.574       72.577       58.042     6818.431     5267.486     3368.903        2.483        0.773      183.986       40.384        0.048      336.914        8.531      864.242
11/02/2014  15:22:00      148.636       74.558       30.893       69.802       54.382       49.975     4872.272     2957.349     2497.469        1.946        0.516      166.288       24.388        0.022      336.926        8.552      864.246
11/02/2014  15:23:00      115.266      114.155        6.411      112.957       61.976       49.731    12759.379     3841.033     2473.168        2.271        0.954      162.227       35.274        0.047      337.029        8.725      864.264
11/02/2014  15:24:00       38.024      104.277        9.739       58.567       71.756       49.858     3430.057     5148.903     2485.867        1.174        0.553      110.994       43.932        0.157      337.012        8.698      864.270
11/02/2014  15:25:00       61.405      140.157       -9.460       54.310       59.781       47.236     2949.535     3573.732     2231.204        1.613        0.438      153.019       35.690        0.054      336.876        8.471      864.271
11/02/2014  15:26:00       98.052       36.855       14.571       67.506       53.932       35.957     4557.001     2908.618     1292.917        0.997        0.438      104.749       26.063        0.062      336.875        8.469      864.278
11/02/2014  15:27:00       47.709       37.241       -3.172       47.460       38.830       28.871     2252.447     1507.795      833.549        0.413        0.230       60.524       30.082        0.247      336.930        8.561      864.275
11/02/2014  15:28:00       30.680       35.031       13.862       44.995       36.985       32.388     2024.549     1367.854     1049.000        0.340        0.222       46.567       24.907        0.286      336.966        8.621      864.282
11/02/2014  15:29:00       65.057       69.180       -4.107       52.843       44.389       34.070     2792.426     1970.410     1160.770        0.748        0.296       94.965       30.693        0.104      336.927        8.556      864.284
11/02/2014  15:30:00       55.955      179.458      -30.999       47.432       60.993       36.301     2249.839     3720.197     1317.778        2.179        0.364      187.980       32.665        0.030      336.859        8.441      864.294
11/02/2014  15:31:00       44.567      181.288      -14.366       78.572       76.889       47.942     6173.543     5911.946     2298.466        2.472        0.719      186.686       45.569        0.060      336.873        8.463      864.318
11/02/2014  15:32:00       76.158      146.813      -10.993       59.637       91.540       47.569     3556.518     8379.596     2262.782        2.083        0.710      165.391       44.306        0.072      336.796        8.337      864.311
11/02/2014  15:33:00       69.722       89.970       -9.260       47.960       51.535       32.024     2300.166     2655.825     1025.534        0.951        0.299      113.824       26.685        0.055      336.769        8.293      864.308
11/02/2014  15:34:00      106.194       86.562        9.048       54.214       46.850       32.133     2939.133     2194.951     1032.525        1.251        0.308      137.005       18.425        0.018      336.715        8.203      864.314
11/02/2014  15:35:00       92.248       74.995       -4.112       83.292       53.147       42.823     6937.497     2824.596     1833.838        1.287        0.580      118.886       18.315        0.024      336.707        8.191      864.317
11/02/2014  15:36:00       52.165       74.294      -14.439       32.093       58.616       30.095     1029.970     3435.880      905.697        0.691        0.269       90.779       31.228        0.118      336.686        8.156      864.326
11/02/2014  15:37:00       -0.546       57.293       -3.945       18.829       36.696       17.390      354.520     1346.591      302.425        0.265        0.100       57.296       19.704        0.118      336.741        8.248      864.325
11/02/2014  15:38:00       66.897      173.923      -15.197      101.470       73.932       45.552    10296.261     5465.967     2075.004        2.639        0.892      186.345       56.094        0.091      336.705        8.186      864.341
11/02/2014  15:39:00       56.730      112.559      -11.555       61.430       76.421       45.456     3773.604     5840.142     2066.251        1.385        0.584      126.047       41.883        0.110      336.719        8.210      864.353
11/02/2014  15:40:00       40.277      119.684       -0.631       52.780       69.968       43.680     2785.734     4895.518     1907.904        1.277        0.479      126.280       39.128        0.096      336.694        8.168      864.366
11/02/2014  15:41:00       30.232      223.281      -25.235       52.115      101.500       45.195     2715.929    10302.187     2042.629        3.323        0.753      225.319       57.269        0.065      336.586        7.984      864.363
11/02/2014  15:42:00       48.122      295.001      -29.108       76.753      106.006       65.542     5891.095    11237.303     4295.794        5.580        1.071      298.900       62.794        0.044      336.612        8.030      864.368
11/02/2014  15:43:00      150.666      190.320       14.773      132.547       69.639       62.612    17568.742     4849.558     3920.214        4.273        1.317      242.738       71.129        0.086      336.611        8.028      864.361
11/02/2014  15:44:00      180.799      130.401       18.096       86.100       70.845       52.628     7413.295     5019.056     2769.703        3.261        0.760      222.919       27.662        0.015      336.639        8.073      864.360
11/02/2014  15:45:00       27.183      113.367       -5.747       58.640      100.598       45.165     3438.697    10120.056     2039.904        1.461        0.780      116.580       47.696        0.167      336.718        8.208      864.371
11/02/2014  15:46:00       26.469      145.141       -5.430       43.922       68.264       45.595     1929.169     4659.906     2078.930        1.523        0.433      147.535       42.513        0.083      336.716        8.204      864.377
11/02/2014  15:47:00       86.707      126.016        2.474      100.982       84.727       54.320    10197.420     7178.732     2950.687        2.186        1.016      152.964       54.129        0.125      336.770        8.292      864.384
11/02/2014  15:48:00       71.915      110.717        8.413       73.837       71.154       63.164     5451.934     5062.853     3989.669        1.600        0.725      132.023       41.839        0.100      336.740        8.245      864.412
11/02/2014  15:49:00       82.664      111.763       -8.338       63.964       73.207       49.175     4091.455     5359.247     2418.216        1.563        0.593      139.012       43.665        0.099      336.751        8.264      864.411
11/02/2014  15:50:00       62.686      133.324      -16.179       58.110       72.531       37.855     3376.750     5260.699     1432.966        1.602        0.504      147.325       39.238        0.071      336.755        8.269      864.424
11/02/2014  15:51:00      104.112       88.619       12.567       77.162       56.183       44.570     5953.973     3156.533     1986.515        1.497        0.555      136.722       37.169        0.074      336.728        8.225      864.412
11/02/2014  15:52:00      139.216      189.324       -7.778      103.813      100.678       67.686    10777.081    10136.011     4581.398        4.038        1.275      234.999       60.014        0.065      336.613        8.030      864.413
11/02/2014  15:53:00      113.389      119.376       13.084       84.384       70.481       62.789     7120.731     4967.521     3942.491        2.165        0.802      164.644       39.636        0.058      336.612        8.032      864.406
11/02/2014  15:54:00       84.789      128.102        6.332       84.709       88.387       67.119     7175.547     7812.283     4504.924        2.156        0.975      153.621       61.040        0.158      336.636        8.070      864.415
11/02/2014  15:55:00       39.394      177.686       -9.698       60.306      101.429       52.056     3636.783    10287.877     2709.856        2.492        0.832      182.001       49.134        0.073      336.625        8.052      864.413
11/02/2014  15:56:00       66.762      178.888      -21.736       70.055       70.063       52.385     4907.735     4908.790     2744.184        2.474        0.628      190.940       42.640        0.050      336.685        8.151      864.419
11/02/2014  15:57:00       61.656      122.284        9.670       82.407       95.659       77.749     6790.938     9150.647     6044.884        2.041        1.099      136.948       61.850        0.204      336.595        8.003      864.440
11/02/2014  15:58:00       85.839       91.055        4.999       65.877       62.366       54.122     4339.840     3889.494     2929.223        1.342        0.558      125.138       39.871        0.102      336.666        8.121      864.458
11/02/2014  15:59:00      151.412      134.651        1.621      115.242       83.683       71.487    13280.672     7002.766     5110.372        3.322        1.270      202.624       58.253        0.083      336.528        7.889      864.489
11/02/2014  16:00:00      223.490      152.475       20.570      122.137       81.628       59.458    14917.470     6663.182     3535.274        4.936        1.256      270.548       48.290        0.032      336.483        7.811      864.496
11/02/2014  16:01:00      191.167      137.898       16.066       95.344       80.800       69.361     9090.543     6528.655     4810.907        3.812        1.022      235.713       52.019        0.049      336.487        7.818      864.527
11/02/2014  16:02:00      143.347      132.667        9.104      107.939       85.465       63.785    11650.893     7304.249     4068.511        3.062        1.151      195.318       48.227        0.061      336.438        7.735      864.522
11/02/2014  16:03:00       85.534       40.221       19.997       74.429       43.590       37.851     5539.715     1900.125     1432.672        0.910        0.444       94.519       22.232        0.055      336.542        7.914      864.532
11/02/2014  16:04:00      109.171       81.404       40.655       90.890       63.928       60.842     8260.936     4086.838     3701.786        1.812        0.802      136.180       28.547        0.044      336.590        7.993      864.553
11/02/2014  16:05:00       69.286       86.596       14.848       78.540       71.725       40.386     6168.465     5144.439     1630.999        1.273        0.647      110.902       25.204        0.052      336.585        7.985      864.550
11/02/2014  16:06:00       29.945       59.537       12.000       51.827       52.152       31.373     2686.017     2719.872      984.239        0.549        0.320       66.644       25.597        0.148      336.668        8.126      864.552
11/02/2014  16:07:00      139.402      150.778       -1.574       98.420      115.798       57.136     9686.449    13409.286     3264.563        3.426        1.318      205.345       58.409        0.081      336.564        7.948      864.543
11/02/2014  16:08:00      219.820      123.996       21.684       87.999       60.162       50.144     7743.815     3619.507     2514.450        3.902        0.694      252.381       21.336        0.007      336.511        7.858      864.523
11/02/2014  16:09:00      160.715       89.158       22.965       99.426       74.568       49.705     9885.474     5560.348     2470.604        2.611        0.896      183.789       21.543        0.014      336.498        7.838      864.521
11/02/2014  16:10:00      144.928      101.871       11.835       77.750       51.642       45.867     6045.028     2666.872     2103.755        2.117        0.541      177.149       22.518        0.016      336.560        7.944      864.527
11/02/2014  16:11:00      198.769      146.634       23.474      112.229       63.058       67.446    12595.418     3976.262     4548.916        4.134        1.056      247.003       46.941        0.036      336.505        7.848      864.536
11/02/2014  16:12:00      204.408      132.225       35.265       86.964       57.378       57.054     7562.749     3292.256     3255.176        3.731        0.706      243.446       25.831        0.011      336.488        7.819      864.535
11/02/2014  16:13:00      141.223      114.301       21.371       91.015       57.673       45.185     8283.659     3326.140     2041.661        2.356        0.683      181.683       24.792        0.019      336.499        7.841      864.570
11/02/2014  16:14:00      149.610       85.238       33.051       66.196       61.956       49.645     4381.878     3838.484     2464.663        2.071        0.534      172.188       27.834        0.026      336.567        7.954      864.591
11/02/2014  16:15:00       92.173       63.814       19.598       71.922       44.292       41.790     5172.730     1961.759     1746.378        1.091        0.444      112.107       23.760        0.045      336.601        8.013      864.613
11/02/2014  16:16:00       65.572       33.866       18.185       71.865       37.682       39.119     5164.545     1419.903     1530.306        0.694        0.406       73.801       18.999        0.066      336.604        8.019      864.638
11/02/2014  16:17:00       73.215       62.612       16.542       51.461       38.189       29.771     2648.259     1458.422      886.321        0.727        0.250       96.336       23.915        0.062      336.587        7.990      864.651
11/02/2014  16:18:00      122.746       82.643       10.808       72.009       64.152       31.856     5185.259     4115.418     1014.818        1.616        0.516      147.974       20.349        0.019      336.598        8.008      864.659
11/02/2014  16:19:00      106.133       89.833       10.177       70.994       55.292       40.895     5040.085     3057.226     1672.390        1.460        0.488      139.047       15.147        0.012      336.537        7.905      864.666
11/02/2014  16:20:00      122.884      154.462        5.416      111.254      103.178       58.340    12377.556    10645.603     3403.522        3.270        1.321      197.380       60.138        0.093      336.474        7.798      864.668
11/02/2014  16:21:00       73.370      134.627       -7.976       79.134       75.970       57.665     6262.249     5771.375     3325.195        1.946        0.768      153.322       49.450        0.104      336.429        7.722      864.667
11/02/2014  16:22:00       37.685      172.350      -16.242       73.074      120.458       48.804     5339.831    14510.039     2381.870        2.681        1.112      176.422       55.584        0.099      336.443        7.746      864.662
11/02/2014  16:23:00       75.270      142.511       -5.109       81.485       93.525       65.475     6639.856     8746.860     4286.953        2.283        0.984      161.167       64.973        0.163      336.442        7.743      864.665
11/02/2014  16:24:00       68.551      182.869       -1.754       64.430      120.984       61.116     4151.187    14637.214     3735.136        3.033        1.126      195.295       63.756        0.107      336.431        7.725      864.652
11/02/2014  16:25:00       53.394      112.905        9.430       69.641       75.194       59.046     4849.826     5654.064     3486.420        1.484        0.700      124.894       45.458        0.132      336.446        7.751      864.662
11/02/2014  16:26:00       63.503      142.736        4.154       80.613       80.934       63.319     6498.502     6550.294     4009.317        2.074        0.853      156.225       49.108        0.099      336.418        7.704      864.652
11/02/2014  16:27:00       92.871      183.492      -17.349       65.104       81.553       61.720     4238.579     6650.973     3809.387        2.864        0.735      205.655       51.754        0.063      336.446        7.749      864.647
11/02/2014  16:28:00      143.515      110.454       18.434       90.517       66.855       45.778     8193.275     4469.610     2095.592        2.394        0.738      181.099       38.377        0.045      336.420        7.706      864.639
11/02/2014  16:29:00      212.512      150.898       31.589       99.414       64.358       60.293     9883.055     4142.016     3635.203        4.329        0.883      260.637       48.334        0.034      336.383        7.643      864.621
11/02/2014  16:30:00      159.854      103.958       23.850      112.010       56.967       51.395    12546.235     3245.208     2641.441        2.768        0.922      190.684       33.103        0.030      336.392        7.658      864.626
11/02/2014  16:31:00      111.311       96.465        0.727       73.333       42.978       48.550     5377.658     1847.118     2357.102        1.564        0.479      147.294       22.571        0.023      336.410        7.690      864.637
11/02/2014  16:32:00       84.808      165.725        3.538       93.071      109.628       79.707     8662.301    12018.356     6353.128        3.085        1.352      186.164       66.631        0.128      336.345        7.583      864.641
11/02/2014  16:33:00       55.862      180.059      -22.190       68.236       90.935       49.399     4656.168     8269.187     2440.268        2.570        0.768      188.526       47.747        0.064      336.340        7.572      864.646
11/02/2014  16:34:00       52.815      226.486      -31.539       58.687      112.802       45.459     3444.165    12724.334     2066.508        3.665        0.912      232.562       55.606        0.057      336.339        7.570      864.643
11/02/2014  16:35:00      122.938      132.291       16.058       93.478       78.648       62.333     8738.105     6185.572     3885.359        2.584        0.940      180.595       48.152        0.071      336.320        7.540      864.636
11/02/2014  16:36:00       86.703      115.335      -17.940       77.782       94.482       57.122     6050.106     8926.791     3262.894        1.969        0.912      144.290       59.600        0.171      336.301        7.509      864.614
11/02/2014  16:37:00      113.030      172.911       -0.559       91.377       96.011       78.553     8349.715     9218.200     6170.640        3.320        1.187      206.577       67.668        0.107      336.271        7.458      864.609
11/02/2014  16:38:00       57.331       92.216        9.650       57.585       60.261       44.158     3316.012     3631.357     1949.914        1.039        0.445      108.584       34.917        0.103      336.253        7.430      864.597
11/02/2014  16:39:00      107.067      220.180      -12.663       83.641      111.201       70.255     6995.753    12365.697     4935.831        4.220        1.215      244.831       68.988        0.079      336.215        7.362      864.593
11/02/2014  16:40:00      128.720      190.935       -6.083      126.057       95.457       77.255    15890.373     9111.996     5968.358        4.201        1.549      230.271       72.988        0.100      336.206        7.348      864.596
11/02/2014  16:41:00       84.911      152.004      -14.758       73.450       92.529       57.990     5394.837     8561.549     3362.854        2.392        0.866      174.112       47.986        0.076      336.179        7.305      864.602
11/02/2014  16:42:00       87.293      190.104       -2.536       88.707       99.282       63.369     7868.931     9856.968     4015.585        3.275        1.087      209.188       56.611        0.073      336.177        7.302      864.600
11/02/2014  16:43:00       35.589      126.677      -16.858       65.033       84.480       59.829     4229.257     7136.851     3579.475        1.627        0.747      131.581       47.580        0.131      336.173        7.297      864.603
11/02/2014  16:44:00       37.892      170.742       17.680       73.352      133.575       83.619     5380.499    17842.350     6992.096        3.055        1.511      174.896       77.020        0.194      336.169        7.289      864.624
11/02/2014  16:45:00       49.687      213.391      -11.447       80.980      116.660       70.081     6557.781    13609.665     4911.318        3.660        1.254      219.099       75.087        0.117      336.163        7.278      864.632
11/02/2014  16:46:00       70.278      161.663       -9.683       83.487      100.975       74.308     6970.090    10195.994     5521.708        2.692        1.134      176.277       66.937        0.144      336.136        7.233      864.651
11/02/2014  16:47:00       63.709      176.590      -15.072       78.492      101.507       64.327     6161.034    10303.585     4137.976        2.803        1.030      187.731       61.183        0.106      336.141        7.242      864.666
11/02/2014  16:48:00       65.659      216.695      -14.224       80.988      140.536       79.654     6559.068    19750.273     6344.756        4.206        1.633      226.424       79.719        0.124      336.130        7.222      864.685
11/02/2014  16:49:00       60.905      134.418        2.879       89.226      118.796       66.071     7961.261    14112.579     4365.411        2.411        1.322      147.573       63.544        0.185      336.117        7.201      864.702
11/02/2014  16:50:00       36.700      175.678       -2.467       76.220       83.972       64.338     5809.473     7051.284     4139.401        2.460        0.850      179.471       59.254        0.109      336.116        7.200      864.719
11/02/2014  16:51:00      106.400      144.250       -1.801       83.482      103.869       77.962     6969.182    10788.820     6078.102        2.798        1.192      179.246       65.914        0.135      336.112        7.194      864.714
11/02/2014  16:52:00       51.031      177.460      -14.594       69.242      104.731       58.931     4794.422    10968.686     3472.833        2.677        0.962      184.652       61.435        0.111      336.094        7.161      864.705
11/02/2014  16:53:00       51.105      172.213       -9.479       60.700       90.554       58.971     3684.539     8200.035     3477.627        2.386        0.768      179.636       57.836        0.104      336.082        7.142      864.699
11/02/2014  16:54:00       58.127      139.119       -9.598       74.036       99.686       70.075     5481.319     9937.369     4910.530        2.157        1.016      150.774       57.744        0.147      336.080        7.140      864.694
11/02/2014  16:55:00       35.887      134.409      -17.572       50.185       90.034       37.374     2518.489     8106.128     1396.848        1.584        0.601      139.118       42.874        0.095      336.051        7.092      864.703
11/02/2014  16:56:00       60.686      192.311      -22.801       57.479       66.949       46.938     3303.803     4482.141     2203.139        2.559        0.499      201.659       44.385        0.048      336.049        7.086      864.716
11/02/2014  16:57:00       64.959      179.555      -15.888       68.904       99.306       57.986     4747.770     9861.717     3362.374        2.734        0.899      190.944       60.125        0.099      336.053        7.093      864.732
11/02/2014  16:58:00       45.249      287.725      -44.624       55.763       88.189       41.527     3109.531     7777.272     1724.479        4.972        0.631      291.261       42.053        0.021      336.055        7.095      864.757
11/02/2014  16:59:00       43.249      137.471      -13.604       54.009       70.581       50.374     2917.001     4981.651     2537.539        1.569        0.522      144.114       47.672        0.109      336.004        7.013      864.779
11/02/2014  17:00:00       35.802      168.186      -10.897       61.325      119.873       55.601     3760.772    14369.487     3091.417        2.545        1.061      171.954       60.491        0.124      335.995        6.997      864.811
11/02/2014  17:01:00       62.315      118.877       19.467       70.124       78.501       58.916     4917.411     6162.362     3471.134        1.647        0.728      134.220       54.583        0.165      335.957        6.935      864.829
11/02/2014  17:02:00       32.450      103.702       -1.890       49.186       64.841       43.377     2419.309     4204.400     1881.581        1.016        0.425      108.660       38.317        0.124      335.933        6.895      864.859
11/02/2014  17:03:00       72.617      129.495       -5.753       80.187       72.764       49.113     6429.879     5294.563     2412.079        1.810        0.707      148.467       46.890        0.100      335.918        6.871      864.877
11/02/2014  17:04:00       33.169       63.626        4.398       52.377       52.294       36.335     2743.374     2734.619     1320.213        0.598        0.340       71.753       36.718        0.262      335.869        6.790      864.897
11/02/2014  17:05:00       41.757      116.862       -7.066       56.396       75.342       47.763     3180.488     5676.480     2281.307        1.329        0.557      124.098       38.030        0.094      335.867        6.786      864.919
11/02/2014  17:06:00       58.195      168.710      -15.101       80.532       92.033       57.456     6485.417     8469.986     3301.201        2.516        0.913      178.465       54.242        0.092      335.859        6.770      864.928
11/02/2014  17:07:00       28.547      203.083      -18.736       69.780      119.067       62.947     4869.212    14177.054     3962.293        3.270        1.150      205.079       63.561        0.096      335.842        6.741      864.947
11/02/2014  17:08:00       38.283      195.988      -17.678       60.135      119.450       54.671     3616.229    14268.297     2988.941        3.053        1.044      199.692       58.001        0.084      335.851        6.757      864.962
11/02/2014  17:09:00       80.166      127.535       -7.663       73.797       77.151       61.655     5445.947     5952.337     3801.354        1.897        0.760      150.638       49.911        0.110      335.832        6.727      864.982
11/02/2014  17:10:00       46.106      175.922      -15.074       84.791       99.009       68.161     7189.598     9802.832     4645.970        2.747        1.082      181.864       54.484        0.090      335.809        6.688      864.990
11/02/2014  17:11:00       67.574      133.765        4.448       66.934      106.715       74.499     4480.166    11388.037     5550.137        2.194        1.071      149.865       70.931        0.224      335.799        6.671      865.005
11/02/2014  17:12:00      102.506      125.710        5.544       98.253       72.537       47.886     9653.718     5261.572     2293.031        2.177        0.860      162.205       42.602        0.069      335.808        6.687      865.012
11/02/2014  17:13:00       54.923      151.803       -0.960       89.735       87.485       60.672     8052.299     7653.653     3681.072        2.272        0.969      161.433       48.941        0.092      335.784        6.647      865.004
11/02/2014  17:14:00      113.251      100.008       12.574       69.710       64.180       66.409     4859.419     4119.031     4410.142        1.818        0.669      151.087       49.386        0.107      335.767        6.619      865.002
11/02/2014  17:15:00       98.034      128.025       -3.159       82.133       80.923       61.564     6745.847     6548.552     3790.126        2.154        0.854      161.248       56.818        0.124      335.764        6.612      865.002
11/02/2014  17:16:00       62.868      106.919        7.359       67.166       77.905       51.760     4511.270     6069.239     2679.068        1.435        0.663      124.032       38.033        0.094      335.745        6.583      865.000
11/02/2014  17:17:00       68.442      109.116       11.981       76.792       69.006       55.388     5897.026     4761.859     3067.882        1.523        0.686      128.804       37.944        0.087      335.750        6.589      865.002
11/02/2014  17:18:00      103.628      106.014        3.115       93.077       63.460       55.248     8663.247     4027.218     3052.311        1.886        0.787      148.248       42.714        0.083      335.744        6.581      865.005
11/02/2014  17:19:00       72.705      118.633        4.197       69.002       70.198       59.433     4761.296     4927.776     3532.336        1.630        0.661      139.140       48.832        0.123      335.726        6.552      865.017
11/02/2014  17:20:00      119.599      101.629       14.434       83.174       74.698       58.521     6917.836     5579.819     3424.742        2.038        0.796      156.947       46.982        0.090      335.716        6.533      865.027
11/02/2014  17:21:00      135.449      129.716       16.440      101.854       63.262       52.471    10374.174     4002.057     2753.167        2.628        0.856      187.544       48.759        0.068      335.712        6.526      865.039
11/02/2014  17:22:00      133.068      117.929       11.684       77.192       62.706       74.207     5958.551     3932.022     5506.657        2.357        0.770      177.804       45.459        0.065      335.714        6.530      865.047
11/02/2014  17:23:00       98.168       93.260       15.206       83.140       58.248       60.883     6912.261     3392.792     3706.708        1.629        0.701      135.405       44.948        0.110      335.675        6.466      865.056
11/02/2014  17:24:00      102.940      115.777       15.253       92.620       67.270       55.426     8578.530     4525.278     3071.995        2.020        0.809      154.922       41.376        0.071      335.677        6.469      865.072
11/02/2014  17:25:00       64.955       93.511       -7.641       77.365       64.035       47.712     5985.354     4100.438     2276.403        1.269        0.618      113.857       44.296        0.151      335.648        6.421      865.089
11/02/2014  17:26:00       95.890      107.102        6.635       85.833       57.589       45.039     7367.303     3316.495     2028.514        1.671        0.636      143.756       31.986        0.050      335.630        6.391      865.097
11/02/2014  17:27:00       97.246      115.116        2.232       89.864       76.158       50.991     8075.497     5799.988     2600.069        1.959        0.824      150.693       45.375        0.091      335.646        6.416      865.105
11/02/2014  17:28:00       50.527      125.008      -11.325       50.298       68.037       39.852     2529.840     4629.022     1588.195        1.353        0.437      134.833       33.166        0.061      335.602        6.344      865.120
11/02/2014  17:29:00      120.751      122.802       -1.238       88.645       67.771       69.241     7857.975     4592.875     4794.327        2.345        0.862      172.224       46.730        0.074      335.636        6.399      865.124
11/02/2014  17:30:00       55.774      168.343      -19.058       49.322       81.141       46.489     2432.631     6583.787     2161.198        2.149        0.559      177.342       43.963        0.061      335.613        6.362      865.138
11/02/2014  17:31:00       70.152      148.860       -8.885       70.281       90.796       66.408     4939.472     8243.975     4409.971        2.237        0.880      164.562       62.608        0.145      335.602        6.344      865.148
11/02/2014  17:32:00       67.344      137.837       -5.651       70.630       97.654       61.256     4988.604     9536.333     3752.296        2.092        0.914      153.409       61.391        0.160      335.621        6.375      865.150
11/02/2014  17:33:00       65.837      161.102       -4.886       63.416       94.360       56.686     4021.613     8903.756     3213.277        2.322        0.807      174.035       55.842        0.103      335.604        6.348      865.160
11/02/2014  17:34:00       47.801      122.671      -10.483       55.690       81.979       45.399     3101.432     6720.633     2061.058        1.466        0.594      131.655       38.159        0.084      335.543        6.247      865.158
11/02/2014  17:35:00       65.406      125.512       -4.617       51.453       86.781       55.021     2647.426     7530.902     3027.317        1.663        0.660      141.531       57.595        0.166      335.522        6.209      865.161
11/02/2014  17:36:00       63.826      124.613      -15.807       60.013       81.600       50.788     3601.616     6658.508     2579.372        1.634        0.642      140.008       49.740        0.126      335.506        6.184      865.171
11/02/2014  17:37:00       72.341       98.899        6.557       68.605       64.943       56.187     4706.680     4217.584     3157.022        1.357        0.604      122.532       46.284        0.143      335.473        6.129      865.179
11/02/2014  17:38:00       59.378      117.117       -3.689       60.814       88.334       63.427     3698.391     7802.970     4022.956        1.639        0.776      131.310       56.764        0.187      335.496        6.167      865.195
11/02/2014  17:39:00       53.197      154.316      -14.275       50.124       83.635       42.082     2512.461     6994.883     1770.858        1.906        0.564      163.228       44.487        0.074      335.458        6.103      865.202
11/02/2014  17:40:00       52.869      120.820       -1.347       59.643       79.515       45.828     3557.319     6322.610     2100.186        1.468        0.599      131.881       42.919        0.106      335.427        6.053      865.223
11/02/2014  17:41:00       62.138       88.526        5.195       58.352       61.931       50.828     3404.989     3835.498     2583.524        1.077        0.491      108.157       40.745        0.142      335.430        6.058      865.244
11/02/2014  17:42:00       57.832      114.653       -2.072       61.058       78.339       55.858     3728.102     6136.976     3120.091        1.474        0.649      128.413       48.293        0.141      335.426        6.050      865.256
11/02/2014  17:43:00       40.745      104.845        4.881       60.891       72.224       50.303     3707.655     5216.278     2530.397        1.206        0.573      112.484       42.738        0.144      335.432        6.061      865.278
11/02/2014  17:44:00       56.752      127.448       -9.339       46.849       88.897       51.093     2194.865     7902.665     2610.484        1.613        0.635      139.513       54.294        0.151      335.457        6.103      865.305
11/02/2014  17:45:00       69.795      120.926        4.879       59.094       75.983       56.492     3492.062     5773.474     3191.290        1.599        0.623      139.622       49.065        0.123      335.463        6.112      865.325
11/02/2014  17:46:00       47.689       85.403        9.103       57.448       64.298       59.830     3300.241     4134.217     3579.650        1.033        0.551       97.816       45.976        0.221      335.430        6.058      865.337
11/02/2014  17:47:00       54.793      138.769      -11.474       60.661       72.595       49.793     3679.801     5270.071     2479.302        1.691        0.571      149.195       48.389        0.105      335.412        6.028      865.353
11/02/2014  17:48:00       62.282      121.518       -7.559       53.768       79.678       54.221     2890.957     6348.624     2939.901        1.544        0.609      136.549       49.457        0.131      335.416        6.033      865.359
11/02/2014  17:49:00       66.506      103.444       -4.237       66.487       69.979       56.070     4420.512     4897.033     3143.844        1.380        0.623      122.979       50.394        0.168      335.402        6.011      865.356
11/02/2014  17:50:00       66.040      103.910        5.739       60.249       78.392       57.632     3629.978     6145.257     3321.418        1.414        0.655      123.120       53.030        0.186      335.400        6.007      865.354
11/02/2014  17:51:00       56.522      150.409       -5.325       58.753      100.083       61.363     3451.874    10016.677     3765.387        2.154        0.862      160.678       57.765        0.129      335.393        5.996      865.368
11/02/2014  17:52:00       72.547      129.941       -1.634       64.829       78.485       59.582     4202.768     6159.922     3550.050        1.803        0.696      148.822       57.450        0.149      335.409        6.022      865.367
11/02/2014  17:53:00       54.028      137.129      -13.672       58.977       75.374       44.946     3478.306     5681.297     2020.157        1.654        0.559      147.389       43.016        0.085      335.374        5.964      865.383
11/02/2014  17:54:00       74.885      124.480       -4.391       72.500       67.005       56.161     5256.290     4489.706     3154.075        1.701        0.645      145.269       45.453        0.098      335.380        5.975      865.407
11/02/2014  17:55:00       38.040       98.066        6.275       57.327       67.302       53.238     3286.374     4529.602     2834.236        1.087        0.533      105.185       49.126        0.218      335.355        5.931      865.426
11/02/2014  17:56:00       52.905       85.959       14.008       66.443       75.532       50.312     4414.632     5705.054     2531.318        1.151        0.633      100.935       46.058        0.208      335.354        5.931      865.447
11/02/2014  17:57:00       57.661      157.356      -17.306       49.813       86.264       50.390     2481.293     7441.410     2539.117        2.042        0.623      167.588       51.308        0.094      335.386        5.983      865.470
11/02/2014  17:58:00       58.049       94.139        9.902       52.382       69.504       47.815     2743.834     4830.805     2286.292        1.109        0.493      110.598       42.345        0.147      335.358        5.938      865.491
11/02/2014  17:59:00       54.819      155.249      -14.686       58.315       80.309       49.335     3400.682     6449.572     2433.987        1.980        0.614      164.643       45.010        0.075      335.375        5.963      865.500
11/02/2014  18:00:00       62.762      112.012       -2.583       53.762       72.373       48.894     2890.372     5237.791     2390.585        1.350        0.526      128.396       41.983        0.107      335.362        5.944      865.514
11/02/2014  18:01:00       46.624      105.722       -8.936       49.546       76.410       47.500     2454.839     5838.513     2256.229        1.199        0.527      115.546       48.826        0.179      335.346        5.915      865.539
11/02/2014  18:02:00       70.606      137.486       -5.152       67.031       66.799       52.512     4493.095     4462.137     2757.491        1.781        0.586      154.557       45.216        0.086      335.358        5.938      865.537
11/02/2014  18:03:00       59.381      106.005        1.251       59.067       78.144       55.526     3488.896     6106.479     3083.182        1.372        0.634      121.504       45.471        0.140      335.326        5.884      865.546
11/02/2014  18:04:00       51.531      120.064       -5.118       51.583       74.413       51.923     2660.828     5537.312     2696.045        1.399        0.545      130.655       49.210        0.142      335.288        5.821      865.548
11/02/2014  18:05:00       50.107       63.163       11.835       55.117       63.360       49.460     3037.832     4014.427     2446.275        0.807        0.475       80.624       46.108        0.327      335.260        5.775      865.553
11/02/2014  18:06:00       34.397      112.942       -6.858       40.272       97.740       41.351     1621.852     9553.175     1709.941        1.343        0.644      118.064       51.071        0.187      335.260        5.774      865.566
11/02/2014  18:07:00       31.373       82.404        8.042       39.183       59.977       40.014     1535.314     3597.224     1601.140        0.729        0.337       88.175       35.546        0.163      335.237        5.736      865.578
11/02/2014  18:08:00       31.050      104.410       13.000       51.413       69.388       44.490     2643.253     4814.752     1979.395        1.073        0.472      108.929       40.802        0.140      335.244        5.748      865.588
11/02/2014  18:09:00       22.590       74.287       12.184       44.183       67.361       42.363     1952.154     4537.542     1794.589        0.723        0.414       77.645       41.757        0.289      335.220        5.707      865.609
11/02/2014  18:10:00       38.484      127.996      -20.192       44.359       61.940       35.327     1967.756     3836.533     1248.009        1.266        0.353      133.656       42.674        0.102      335.256        5.767      865.615
11/02/2014  18:11:00       21.504       72.820        2.995       38.669       50.370       31.992     1495.304     2537.108     1023.495        0.541        0.253       75.929       29.015        0.146      335.206        5.685      865.639
11/02/2014  18:12:00       45.487      107.801        5.802       58.986       65.497       40.951     3479.320     4289.865     1676.953        1.158        0.472      117.005       41.684        0.127      335.248        5.755      865.647
11/02/2014  18:13:00       26.934      153.416      -22.532       26.328       56.695       23.183      693.160     3214.341      537.434        1.461        0.222      155.762       26.051        0.028      335.235        5.732      865.662
11/02/2014  18:14:00       23.599      118.230      -12.521       42.497       68.765       26.309     1806.036     4728.670      692.185        1.096        0.361      120.562       31.729        0.069      335.222        5.710      865.669
11/02/2014  18:15:00       13.756      183.417      -22.526       29.623       51.705       28.240      877.509     2673.454      797.490        1.934        0.217      183.932       25.666        0.019      335.242        5.743      865.680
11/02/2014  18:16:00       30.118      185.217      -30.360       29.863       39.908       23.583      891.816     1592.675      556.142        1.959        0.152      187.650       21.933        0.014      335.238        5.738      865.681
11/02/2014  18:17:00       25.521      146.368      -18.196       28.744       38.816       23.483      826.219     1506.700      551.462        1.264        0.144      148.577       23.351        0.025      335.225        5.717      865.686
11/02/2014  18:18:00        4.438      172.530      -23.943       27.684       38.294       16.922      766.429     1466.465      286.364        1.644        0.126      172.587       18.316        0.011      335.298        5.838      865.694
11/02/2014  18:19:00       -0.528      163.351      -22.856       30.031       28.401       19.524      901.877      806.639      381.193        1.465        0.104      163.352       15.440        0.009      335.331        5.893      865.706
11/02/2014  18:20:00      -17.371      149.791      -18.499       21.450       29.041       16.467      460.117      843.395      271.152        1.233        0.079      150.795        7.469        0.002      335.342        5.911      865.717
11/02/2014  18:21:00        5.397      123.500      -21.630       26.965       26.164       13.179      727.097      684.553      173.691        0.867        0.079      123.618        7.551        0.004      335.322        5.878      865.730
11/02/2014  18:22:00        3.048       91.883      -16.773       29.702       24.049       14.166      882.204      578.332      200.666        0.520        0.083       91.934        7.433        0.007      335.331        5.892      865.737
11/02/2014  18:23:00      -11.629      162.236      -23.304       35.592       44.596       21.484     1266.775     1988.817      461.541        1.536        0.186      162.653       20.964        0.017      335.363        5.946      865.757
11/02/2014  18:24:00      -12.986      123.779      -16.403       44.040       40.517       19.381     1939.496     1641.615      375.638        0.986        0.198      124.458       16.401        0.017      335.410        6.026      865.757
11/02/2014  18:25:00      -13.813      152.329      -21.914       29.882       37.794       19.141      892.940     1428.350      366.382        1.328        0.134      152.954       17.757        0.013      335.339        5.906      865.757
11/02/2014  18:26:00      -13.707      159.984      -25.856       22.800       30.570       16.538      519.823      934.500      273.500        1.409        0.086      160.571       10.884        0.005      335.379        5.973      865.756
11/02/2014  18:27:00        4.159      179.431      -22.949       33.677       35.811       19.152     1134.108     1282.400      366.782        1.776        0.139      179.480       14.444        0.006      335.357        5.937      865.750
11/02/2014  18:28:00      -13.715      153.195      -16.050       27.534       33.622       19.566      758.117     1130.467      382.817        1.309        0.114      153.807       17.842        0.013      335.406        6.018      865.766
11/02/2014  18:29:00       -0.135      123.823      -20.578       28.771       41.059       19.208      827.762     1685.830      368.931        0.932        0.144      123.823       20.504        0.027      335.431        6.060      865.771
11/02/2014  18:30:00       -0.268      168.344      -27.752       31.385       39.505       17.926      985.039     1560.654      321.346        1.599        0.143      168.344       13.725        0.007      335.483        6.145      865.787
11/02/2014  18:31:00       -8.825      105.829      -10.845       29.810       47.906       21.290      888.618     2294.969      453.275        0.752        0.182      106.196       21.129        0.040      335.406        6.018      865.786
11/02/2014  18:32:00       17.803      171.593      -28.826       29.345       29.298       18.477      861.147      858.364      341.399        1.633        0.103      172.514       17.439        0.010      335.407        6.021      865.791
11/02/2014  18:33:00       -4.190      159.437      -24.011       26.392       33.565       15.405      696.539     1126.639      237.324        1.404        0.103      159.492       18.007        0.013      335.419        6.040      865.796
11/02/2014  18:34:00        9.023       99.681      -18.855       17.626       23.945       12.021      310.661      573.371      144.512        0.570        0.051      100.088       10.235        0.010      335.347        5.918      865.790
11/02/2014  18:35:00        3.413      111.601      -18.079       21.667       18.423       10.745      469.467      339.420      115.464        0.686        0.046      111.654        7.662        0.005      335.415        6.033      865.799
11/02/2014  18:36:00        3.764      123.772      -21.403       11.708       17.342        9.008      137.068      300.732       81.135        0.816        0.026      123.829        3.848        0.001      335.415        6.034      865.795
11/02/2014  18:37:00        1.367      101.355      -16.390       14.785       14.573       10.360      218.609      212.363      107.323        0.554        0.027      101.364        7.616        0.006      335.400        6.007      865.791
11/02/2014  18:38:00       15.311       87.086      -15.495       17.939       15.365       12.507      321.818      236.070      156.425        0.439        0.036       88.422        9.172        0.011      335.352        5.928      865.794
11/02/2014  18:39:00       17.799       68.753      -13.570       14.508       21.986        9.318      210.478      483.404       86.825        0.300        0.039       71.019        7.667        0.012      335.379        5.973      865.783
11/02/2014  18:40:00       14.642       87.495      -17.488       11.400       13.122        7.541      129.954      172.199       56.871        0.427        0.018       88.712        5.081        0.003      335.379        5.972      865.765
11/02/2014  18:41:00       15.328       85.901      -17.316       13.139       12.751        9.203      172.631      162.594       84.696        0.417        0.021       87.258        6.284        0.005      335.406        6.018      865.760
11/02/2014  18:42:00       12.923       73.913      -13.275        9.117        9.609        6.469       83.120       92.329       41.846        0.301        0.011       75.034        3.325        0.002      335.399        6.007      865.751
11/02/2014  18:43:00        0.867       54.594      -11.898        8.810        9.029        5.962       77.611       81.523       35.540        0.166        0.010       54.601        4.413        0.007      335.390        5.991      865.741
11/02/2014  18:44:00       -2.599       34.792       -3.759       11.558       23.469        8.809      133.580      550.815       77.604        0.100        0.038       34.888        7.881        0.051      335.336        5.902      865.729
11/02/2014  18:45:00      -86.926      -25.218       -5.895       24.295       20.267       12.005      590.223      410.755      144.129        0.469        0.057       90.510       11.686        0.017      335.311        5.859      865.709
11/02/2014  18:46:00     -122.831      -40.983       -3.928       37.011       28.420       17.137     1369.807      807.697      293.675        0.963        0.124      129.487       19.638        0.023      335.131        5.563      865.702
11/02/2014  18:47:00      -88.190      -25.134       -7.728       43.778       38.493       19.774     1916.501     1481.734      390.997        0.613        0.189       91.702       16.342        0.032      334.950        5.261      865.712
11/02/2014  18:48:00      -95.337       -6.227       -5.543       27.926       24.134       19.372      779.847      582.452      375.276        0.545        0.087       95.541       14.784        0.024      334.993        5.332      865.719
11/02/2014  18:49:00     -119.317       -9.940      -14.118       23.956       41.297       19.513      573.909     1705.404      380.754        0.860        0.133      119.731       13.571        0.013      334.869        5.126      865.725
11/02/2014  18:50:00     -131.959      -31.060       -7.518       31.105       33.556       19.396      967.506     1125.991      376.193        1.045        0.123      135.565       18.699        0.019      334.846        5.087      865.730
11/02/2014  18:51:00     -119.382      -25.765      -11.841       35.844       30.031       18.578     1284.766      901.879      345.136        0.879        0.127      122.130       11.085        0.008      334.779        4.976      865.740
11/02/2014  18:52:00     -132.684      -25.226      -12.779       37.924       34.315       20.425     1438.260     1177.545      417.178        1.072        0.152      135.061       19.322        0.020      334.782        4.981      865.736
11/02/2014  18:53:00     -112.119      -40.806       -4.629       57.527       37.669       30.670     3309.299     1418.944      940.646        0.996        0.283      119.314       31.941        0.072      334.682        4.815      865.731
11/02/2014  18:54:00     -165.124        0.941      -16.329       34.091       25.667       21.746     1162.224      658.813      472.901        1.491        0.115      165.127       18.406        0.012      334.691        4.830      865.735
11/02/2014  18:55:00     -126.495      -36.004       -9.738       40.342       47.160       21.411     1627.438     2224.089      458.440        1.085        0.215      131.519       15.919        0.015      334.709        4.859      865.743
11/02/2014  18:56:00     -105.629       -5.914       -9.610       29.854       27.902       14.190      891.254      778.517      201.369        0.658        0.094      105.794       12.053        0.013      334.724        4.885      865.745
11/02/2014  18:57:00     -110.366      -43.092      -14.458       19.314       23.896       15.211      373.016      571.021      231.374        0.771        0.059      118.480       11.387        0.009      334.790        4.994      865.742
11/02/2014  18:58:00      -70.816      -20.291       -2.320       33.787       30.418       17.702     1141.561      925.272      313.357        0.391        0.119       73.666       20.661        0.079      334.754        4.937      865.741
11/02/2014  18:59:00      -84.558      -28.382       -7.990       32.121       23.389       11.366     1031.749      547.029      129.178        0.486        0.085       89.194        9.726        0.012      334.858        5.110      865.740
11/02/2014  19:00:00      -37.215      -47.491        3.697       24.674       22.941       16.218      608.818      526.278      263.033        0.253        0.070       60.335       13.565        0.051      334.855        5.105      865.745
11/02/2014  19:01:00      -31.244      -33.919        6.239       29.813       27.366       18.366      888.808      748.873      337.320        0.207        0.099       46.116       18.777        0.166      334.890        5.161      865.739
11/02/2014  19:02:00      -48.233      -24.866        1.448       22.903       29.710       12.027      524.531      882.690      144.640        0.225        0.078       54.266        8.826        0.026      334.829        5.061      865.735
11/02/2014  19:03:00      -61.059      -19.181       -5.540       25.898       17.530       18.447      670.682      307.312      340.286        0.272        0.066       64.001       16.585        0.067      334.822        5.047      865.751
11/02/2014  19:04:00      -83.519      -26.896       -6.869       25.396       27.237       15.559      644.953      741.877      242.094        0.469        0.081       87.743       15.663        0.032      334.810        5.026      865.775
11/02/2014  19:05:00      -98.485      -34.335       -8.487       28.773       24.741       17.535      827.872      612.134      307.480        0.635        0.087      104.299       16.904        0.026      334.753        4.934      865.796
11/02/2014  19:06:00     -110.132      -15.205      -12.306       27.115       27.375       14.409      735.227      749.392      207.621        0.710        0.085      111.176       11.809        0.011      334.717        4.874      865.807
11/02/2014  19:07:00     -115.955       -1.749      -17.176       29.325       30.246       17.886      859.930      914.820      319.897        0.792        0.105      115.968       15.960        0.019      334.747        4.923      865.813
11/02/2014  19:08:00     -143.661       18.183      -18.627       30.586       20.785       15.322      935.478      432.036      234.770        1.146        0.080      144.808       11.980        0.007      334.681        4.814      865.794
11/02/2014  19:09:00     -131.372       26.058      -10.128       28.740       22.691       14.152      826.011      514.877      200.276        0.979        0.077      133.931       11.115        0.007      334.714        4.868      865.785
11/02/2014  19:10:00     -110.173       27.779       -6.003       23.077       24.338       13.365      532.553      592.362      178.627        0.712        0.065      113.621       11.116        0.010      334.744        4.919      865.779
11/02/2014  19:11:00     -114.393       19.310      -11.092       17.392       19.551       10.409      302.484      382.247      108.355        0.719        0.040      116.011        3.312        0.001      334.855        5.103      865.759
11/02/2014  19:12:00     -113.827       32.764      -11.370       31.200       16.851       12.278      973.419      283.971      150.747        0.778        0.070      118.448        8.364        0.005      334.870        5.128      865.745
11/02/2014  19:13:00     -126.756       30.548      -12.420       15.140       17.712       11.893      229.214      313.705      141.448        0.892        0.034      130.385        6.952        0.003      334.974        5.300      865.742
11/02/2014  19:14:00     -101.923       28.362       -6.295       20.296       19.095       11.353      411.914      364.635      128.886        0.607        0.045      105.795        8.266        0.006      334.936        5.238      865.741
11/02/2014  19:15:00     -114.005       25.171       -9.749       21.693       18.559       13.728      470.569      344.445      188.456        0.736        0.050      116.751        9.875        0.007      334.924        5.217      865.740
11/02/2014  19:16:00     -127.810       29.568      -10.059       25.615       19.420       14.481      656.126      377.133      209.708        0.928        0.062      131.186       10.347        0.006      334.968        5.292      865.740
11/02/2014  19:17:00     -142.252       17.222      -16.917       27.142       24.260       14.994      736.710      588.548      224.810        1.118        0.078      143.291       10.209        0.005      334.833        5.067      865.743
11/02/2014  19:18:00     -111.985       31.248      -14.191       47.272       27.621       21.598     2234.629      762.907      466.459        0.859        0.173      116.263       18.589        0.026      334.640        4.745      865.723
11/02/2014  19:19:00     -161.034       22.701      -13.147       37.646       30.914       20.538     1417.192      955.655      421.794        1.471        0.140      162.626       19.426        0.014      334.657        4.774      865.717
11/02/2014  19:20:00     -131.511       18.017       -7.519       30.444       29.398       20.920      926.828      864.233      437.649        0.995        0.111      132.740       17.629        0.018      334.659        4.776      865.708
11/02/2014  19:21:00     -165.989        9.267      -16.915       41.172       31.622       16.574     1695.133      999.948      274.695        1.545        0.148      166.248       15.696        0.009      334.606        4.690      865.690
11/02/2014  19:22:00     -133.068       -3.982      -10.952       55.408       33.547       23.706     3070.051     1125.400      561.986        1.130        0.238      133.127       17.497        0.017      334.574        4.637      865.688
11/02/2014  19:23:00     -164.475       15.889      -16.376       31.329       32.785       17.749      981.518     1074.872      315.022        1.497        0.119      165.241       11.989        0.005      334.503        4.518      865.695
11/02/2014  19:24:00     -164.645       -4.593      -20.769       37.685       33.426       19.817     1420.128     1117.322      392.699        1.524        0.147      164.709       18.660        0.013      334.552        4.600      865.697
11/02/2014  19:25:00      -90.173       -0.361       -6.736       31.608       29.832       22.282      999.072      889.967      496.468        0.528        0.119       90.174       19.701        0.048      334.539        4.579      865.713
11/02/2014  19:26:00      -97.772      -11.907       -7.032       39.196       45.231       23.820     1536.360     2045.872      567.406        0.695        0.207       98.494       20.522        0.043      334.508        4.525      865.723
11/02/2014  19:27:00     -142.480       31.423      -19.252       23.720       34.692       15.814      562.627     1203.549      250.068        1.184        0.101      145.904       10.006        0.005      334.507        4.527      865.726
11/02/2014  19:28:00     -112.871       26.958      -10.263       52.259       33.105       20.839     2730.991     1095.934      434.257        0.892        0.213      116.046       24.956        0.046      334.427        4.393      865.740
11/02/2014  19:29:00     -134.135        4.205       -9.979       32.159       26.079       24.074     1034.173      680.117      579.573        1.020        0.115      134.201       19.867        0.022      334.455        4.440      865.756
11/02/2014  19:30:00     -150.177       24.007      -17.103       40.990       27.338       19.967     1680.212      747.362      398.679        1.312        0.141      152.084       13.132        0.007      334.502        4.516      865.761
11/02/2014  19:31:00     -153.830      -12.848      -23.060       37.786       42.665       20.368     1427.767     1820.334      414.865        1.401        0.183      154.366       16.239        0.011      334.430        4.398      865.781
11/02/2014  19:32:00     -106.818      -36.396       -6.004       29.631       37.156       23.185      877.992     1380.577      537.550        0.778        0.140      112.848       14.899        0.017      334.415        4.372      865.789
11/02/2014  19:33:00     -128.556       -8.158      -17.080       34.311       36.045       21.952     1177.240     1299.252      481.879        0.992        0.148      128.815       18.197        0.020      334.421        4.383      865.803
11/02/2014  19:34:00     -108.181      -29.482      -17.151       31.175       25.814       20.966      971.880      666.373      439.572        0.747        0.104      112.126       13.443        0.014      334.387        4.326      865.824
11/02/2014  19:35:00     -109.826      -35.700      -13.633       36.140       28.609       23.227     1306.109      818.485      539.476        0.809        0.133      115.482       17.845        0.024      334.412        4.367      865.832
11/02/2014  19:36:00      -99.675      -30.950      -10.169       17.658       25.624       18.225      311.822      656.567      332.161        0.615        0.065      104.369        7.298        0.005      334.372        4.303      865.845
11/02/2014  19:37:00     -110.577      -28.411      -17.468       30.545       30.166       15.448      932.996      909.960      238.653        0.771        0.104      114.169        8.913        0.006      334.301        4.185      865.858
11/02/2014  19:38:00      -73.663      -23.302       -5.487       24.138       20.027       16.693      582.632      401.076      278.670        0.363        0.063       77.261       14.358        0.035      334.291        4.166      865.852
11/02/2014  19:39:00      -89.914        6.582      -19.611       27.149       23.778       17.535      737.070      565.375      307.482        0.506        0.080       90.155        5.832        0.004      334.424        4.387      865.863
11/02/2014  19:40:00      -74.920        5.196      -17.364       28.183       34.713       18.045      794.293     1205.004      325.635        0.413        0.116       75.100       11.511        0.023      334.498        4.511      865.862
11/02/2014  19:41:00      -67.220      -28.453       -7.124       45.439       27.733       29.465     2064.730      769.093      868.187        0.454        0.185       72.994       29.165        0.160      334.448        4.428      865.868
11/02/2014  19:42:00      -66.510      -14.331      -11.010       16.557       20.365       17.084      274.129      414.714      291.858        0.287        0.049       68.037       12.936        0.036      334.473        4.469      865.884
11/02/2014  19:43:00      -66.415      -28.557       -5.560       24.449       24.877       11.642      597.741      618.844      135.527        0.330        0.068       72.294        4.813        0.004      334.451        4.435      865.903
11/02/2014  19:44:00      -57.688        2.284       -8.175       25.554       22.052       15.020      652.987      486.298      225.600        0.238        0.068       57.733       13.306        0.053      334.425        4.389      865.922
11/02/2014  19:45:00      -16.939      -37.460       -5.992       35.622       18.366       11.881     1268.917      337.299      141.167        0.174        0.087       41.112       12.940        0.099      334.438        4.410      865.954
11/02/2014  19:46:00       14.299      -26.107        6.591       14.713       18.668       16.208      216.484      348.502      262.705        0.088        0.041       29.766        8.755        0.087      334.493        4.503      865.967
11/02/2014  19:47:00      -23.523      -45.642       -3.400       41.807       16.483       15.740     1747.800      271.674      247.762        0.246        0.113       51.347       13.225        0.066      334.410        4.364      865.972
11/02/2014  19:48:00      -53.340      -29.133       -5.333       16.966       13.692       10.271      287.839      187.471      105.486        0.215        0.029       60.778        5.080        0.007      334.396        4.342      865.980
11/02/2014  19:49:00      -60.253      -27.895        3.361       31.195       22.779       15.368      973.139      518.902      236.168        0.307        0.086       66.397       13.645        0.042      334.413        4.371      865.986
11/02/2014  19:50:00      -72.324      -34.436        0.402       33.164       23.973       13.179     1099.833      574.699      173.691        0.413        0.092       80.103        8.836        0.012      334.433        4.403      866.000
11/02/2014  19:51:00       -1.225      -22.443       15.820       24.688       19.906       19.266      609.489      396.252      371.179        0.107        0.069       22.477        7.877        0.123      334.470        4.464      866.014
11/02/2014  19:52:00     -104.285     -110.736      -19.961       37.083       32.742       20.838     1375.151     1072.070      434.213        1.321        0.144      152.111       15.797        0.011      334.516        4.539      866.027
11/02/2014  19:53:00      -65.333      -71.302        5.644       41.782       36.864       27.012     1745.754     1358.984      729.625        0.661        0.192       96.708       27.414        0.080      334.323        4.221      866.033
11/02/2014  19:54:00     -117.714      -61.404       -9.501       38.891       26.442       17.655     1512.495      699.188      311.691        1.012        0.126      132.767       18.537        0.019      334.364        4.287      866.034
11/02/2014  19:55:00      -90.184      -34.304       -6.115       48.955       34.604       23.115     2396.624     1197.409      534.308        0.674        0.206       96.488       20.248        0.044      334.323        4.221      866.039
11/02/2014  19:56:00      -58.483      -39.172        7.821       58.759       29.634       23.426     3452.641      878.177      548.791        0.495        0.244       70.389       32.191        0.209      334.380        4.314      866.050
11/02/2014  19:57:00     -112.381      -60.201        3.744       35.616       30.667       16.920     1268.499      940.470      286.275        0.938        0.125      127.490       15.499        0.015      334.379        4.312      866.069
11/02/2014  19:58:00      -95.699      -66.395       -6.533       42.397       26.185       18.608     1797.521      685.665      346.251        0.822        0.141      116.476       16.444        0.020      334.456        4.442      866.092
11/02/2014  19:59:00     -111.226      -18.720       -4.682       26.500       32.168       18.110      702.250     1034.782      327.990        0.740        0.103      112.791       13.785        0.015      334.426        4.392      866.108
11/02/2014  20:00:00     -122.848      -24.388       -3.439       40.522       31.771       24.696     1642.009     1009.388      609.909        0.948        0.163      125.245       23.688        0.036      334.311        4.200      866.118
11/02/2014  20:01:00     -124.722      -38.641       -6.135       39.558       33.507       23.223     1564.853     1122.747      539.285        1.016        0.161      130.571       21.888        0.028      334.262        4.118      866.124
11/02/2014  20:02:00     -140.840      -57.462       -2.011       48.271       37.887       22.553     2330.089     1435.414      508.628        1.371        0.214      152.111       23.358        0.024      334.241        4.084      866.128
11/02/2014  20:03:00     -152.230      -73.603       -3.233       39.686       34.251       24.325     1574.942     1173.140      591.706        1.597        0.167      169.090       23.866        0.020      334.218        4.046      866.125
11/02/2014  20:04:00     -126.290      -39.803       -3.815       43.293       40.175       22.651     1874.284     1614.035      513.065        1.077        0.200      132.414       25.722        0.038      334.254        4.105      866.128
11/02/2014  20:05:00     -130.383      -12.569      -10.384       44.543       23.366       20.705     1984.123      545.984      428.696        1.011        0.148      130.988       23.040        0.031      334.133        3.905      866.142
11/02/2014  20:06:00     -120.220       -6.665       -6.456       32.615       28.956       18.102     1063.752      838.467      327.669        0.838        0.111      120.405       17.143        0.020      334.077        3.812      866.150
11/02/2014  20:07:00      -85.583        5.623       -2.554       30.931       25.208       13.742      956.709      635.431      188.840        0.457        0.089       85.767       10.845        0.016      334.094        3.841      866.153
11/02/2014  20:08:00     -108.952       -7.456      -10.540       25.083       21.276       13.640      629.169      452.669      186.041        0.665        0.063      109.207       11.262        0.011      334.147        3.929      866.166
11/02/2014  20:09:00      -76.082      -24.534        0.863       33.391       28.962       17.532     1114.952      838.784      307.365        0.433        0.113       79.940       14.373        0.032      334.112        3.870      866.181
11/02/2014  20:10:00      -79.631      -58.625       -5.370       42.930       22.899       16.149     1842.982      524.364      260.781        0.622        0.131       98.884       16.576        0.028      334.124        3.890      866.182
11/02/2014  20:11:00      -87.559      -43.390       -2.066       24.307       32.526       21.919      590.819     1057.972      480.454        0.584        0.106       97.721       19.789        0.041      334.165        3.959      866.180
11/02/2014  20:12:00     -128.713      -22.618       -8.937       24.368       20.097       18.124      593.806      403.902      328.495        0.924        0.066      130.686       15.776        0.015      334.103        3.855      866.184
11/02/2014  20:13:00     -112.325      -23.615       -8.483       22.131       29.256       15.935      489.786      855.911      253.920        0.742        0.080      114.781       13.064        0.013      334.169        3.965      866.187
11/02/2014  20:14:00     -116.636      -17.266       -9.566       33.394       22.064       17.760     1115.168      486.831      315.427        0.796        0.096      117.907       15.177        0.017      334.152        3.936      866.183
11/02/2014  20:15:00     -130.465      -11.866       -7.888       27.659       19.497       16.619      765.047      380.127      276.200        0.932        0.071      131.004       16.262        0.015      334.092        3.837      866.179
11/02/2014  20:16:00     -147.283      -21.025      -10.272       39.754       25.391       19.673     1580.383      644.682      387.010        1.243        0.131      148.776       17.603        0.014      333.979        3.650      866.174
11/02/2014  20:17:00     -166.168       -6.197      -13.800       29.362       22.885       19.773      862.107      523.709      390.970        1.481        0.089      166.283       18.743        0.013      333.941        3.586      866.180
11/02/2014  20:18:00     -148.273       -0.560      -21.143       21.142       27.588       16.003      447.000      761.121      256.103        1.195        0.073      148.274       12.679        0.007      333.966        3.627      866.184
11/02/2014  20:19:00     -147.503       -9.426      -18.962       32.409       34.042       17.430     1050.374     1158.862      303.812        1.236        0.126      147.804       18.100        0.015      333.926        3.562      866.179
11/02/2014  20:20:00     -134.409      -28.678      -16.113       28.365       34.280       17.482      804.592     1175.088      305.624        1.072        0.114      137.435       12.175        0.008      333.975        3.642      866.168
11/02/2014  20:21:00     -127.533      -74.922       -4.759       30.342       35.946       17.909      920.625     1292.131      320.722        1.222        0.127      147.912       12.316        0.007      333.915        3.544      866.166
11/02/2014  20:22:00     -123.090       -7.447      -15.140       46.281       44.811       28.763     2141.961     2008.039      827.320        1.021        0.249      123.315       27.499        0.050      333.931        3.570      866.169
11/02/2014  20:23:00     -176.877       17.040      -19.687       28.153       36.842       16.745      792.582     1357.357      280.381        1.720        0.122      177.696       10.782        0.004      333.812        3.370      866.185
11/02/2014  20:24:00     -129.381      -24.390      -17.896       38.668       31.328       19.690     1495.216      981.421      387.710        1.026        0.143      131.660       20.822        0.025      333.850        3.434      866.220
11/02/2014  20:25:00     -112.619       -6.432      -15.558       27.990       46.883       17.788      783.414     2197.992      316.424        0.813        0.165      112.802       13.880        0.015      333.918        3.548      866.247
11/02/2014  20:26:00      -98.254      -37.959       -9.178       31.934       47.036       20.460     1019.785     2212.421      418.614        0.741        0.183      105.332       12.601        0.014      333.930        3.567      866.270
11/02/2014  20:27:00     -125.553      -13.174      -21.623       29.153       27.709       14.429      849.872      767.792      208.185        0.911        0.091      126.242       15.877        0.016      333.860        3.452      866.298
11/02/2014  20:28:00      -67.160      -24.878      -16.636       43.885       27.494       18.265     1925.930      755.946      333.594        0.421        0.151       71.620       11.270        0.025      333.886        3.495      866.306
11/02/2014  20:29:00      -90.805      -33.253      -11.488       32.410       24.935       14.884     1050.420      621.730      221.539        0.569        0.095       96.702       10.753        0.012      333.875        3.477      866.309
11/02/2014  20:30:00     -113.985      -41.714       -5.041       39.720       30.169       18.436     1577.687      910.153      339.886        0.879        0.141      121.378       22.605        0.035      333.798        3.349      866.325
11/02/2014  20:31:00     -100.960      -59.763       -1.702       29.724       24.252       19.393      883.522      588.169      376.071        0.781        0.092      117.322       19.593        0.028      333.837        3.416      866.343
11/02/2014  20:32:00     -110.899      -64.243       -7.854       22.580       19.231       15.254      509.851      369.825      232.678        0.880        0.056      128.163       10.767        0.007      333.903        3.523      866.349
11/02/2014  20:33:00     -105.350      -30.439       -3.039       32.520       23.805       21.752     1057.542      566.658      473.166        0.707        0.105      109.660       17.490        0.025      333.942        3.588      866.381
11/02/2014  20:34:00     -113.000      -66.090       -1.529       25.454       21.371       17.697      647.887      456.731      313.191        0.928        0.071      130.908       14.109        0.012      333.959        3.618      866.403
11/02/2014  20:35:00      -96.898      -48.445       -6.406       37.739       28.122       21.979     1424.219      790.835      483.069        0.724        0.135      108.333       21.273        0.039      333.963        3.622      866.408
11/02/2014  20:36:00     -103.858      -52.818       -7.817       26.079       28.105       13.976      680.138      789.900      195.325        0.765        0.083      116.517        8.353        0.005      333.994        3.675      866.421
11/02/2014  20:37:00      -92.021      -22.503       -0.263       47.830       30.908       23.646     2287.713      955.323      559.117        0.639        0.190       94.733       24.470        0.067      333.868        3.465      866.438
11/02/2014  20:38:00      -86.855      -11.696       -2.376       40.389       35.312       21.212     1631.258     1246.940      449.929        0.551        0.166       87.639       21.140        0.058      333.801        3.353      866.444
11/02/2014  20:39:00     -144.157        3.121      -13.295       26.409       32.877       19.644      697.411     1080.916      385.891        1.157        0.108      144.191       16.691        0.013      333.818        3.382      866.457
11/02/2014  20:40:00     -139.458        6.362      -15.452       31.823       19.037       16.708     1012.709      362.404      279.168        1.069        0.083      139.603       13.464        0.009      333.780        3.317      866.468
11/02/2014  20:41:00     -166.816       -2.229      -20.560       15.946       17.636       12.946      254.278      311.027      167.605        1.449        0.037      166.831        7.976        0.002      333.791        3.336      866.466
11/02/2014  20:42:00      -95.078      -45.607       -4.446       39.747       33.254       20.112     1579.841     1105.836      404.497        0.711        0.155      105.450       18.956        0.032      333.707        3.199      866.461
11/02/2014  20:43:00     -108.760      -23.759      -10.066       24.712       23.619       14.864      610.690      557.871      220.927        0.694        0.069      111.325       10.424        0.009      333.863        3.456      866.462
11/02/2014  20:44:00     -101.438      -21.703       -7.075       21.682       32.615       17.734      470.124     1063.769      314.490        0.633        0.092      103.734       13.414        0.017      333.791        3.338      866.456
11/02/2014  20:45:00     -102.349      -51.577       -3.823       35.853       30.872       20.704     1285.418      953.107      428.669        0.791        0.133      114.610       19.346        0.028      333.743        3.258      866.449
11/02/2014  20:46:00      -93.020      -21.052       -3.620       35.819       32.907       19.822     1282.969     1082.856      392.902        0.593        0.138       95.373       20.655        0.047      333.595        3.012      866.450
11/02/2014  20:47:00     -109.103        6.555      -11.603       44.237       37.631       23.511     1956.908     1416.080      552.746        0.800        0.196      109.299       24.277        0.049      333.532        2.909      866.441
11/02/2014  20:48:00     -148.904      -11.911      -14.723       34.999       26.732       22.104     1224.929      714.601      488.578        1.248        0.121      149.379       21.622        0.021      333.477        2.816      866.434
11/02/2014  20:49:00     -132.109      -21.388      -14.611       29.747       24.633       15.194      884.882      606.788      230.858        0.992        0.086      133.829        9.786        0.005      333.512        2.874      866.447
11/02/2014  20:50:00     -110.580       -1.143       -8.901       29.614       35.458       21.800      876.972     1257.270      475.247        0.746        0.130      110.586       16.944        0.023      333.547        2.932      866.464
11/02/2014  20:51:00     -105.292      -34.165       -9.970       44.979       26.883       21.481     2023.092      722.720      461.413        0.778        0.160      110.696       24.872        0.050      333.585        2.995      866.482
11/02/2014  20:52:00     -103.686      -30.689      -15.933       24.757       20.325       13.455      612.915      413.106      181.040        0.658        0.060      108.133       10.114        0.009      333.578        2.984      866.503
11/02/2014  20:53:00      -52.314      -29.885       -7.346       27.637       23.420       15.792      763.823      548.490      249.382        0.262        0.078       60.249       11.492        0.036      333.598        3.016      866.519
11/02/2014  20:54:00      -43.770      -17.376       -0.737       26.380       21.083       16.245      695.917      444.498      263.913        0.181        0.070       47.093       10.421        0.049      333.600        3.021      866.532
11/02/2014  20:55:00      -88.953       -8.344       -8.066       32.407       22.315       18.805     1050.210      497.974      353.616        0.497        0.095       89.343       17.464        0.038      333.555        2.946      866.556
11/02/2014  20:56:00      -67.283      -33.233       -6.988       23.966       21.197       13.109      574.347      449.309      171.847        0.344        0.060       75.043        9.346        0.016      333.596        3.013      866.588
11/02/2014  20:57:00      -48.970      -29.933       -0.985       24.734       18.212       10.642      611.767      331.666      113.253        0.218        0.053       57.394       11.000        0.037      333.729        3.235      866.610
11/02/2014  20:58:00       -3.107      -31.194       10.785       17.296       18.976       15.273      299.158      360.073      233.276        0.100        0.045       31.348        5.176        0.027      333.878        3.482      866.626
11/02/2014  20:59:00       -2.278      -16.552       15.097       18.856       16.949       15.854      355.530      287.252      251.357        0.070        0.045       16.708       11.412        0.467      333.784        3.327      866.649
11/02/2014  21:00:00      -17.914      -31.609      -10.034       23.705       19.771       17.664      561.922      390.901      312.001        0.134        0.063       36.333       10.991        0.092      333.926        3.562      866.672
11/02/2014  21:01:00      -17.967      -48.500       -2.189       28.327       24.078       16.896      802.447      579.728      285.489        0.217        0.083       51.721       16.209        0.098      333.865        3.462      866.690
11/02/2014  21:02:00      -43.926      -60.967        3.288       36.305       40.274       21.209     1318.071     1622.004      449.822        0.452        0.169       75.143       22.550        0.090      333.681        3.155      866.702
11/02/2014  21:03:00      -35.534      -49.657        6.324       48.356       32.411       23.294     2338.275     1050.463      542.626        0.385        0.197       61.061       21.769        0.127      333.554        2.944      866.698
11/02/2014  21:04:00      -79.308      -79.054      -11.317       45.946       43.414       24.229     2111.063     1884.811      587.067        0.862        0.229      111.979       17.147        0.023      333.633        3.076      866.685
11/02/2014  21:05:00     -102.454     -108.373      -10.855       50.486       43.363       30.284     2548.881     1880.361      917.137        1.385        0.267      149.136       22.370        0.022      333.621        3.056      866.679
11/02/2014  21:06:00      -83.998     -119.963       -0.730       43.774       41.059       27.778     1916.158     1685.856      771.642        1.291        0.219      146.447       27.652        0.036      333.646        3.097      866.676
11/02/2014  21:07:00     -124.679      -80.106      -12.138       32.343       49.026       17.216     1046.054     2403.507      296.387        1.293        0.187      148.195       16.599        0.013      333.640        3.087      866.672
11/02/2014  21:08:00      -74.507      -65.693        0.813       43.761       36.613       25.948     1915.046     1340.533      673.298        0.690        0.196       99.332       23.305        0.055      333.670        3.135      866.676
11/02/2014  21:09:00      -79.862      -72.420       -4.288       60.248       41.225       24.934     3629.799     1699.486      621.718        0.879        0.298      107.808       28.253        0.069      333.605        3.028      866.683
11/02/2014  21:10:00      -55.558      -61.588        0.819       60.409       30.954       23.842     3649.255      958.143      568.442        0.603        0.259       82.945       24.698        0.089      333.643        3.092      866.690
11/02/2014  21:11:00      -68.218      -71.998       -4.446       39.357       44.408       21.056     1548.967     1972.067      443.341        0.691        0.198       99.184       23.673        0.057      333.554        2.944      866.713
11/02/2014  21:12:00      -68.926      -61.161       -4.440       37.422       32.109       21.437     1400.430     1030.977      459.557        0.570        0.145       92.150       14.669        0.025      333.595        3.013      866.737
11/02/2014  21:13:00      -50.259      -30.985        2.512       54.691       20.156       20.583     2991.116      406.251      423.677        0.366        0.191       59.042       20.261        0.118      333.635        3.079      866.754
11/02/2014  21:14:00      -74.723      -58.526        0.622       40.970       26.567       23.738     1678.561      705.830      563.512        0.598        0.147       94.915       23.358        0.061      333.514        2.877      866.781
11/02/2014  21:15:00      -40.220      -46.994        5.540       40.099       32.866       22.958     1607.890     1080.206      527.080        0.354        0.161       61.855       16.021        0.067      333.511        2.873      866.809
11/02/2014  21:16:00      -50.008      -36.105       -3.374       38.571       28.775       24.028     1487.759      827.995      577.366        0.335        0.145       61.679       20.086        0.106      333.572        2.974      866.834
11/02/2014  21:17:00      -49.227      -32.066       -1.237       32.469       27.745       16.856     1054.237      769.772      284.132        0.278        0.105       58.750       18.655        0.101      333.530        2.904      866.842
11/02/2014  21:18:00      -39.220      -30.094       -5.174       40.618       24.574       18.210     1649.850      603.895      331.592        0.253        0.129       49.435       19.821        0.161      333.588        3.001      866.848
11/02/2014  21:19:00      -38.556      -27.992        5.191       37.923       29.217       18.393     1438.173      853.615      338.296        0.246        0.132       47.645       16.101        0.114      333.639        3.087      866.847
11/02/2014  21:20:00      -24.142      -41.157        4.117       46.821       35.213       18.643     2192.215     1239.987      347.554        0.304        0.189       47.715       17.947        0.141      333.690        3.170      866.851
11/02/2014  21:21:00      -14.607      -39.759        3.374       17.204       28.725       15.382      295.988      825.113      236.615        0.158        0.068       42.357       13.958        0.109      333.667        3.132      866.849
11/02/2014  21:22:00        5.651       -5.190       13.674       13.961       18.426       10.742      194.915      339.531      115.392        0.045        0.032        7.672       10.699        1.945      333.593        3.010      866.846
11/02/2014  21:23:00       -2.191        0.666        8.814       19.748       13.510       13.021      389.990      182.526      169.542        0.041        0.037        2.290       10.993       23.044      333.619        3.053      866.844
11/02/2014  21:24:00      -30.705      -24.355        5.145       18.690       41.042       16.620      349.327     1684.407      276.236        0.194        0.115       39.191       15.335        0.153      333.598        3.018      866.842
11/02/2014  21:25:00      -24.056      -23.253        1.517       36.572       28.244       19.049     1337.511      797.733      362.846        0.181        0.125       33.458       19.335        0.334      333.614        3.045      866.837
11/02/2014  21:26:00      -22.857        3.291        2.630       17.457       13.285       13.952      304.762      176.478      194.669        0.061        0.034       23.093        9.276        0.161      333.596        3.015      866.836
11/02/2014  21:27:00      -11.097       11.201       11.294       17.934       13.524       14.649      321.645      182.906      214.601        0.055        0.036       15.767       13.644        0.749      333.587        3.000      866.843
11/02/2014  21:28:00       13.301        6.573       24.818       18.304       12.334       13.164      335.035      152.124      173.295        0.075        0.033       14.837        9.353        0.397      333.565        2.963      866.841
11/02/2014  21:29:00      -29.307       32.527       -0.740       22.067       24.677       13.629      486.932      608.946      185.737        0.160        0.064       43.783       13.966        0.102      333.584        2.995      866.845
11/02/2014  21:30:00      -87.827       14.039      -12.840       36.097       16.008       13.718     1303.010      256.271      188.175        0.491        0.087       88.942       18.357        0.043      333.539        2.920      866.849
11/02/2014  21:31:00     -102.057        3.583       -9.729       17.858       17.567        9.272      318.895      308.595       85.965        0.562        0.036      102.119        8.438        0.007      333.618        3.050      866.853
11/02/2014  21:32:00      -80.709      -18.050      -11.426       18.340       17.417       13.441      336.346      303.345      180.663        0.390        0.041       82.703        9.560        0.013      333.639        3.085      866.848
11/02/2014  21:33:00      -93.572      -18.736       -6.716       21.773       16.135       13.111      474.076      260.338      171.904        0.503        0.045       95.429       10.797        0.013      333.636        3.082      866.840
11/02/2014  21:34:00      -90.086      -30.814       -7.305       15.434       12.516       12.674      238.208      156.644      160.642        0.484        0.028       95.211        8.685        0.008      333.553        2.943      866.822
11/02/2014  21:35:00     -111.593      -45.718      -11.884       10.953       15.975       10.182      119.973      255.192      103.679        0.758        0.024      120.595        2.729        0.001      333.451        2.772      866.798
11/02/2014  21:36:00      -98.258      -62.593       -8.194       22.057       17.364       14.634      486.500      301.516      214.164        0.732        0.050      116.501       10.512        0.008      333.417        2.717      866.784
11/02/2014  21:37:00      -84.821      -57.310       -8.989       18.554       19.187       16.201      344.256      368.132      262.483        0.577        0.049      102.367        9.724        0.009      333.401        2.691      866.783
11/02/2014  21:38:00      -62.993      -43.157       -4.773       27.018       14.521       15.435      729.981      210.868      238.227        0.352        0.059       76.358       14.148        0.034      333.446        2.764      866.781
11/02/2014  21:39:00      -66.732      -16.635       -2.706       25.257       22.046       12.487      637.941      486.019      155.929        0.301        0.064       68.774       10.694        0.024      333.429        2.737      866.780
11/02/2014  21:40:00      -68.296       -6.499        2.815       32.388       20.583       18.487     1048.954      423.662      341.763        0.326        0.091       68.605       15.352        0.050      333.273        2.480      866.789
11/02/2014  21:41:00      -90.380       -0.674        2.118       56.909       30.198       24.416     3238.658      911.941      596.156        0.646        0.237       90.383       30.223        0.112      333.170        2.310      866.804
11/02/2014  21:42:00      -99.804      -23.758        1.371       37.618       33.879       21.720     1415.096     1147.780      471.758        0.678        0.152      102.593       21.351        0.043      333.125        2.236      866.814
11/02/2014  21:43:00     -113.907      -48.419       -1.654       45.508       37.805       22.083     2070.948     1429.201      487.675        0.965        0.199      123.771       22.525        0.033      333.169        2.309      866.821
11/02/2014  21:44:00     -135.238      -63.115       -8.003       46.900       30.184       19.112     2199.597      911.102      365.282        1.291        0.174      149.241       17.795        0.014      333.211        2.376      866.835
11/02/2014  21:45:00     -147.604      -70.104       -6.012       31.803       28.124       19.647     1011.430      790.984      385.998        1.446        0.109      163.406       15.996        0.010      333.221        2.393      866.848
11/02/2014  21:46:00     -137.325      -53.870       -8.314       24.697       30.319       15.924      609.960      919.241      253.569        1.181        0.089      147.513       13.933        0.009      333.277        2.487      866.866
11/02/2014  21:47:00     -157.566      -19.326      -17.488       31.721       31.065       21.522     1006.204      965.016      463.192        1.397        0.122      158.747       21.275        0.018      333.267        2.470      866.888
11/02/2014  21:48:00      -86.843      -64.982        2.298       38.493       32.220       23.480     1481.729     1038.099      551.326        0.742        0.154      108.463       20.893        0.037      333.226        2.402      866.892
11/02/2014  21:49:00      -78.657      -44.891       -5.043       46.814       27.854       19.790     2191.505      775.859      391.637        0.579        0.168       90.566       15.198        0.028      333.321        2.558      866.886
11/02/2014  21:50:00      -99.841      -37.330      -13.371       26.225       18.131       13.488      687.742      328.728      181.921        0.637        0.060      106.592        8.694        0.007      333.165        2.302      866.877
11/02/2014  21:51:00      -81.977      -39.029       -2.780       37.932       36.950       17.656     1438.847     1365.313      311.749        0.568        0.156       90.794       20.159        0.049      333.096        2.187      866.860
11/02/2014  21:52:00      -80.112        5.734       -8.125       14.000       15.796        9.028      195.993      249.498       81.503        0.352        0.026       80.317        5.943        0.005      333.023        2.066      866.844
11/02/2014  21:53:00      -66.949       -7.573      -10.542       13.124       16.349        9.319      172.241      267.285       86.848        0.259        0.026       67.376        6.353        0.009      333.026        2.072      866.827
11/02/2014  21:54:00      -68.139      -20.901       -7.159       11.737        9.123        8.826      137.754       83.238       77.891        0.271        0.015       71.272        6.470        0.008      333.017        2.055      866.818
11/02/2014  21:55:00      -69.404      -26.557      -11.388       16.473       14.230        7.956      271.355      202.491       63.297        0.309        0.027       74.312        4.971        0.004      333.025        2.069      866.805
11/02/2014  21:56:00      -84.071      -20.240      -10.587       17.282       10.527       10.153      298.663      110.813      103.091        0.405        0.026       86.473        5.721        0.004      333.069        2.143      866.802
11/02/2014  21:57:00      -53.536      -28.449       -7.009       17.420       14.787       11.589      303.447      218.669      134.305        0.219        0.033       60.625       10.048        0.027      333.032        2.081      866.807
11/02/2014  21:58:00      -76.164      -17.274       -8.485       10.356       14.588        9.366      107.243      212.820       87.718        0.329        0.020       78.098        4.129        0.003      333.091        2.180      866.793
11/02/2014  21:59:00      -61.133      -18.627       -8.909       12.560        9.982        9.311      157.755       99.634       86.693        0.225        0.017       63.907        6.007        0.009      333.062        2.131      866.779
11/02/2014  22:00:00      -48.424       -5.415       -5.152       14.423       17.285       10.943      208.036      298.781      119.739        0.151        0.031       48.726        7.022        0.021      333.148        2.272      866.768
11/02/2014  22:01:00      -62.799      -28.045       -8.829       16.540       14.202       11.373      273.562      201.700      129.338        0.271        0.030       68.777        5.975        0.008      333.134        2.250      866.769
11/02/2014  22:02:00      -64.651      -22.750      -18.370        7.269        9.288        9.030       52.844       86.262       81.548        0.263        0.011       68.537        4.259        0.004      333.060        2.129      866.770
11/02/2014  22:03:00      -68.025      -37.391      -10.247       14.076       10.837        9.272      198.145      117.436       85.972        0.327        0.020       77.624        6.945        0.008      333.066        2.139      866.764
11/02/2014  22:04:00      -73.504      -42.939      -10.894       13.911       17.563       12.096      193.512      308.452      146.310        0.401        0.032       85.127        9.191        0.012      332.973        1.986      866.758
11/02/2014  22:05:00      -98.326      -50.164      -14.548       19.739       14.815        8.868      389.645      219.473       78.649        0.654        0.034      110.383        6.533        0.004      332.998        2.025      866.759
11/02/2014  22:06:00     -117.863      -37.288      -11.125       10.352        9.810        8.055      107.163       96.240       64.878        0.784        0.013      123.620        2.039        0.000      332.984        2.000      866.768
11/02/2014  22:07:00     -103.708      -47.410       -7.247       13.081       12.985       10.330      171.100      168.607      106.706        0.675        0.022      114.031        5.932        0.003      332.989        2.011      866.773
11/02/2014  22:08:00      -96.810      -36.315      -12.325       11.398       11.739        8.773      129.910      137.802       76.969        0.559        0.017      103.397        3.360        0.001      333.025        2.069      866.777
11/02/2014  22:09:00      -96.570      -31.172       -5.996       16.741       13.628       10.533      280.248      185.718      110.937        0.546        0.029      101.477        8.270        0.007      333.048        2.108      866.785
11/02/2014  22:10:00      -94.072      -58.875       -6.068       28.546       16.314       15.164      814.876      266.133      229.949        0.683        0.066      110.976       12.040        0.012      333.050        2.111      866.792
11/02/2014  22:11:00      -79.146      -44.006       -2.376       31.380       20.678       13.125      984.692      427.597      172.266        0.490        0.079       90.557       15.898        0.031      333.019        2.059      866.794
11/02/2014  22:12:00      -71.821      -22.112       -5.265       19.893       13.377       16.448      395.748      178.951      270.547        0.326        0.042       75.148       13.151        0.031      333.077        2.155      866.798
11/02/2014  22:13:00      -45.237      -26.784        2.554       23.760       18.474       11.113      564.525      341.292      123.492        0.190        0.051       52.571       12.181        0.054      333.103        2.198      866.795
11/02/2014  22:14:00      -39.918      -16.412        0.498       19.144       14.908        9.001      366.509      222.247       81.016        0.127        0.033       43.160        8.627        0.040      333.069        2.142      866.787
11/02/2014  22:15:00      -53.834      -12.029       -1.111       16.605       14.516        9.518      275.715      210.712       90.585        0.181        0.029       55.162        7.051        0.016      333.108        2.207      866.782
11/02/2014  22:16:00      -70.760      -21.683       -1.779       24.288       17.638       12.167      589.929      311.096      148.038        0.326        0.052       74.007       11.235        0.023      333.145        2.267      866.781
11/02/2014  22:17:00      -86.790      -20.471       -2.651       26.800       21.644       15.688      718.233      468.474      246.108        0.470        0.072       89.172       15.365        0.030      333.013        2.050      866.783
11/02/2014  22:18:00     -116.580      -35.889       -4.199       25.043       19.697       16.658      627.136      387.989      277.503        0.809        0.065      121.979       13.763        0.013      332.956        1.956      866.778
11/02/2014  22:19:00     -111.004      -53.358        1.107       36.773       30.948       22.518     1352.278      957.792      507.046        0.899        0.141      123.162       21.173        0.030      332.917        1.891      866.779
11/02/2014  22:20:00      -89.917      -56.430       -4.446       29.276       19.943       21.556      857.083      397.708      464.658        0.650        0.086      106.158       18.124        0.029      332.927        1.907      866.783
11/02/2014  22:21:00      -71.190      -35.733        0.967       18.368       14.660       12.826      337.370      214.912      164.494        0.353        0.036       79.655        8.610        0.012      332.974        1.985      866.778
11/02/2014  22:22:00      -27.651      -18.736        5.173       27.010       16.740       14.422      729.522      280.220      208.004        0.118        0.061       33.400       13.502        0.163      332.981        1.998      866.781
11/02/2014  22:23:00        6.236      -20.931        3.197       15.839       12.821       10.804      250.870      164.374      116.718        0.051        0.027       21.840        6.039        0.076      332.991        2.013      866.783
11/02/2014  22:24:00        8.582      -29.302        0.841       10.001       16.499       10.821      100.020      272.222      117.098        0.071        0.024       30.533        7.385        0.058      333.023        2.067      866.790
11/02/2014  22:25:00      -18.312        8.576       -5.434        9.597       11.409        8.219       92.105      130.160       67.550        0.036        0.014       20.221        3.839        0.036      333.082        2.165      866.794
11/02/2014  22:26:00      -30.597      -16.495       -3.626       20.325       19.770        8.440      413.122      390.860       71.231        0.105        0.044       34.760        4.112        0.014      333.114        2.217      866.798
11/02/2014  22:27:00      -51.455      -26.894        0.750       28.867       21.124       13.817      833.284      446.222      190.913        0.242        0.074       58.059       12.436        0.046      333.074        2.153      866.784
11/02/2014  22:28:00      -28.303      -26.991        5.356       38.220       23.205       19.850     1460.800      538.449      394.040        0.198        0.120       39.110       18.806        0.231      333.071        2.146      866.778
11/02/2014  22:29:00     -105.239      -99.211        0.431       41.427       40.501       21.119     1716.209     1640.314      445.992        1.236        0.190      144.631       16.890        0.014      333.019        2.060      866.776
11/02/2014  22:30:00     -121.537     -129.519       -3.291       38.872       44.276       26.737     1511.033     1960.365      714.848        1.787        0.209      177.613       23.777        0.018      332.963        1.966      866.772
11/02/2014  22:31:00     -128.250      -94.350        0.388       36.054       47.325       25.209     1299.861     2239.658      635.484        1.476        0.209      159.216       15.013        0.009      332.970        1.979      866.768
11/02/2014  22:32:00     -126.868      -68.016       -9.116       42.015       30.108       26.771     1765.232      906.515      716.678        1.210        0.169      143.950       23.687        0.027      333.039        2.094      866.781
11/02/2014  22:33:00      -77.740      -53.014        4.056       68.396       44.807       30.919     4678.026     2007.704      955.976        0.825        0.382       94.095       32.890        0.122      332.955        1.956      866.791
11/02/2014  22:34:00      -68.438      -41.931        5.186       63.595       39.696       26.668     4044.272     1575.784      711.199        0.640        0.317       80.262       23.934        0.089      332.889        1.846      866.807
11/02/2014  22:35:00      -55.531      -53.030       10.051       39.738       39.288       23.509     1579.085     1543.570      552.694        0.484        0.184       76.785       20.620        0.072      332.926        1.906      866.827
11/02/2014  22:36:00      -65.850      -52.357       13.062       54.726       62.961       26.245     2994.950     3964.122      688.774        0.745        0.382       84.128       25.392        0.091      332.872        1.818      866.839
11/02/2014  22:37:00      -72.021      -46.539       12.139       32.207       43.069       26.240     1037.311     1854.896      688.550        0.554        0.179       85.749       17.085        0.040      332.831        1.750      866.835
11/02/2014  22:38:00      -83.761      -68.135      -15.363       37.607       31.541       26.381     1414.258      994.812      695.944        0.750        0.155      107.974       18.293        0.029      332.859        1.797      866.825
11/02/2014  22:39:00      -71.380       -8.892       -3.049       65.255       28.701       24.016     4258.181      823.767      576.754        0.542        0.283       71.932       30.538        0.180      332.752        1.620      866.815
11/02/2014  22:40:00     -142.469      -35.503       -6.446       49.013       40.292       25.894     2402.299     1623.423      670.508        1.315        0.235      146.826       28.140        0.037      332.691        1.519      866.812
11/02/2014  22:41:00     -103.677      -43.959        6.090       45.187       33.208       22.481     2041.884     1102.746      505.388        0.818        0.183      112.611       23.982        0.045      332.681        1.501      866.812
11/02/2014  22:42:00     -117.345      -50.771        1.845       59.731       33.089       24.829     3567.825     1094.904      616.475        1.081        0.264      127.858       29.305        0.053      332.793        1.688      866.809
11/02/2014  22:43:00     -128.175      -48.590       -4.453       47.837       39.715       25.453     2288.349     1577.302      647.862        1.166        0.226      137.076       25.093        0.034      332.821        1.732      866.797
11/02/2014  22:44:00     -145.566      -40.191       -1.367       43.687       37.656       24.593     1908.580     1417.971      604.807        1.337        0.197      151.013       24.774        0.027      332.719        1.565      866.793
11/02/2014  22:45:00     -146.054      -26.208       -7.520       34.465       29.971       21.355     1187.859      898.238      456.044        1.231        0.127      148.387       18.042        0.015      332.705        1.542      866.791
11/02/2014  22:46:00     -127.775      -26.409       -6.563       38.139       23.649       21.773     1454.615      559.279      474.057        0.978        0.124      130.476       23.722        0.033      332.625        1.409      866.780
11/02/2014  22:47:00      -96.353      -38.640       -2.587       26.557       24.865       22.463      705.279      618.266      504.593        0.631        0.091      103.812       17.817        0.029      332.651        1.452      866.762
11/02/2014  22:48:00     -105.748      -39.670       -8.684       24.029       22.911       17.191      577.385      524.913      295.517        0.711        0.070      112.944       11.227        0.010      332.692        1.520      866.750
11/02/2014  22:49:00      -81.645      -43.446       -3.644       45.810       19.682       20.393     2098.586      387.393      415.874        0.573        0.145       92.485       18.199        0.039      332.738        1.596      866.752
11/02/2014  22:50:00     -107.663      -61.227        2.775       41.384       28.404       20.654     1712.616      806.799      426.603        0.915        0.147      123.856       18.593        0.023      332.777        1.661      866.753
11/02/2014  22:51:00      -85.800      -49.204       -0.802       35.187       23.228       16.668     1238.098      539.540      277.837        0.592        0.103       98.907       13.919        0.020      332.893        1.853      866.749
11/02/2014  22:52:00      -88.200      -49.890       -1.296       52.308       30.050       24.497     2736.151      902.981      600.104        0.725        0.212      101.332       22.729        0.050      332.931        1.916      866.758
11/02/2014  22:53:00      -62.250      -44.097        4.194       35.126       31.728       26.397     1233.808     1006.656      696.805        0.439        0.147       76.287       17.991        0.056      332.956        1.955      866.779
11/02/2014  22:54:00     -101.368      -45.153       -9.352       22.967       25.350       16.367      527.490      642.628      267.864        0.692        0.072      110.970       10.798        0.009      332.949        1.945      866.792
11/02/2014  22:55:00      -90.157      -28.392       -2.918       26.158       25.636       16.005      684.259      657.219      256.171        0.527        0.080       94.522       14.842        0.025      332.881        1.832      866.806
11/02/2014  22:56:00     -113.348      -23.978      -12.846       18.107       28.730       17.755      327.860      825.433      315.256        0.753        0.073      115.856        9.053        0.006      332.817        1.727      866.827
11/02/2014  22:57:00     -145.692      -27.573      -14.447       34.335       26.386       18.888     1178.859      696.239      356.755        1.221        0.112      148.279       11.513        0.006      332.715        1.557      866.827
11/02/2014  22:58:00     -121.528      -22.415       -3.645       39.167       32.956       22.710     1534.039     1086.074      515.747        0.921        0.157      123.578       23.045        0.035      332.712        1.553      866.824
11/02/2014  22:59:00     -104.452      -14.729       -1.981       34.463       29.615       22.189     1187.668      877.057      492.352        0.684        0.128      105.485       17.686        0.028      332.691        1.518      866.815
11/02/2014  23:00:00     -132.526       -2.410      -13.118       35.112       27.250       21.576     1232.820      742.584      465.543        1.009        0.122      132.548       20.465        0.024      332.720        1.566      866.811
11/02/2014  23:01:00     -134.745        7.819      -10.958       33.435       30.433       22.014     1117.899      926.145      484.631        1.043        0.126      134.972       17.802        0.017      332.759        1.632      866.809
11/02/2014  23:02:00     -132.367       28.572       -7.810       44.473       41.096       27.144     1977.848     1688.850      736.813        1.140        0.220      135.416       22.317        0.027      332.794        1.690      866.799
11/02/2014  23:03:00     -145.453       40.702       -9.636       42.576       35.263       26.659     1812.727     1243.447      710.722        1.334        0.188      151.041       15.011        0.010      332.784        1.671      866.797
11/02/2014  23:04:00     -124.961        5.452      -12.210       62.211       34.332       24.365     3870.226     1178.717      593.635        1.072        0.282      125.080       29.557        0.056      332.735        1.591      866.808
11/02/2014  23:05:00     -102.013      -20.152      -14.013       46.977       43.325       21.308     2206.808     1877.044      454.013        0.777        0.227      103.984       19.847        0.036      332.703        1.537      866.826
11/02/2014  23:06:00      -86.770      -16.056       -3.095       43.641       31.892       21.598     1904.557     1017.084      466.470        0.559        0.169       88.243       16.482        0.035      332.720        1.567      866.828
11/02/2014  23:07:00      -51.459      -42.267       -5.959       48.833       36.038       21.131     2384.689     1298.728      446.520        0.430        0.206       66.593       15.696        0.056      332.771        1.651      866.833
11/02/2014  23:08:00     -133.728      -48.313       -3.903       33.166       28.275       20.212     1100.014      799.491      408.527        1.127        0.115      142.188       17.835        0.016      332.651        1.452      866.858
11/02/2014  23:09:00      -97.440      -56.555       -5.167       35.892       26.177       20.200     1288.255      685.222      408.054        0.755        0.119      112.664       14.886        0.017      332.736        1.593      866.887
11/02/2014  23:10:00      -76.187      -43.606       -1.313       20.169       25.915       13.714      406.781      671.590      188.077        0.449        0.063       87.783        9.432        0.012      332.841        1.767      866.903
11/02/2014  23:11:00      -50.312      -54.007       -0.801       39.344       29.325       18.574     1547.937      859.947      344.985        0.410        0.138       73.811       15.442        0.044      332.889        1.847      866.928
11/02/2014  23:12:00      -23.388      -56.584       -2.589       26.417       24.103       18.912      697.876      580.941      357.656        0.270        0.082       61.227       12.465        0.041      333.061        2.129      866.946
11/02/2014  23:13:00      -35.382      -27.063       -9.406       18.459       15.729       17.340      340.738      247.406      300.689        0.148        0.044       44.545       11.356        0.065      332.924        1.903      866.964
11/02/2014  23:14:00      -24.690      -21.327        6.323       28.967       27.220       13.504      839.090      740.910      182.363        0.143        0.088       32.626       15.682        0.231      332.939        1.929      866.971
11/02/2014  23:15:00      -13.646      -34.456       10.076       32.520       15.361       20.176     1057.563      235.953      407.073        0.159        0.085       37.060       19.976        0.291      332.942        1.933      866.980
11/02/2014  23:16:00      -52.092      -32.589        1.075       32.126       16.707       15.248     1032.053      279.140      232.512        0.266        0.077       61.446        8.969        0.021      332.927        1.907      866.982
11/02/2014  23:17:00      -71.360      -33.288       -2.042       30.371       15.076       14.883      922.388      227.294      221.505        0.379        0.069       78.742       12.810        0.026      332.882        1.835      866.994
11/02/2014  23:18:00      -85.639      -40.067       -4.645       17.277       13.901        9.649      298.506      193.252       93.110        0.477        0.029       94.549        8.111        0.007      332.850        1.782      867.002
11/02/2014  23:19:00      -83.256      -43.472       -5.362       16.315       21.433       10.540      266.173      459.393      111.100        0.484        0.042       93.922        4.878        0.003      332.876        1.824      867.003
11/02/2014  23:20:00      -92.805      -40.787       -3.728       26.427       18.128       11.987      698.398      328.634      143.691        0.573        0.059      101.373       12.678        0.016      332.866        1.810      867.002
11/02/2014  23:21:00     -101.713      -44.116       -5.253       23.026       15.271       15.751      530.205      233.214      248.106        0.667        0.051      110.868       14.755        0.018      332.843        1.771      866.999
11/02/2014  23:22:00     -103.525      -36.844      -14.695       13.822       15.189       11.190      191.053      230.696      125.215        0.642        0.027      109.886        5.732        0.003      332.813        1.721      867.003
11/02/2014  23:23:00     -114.756      -54.839      -10.595       30.899       18.393       15.148      954.727      338.290      229.462        0.891        0.076      127.186       17.248        0.018      332.716        1.559      867.019
11/02/2014  23:24:00     -102.438      -33.543       -0.402       24.820       22.609       14.211      616.050      511.152      201.947        0.647        0.066      107.790       10.095        0.009      332.761        1.634      867.036
11/02/2014  23:25:00     -153.213      -54.710      -14.632       14.777       19.926       10.638      218.362      397.034      113.174        1.370        0.036      162.688        6.564        0.002      332.664        1.474      867.052
11/02/2014  23:26:00     -105.353      -30.220       -3.056       42.131       25.554       19.855     1775.005      652.998      394.232        0.742        0.141      109.602       21.160        0.037      332.646        1.443      867.068
11/02/2014  23:27:00      -76.642      -41.904       -1.786       27.351       21.478       14.764      748.078      461.313      217.988        0.453        0.071       87.350       14.094        0.026      332.659        1.467      867.084
11/02/2014  23:28:00      -59.343      -25.418       -0.263       20.927       20.355       14.721      437.950      414.320      216.717        0.262        0.053       64.557        9.767        0.023      332.662        1.470      867.093
11/02/2014  23:29:00      -77.028      -12.176       -0.770       22.808       18.059       12.967      520.225      326.111      168.142        0.355        0.051       77.985       12.408        0.025      332.659        1.466      867.102
11/02/2014  23:30:00      -33.558       -5.609        1.252       21.279        9.480        9.258      452.816       89.875       85.714        0.089        0.031       34.023        9.919        0.085      332.724        1.573      867.110
11/02/2014  23:31:00       -4.460       12.391        3.760       20.857       21.710       12.567      435.022      471.328      157.921        0.063        0.053       13.169       13.414        1.038      332.784        1.674      867.122
11/02/2014  23:32:00       20.708       21.481        2.512       25.666       23.428       20.697      658.766      548.878      428.359        0.127        0.082       29.837        9.317        0.098      332.703        1.539      867.137
11/02/2014  23:33:00        1.974        7.313        2.257       12.637       12.762       10.702      159.685      162.879      114.540        0.025        0.022        7.575        7.808        1.063      332.608        1.383      867.144
11/02/2014  23:34:00       -5.560       -3.523        2.979        6.487        6.054        4.251       42.076       36.648       18.067        0.007        0.005        6.582        3.263        0.246      332.583        1.341      867.149
11/02/2014  23:35:00      -17.492        2.153       -0.038        9.527        6.347        7.881       90.766       40.285       62.117        0.025        0.010       17.624        6.608        0.141      332.646        1.442      867.154
11/02/2014  23:36:00      -37.274       13.451       -3.788        9.079        7.134        7.508       82.434       50.896       56.371        0.089        0.009       39.627        6.524        0.027      332.648        1.447      867.158
11/02/2014  23:37:00      -32.152        5.891       -3.825       16.349        6.375        5.993      267.285       40.647       35.920        0.071        0.017       32.687        7.750        0.056      332.669        1.483      867.162
11/02/2014  23:38:00       -1.413       19.030        3.731        9.435        6.184        7.285       89.027       38.236       53.069        0.028        0.009       19.082        5.315        0.078      332.620        1.401      867.168
11/02/2014  23:39:00       13.653       24.596       -3.350        7.974       10.329        7.050       63.585      106.688       49.705        0.051        0.011       28.131        6.087        0.047      332.614        1.392      867.169
11/02/2014  23:40:00       12.582       10.328       -0.163        8.621       11.998        9.261       74.317      143.961       85.769        0.028        0.015       16.278        6.690        0.169      332.558        1.299      867.170
11/02/2014  23:41:00       10.213       15.883        0.411        3.666        4.253        3.117       13.440       18.090        9.718        0.020        0.002       18.883        2.219        0.014      332.574        1.325      867.178
11/02/2014  23:42:00       20.927       27.164        3.680       12.410        5.466        4.609      154.017       29.875       21.243        0.070        0.010       34.290        2.514        0.005      332.596        1.358      867.193
11/02/2014  23:43:00       60.480       35.416        5.903       11.999       14.235       11.452      143.977      202.626      131.138        0.271        0.024       70.087        8.991        0.016      332.610        1.384      867.214
11/02/2014  23:44:00       37.572       43.185       28.804       18.677       17.419       17.466      348.844      303.416      305.069        0.253        0.048       57.242       10.312        0.032      332.513        1.224      867.224
11/02/2014  23:45:00       17.215       39.613       36.273       16.494       15.537       12.293      272.056      241.402      151.114        0.192        0.033       43.192        9.567        0.049      332.504        1.209      867.234
11/02/2014  23:46:00       11.966       30.303       37.293       12.601       15.347        9.149      158.774      235.523       83.707        0.147        0.024       32.580        8.343        0.066      332.495        1.194      867.255
11/02/2014  23:47:00       26.806      -54.718       -7.731       24.415       32.060       30.171      596.071     1027.830      910.286        0.315        0.127       60.931       21.043        0.119      332.656        1.460      867.272
11/02/2014  23:48:00       -1.561      -40.198       -3.916       30.067       20.081       20.853      904.035      403.251      434.837        0.169        0.087       40.228       10.668        0.070      332.720        1.567      867.289
11/02/2014  23:49:00      -36.778       -6.880        2.208       14.541       15.017       13.380      211.448      225.501      179.015        0.101        0.031       37.416        7.507        0.040      332.654        1.457      867.308
11/02/2014  23:50:00      -58.145      -22.134        3.167       26.448       23.171       13.762      699.472      536.875      189.387        0.265        0.071       62.215       15.917        0.065      332.595        1.359      867.326
11/02/2014  23:51:00      -81.023      -51.566        4.051       38.570       27.159       15.982     1487.665      737.587      255.418        0.586        0.124       96.040       16.800        0.031      332.658        1.464      867.332
11/02/2014  23:52:00      -59.297      -45.522        0.137       39.388       31.501       21.436     1551.430      992.313      459.505        0.430        0.150       74.755       24.417        0.107      332.620        1.401      867.335
11/02/2014  23:53:00      -34.435      -38.016        5.687       34.622       26.964       18.179     1198.681      727.062      330.486        0.246        0.113       51.293       12.467        0.059      332.653        1.456      867.334
11/02/2014  23:54:00      -43.659      -37.433        4.337       45.212       23.707       16.718     2044.147      562.014      279.492        0.311        0.144       57.509       13.687        0.057      332.671        1.485      867.326
11/02/2014  23:55:00      -53.734      -39.366        0.355       23.631       20.456       12.071      558.423      418.448      145.714        0.278        0.056       66.611       12.044        0.033      332.711        1.553      867.317
11/02/2014  23:56:00      -43.449      -20.643        2.605       26.559       21.271       13.926      705.360      452.476      193.939        0.184        0.068       48.104       14.868        0.096      332.668        1.483      867.326
11/02/2014  23:57:00      -49.281       -6.840       -6.021       14.464       16.220       11.893      209.213      263.077      141.452        0.156        0.031       49.754       10.187        0.042      332.650        1.451      867.334
11/02/2014  23:58:00      -39.714      -29.827       -1.930       19.398       19.700       10.515      376.295      388.083      110.571        0.167        0.044       49.667       10.341        0.043      332.722        1.570      867.344
11/02/2014  23:59:00      -54.371       -9.285        3.155       11.570       10.184       10.753      133.855      103.724      115.633        0.170        0.018       55.158        6.144        0.012      332.621        1.403      867.351
